<?xml version="1.0" encoding="UTF-8" standalone="no" ?>
<gpx xmlns="http://www.topografix.com/GPX/1/1" xmlns:xsi="http://www.w3.org/2001/XMLSchema-instance" xsi:schemaLocation="http://www.topografix.com/GPX/1/1 http://www.topografix.com/GPX/1/1/gpx.xsd" version="1.1" creator="VisuGPX - https://www.visugpx.com">
  <metadata>
    <name>Étang de Mirabail</name>
    <desc><![CDATA[Massif :  Massif de l'Aston  Départ :  Pla de Las Peyres - 1696 m 
Sentier bien marqué jusqu'à la passerelle du sentier qui mène aux étangs de Fontargente. Ensuite suivre les cairns jusqu'à l'alt 2008. Repérer deux gros blocs de pierres dans la pente à droite, les rejoindre pour retrouver un sentier qui mène au lac.
Belle rando dans une vallée ouverte, des marmottes pas trop farouches vous observent tranquillement.]]></desc>
  </metadata>
  <trk>
    <name><![CDATA[20180722220832-ng8Rl]]></name>
    <trkseg>
      <trkpt lat="42.64975" lon="1.7036">
        <ele>1702.15</ele>
        <time>2018-07-22T07:46:19Z</time>
      </trkpt>
      <trkpt lat="42.6498" lon="1.70353">
        <ele>1701.19</ele>
        <time>2018-07-22T07:46:27Z</time>
      </trkpt>
      <trkpt lat="42.64979" lon="1.70354">
        <ele>1700.23</ele>
        <time>2018-07-22T07:46:42Z</time>
      </trkpt>
      <trkpt lat="42.6498" lon="1.70356">
        <ele>1700.23</ele>
        <time>2018-07-22T07:46:55Z</time>
      </trkpt>
      <trkpt lat="42.64981" lon="1.70355">
        <ele>1700.71</ele>
        <time>2018-07-22T07:47:05Z</time>
      </trkpt>
      <trkpt lat="42.64981" lon="1.70355">
        <ele>1699.75</ele>
        <time>2018-07-22T07:47:15Z</time>
      </trkpt>
      <trkpt lat="42.6498" lon="1.70356">
        <ele>1699.75</ele>
        <time>2018-07-22T07:47:24Z</time>
      </trkpt>
      <trkpt lat="42.64982" lon="1.70353">
        <ele>1700.71</ele>
        <time>2018-07-22T07:47:38Z</time>
      </trkpt>
      <trkpt lat="42.64983" lon="1.70352">
        <ele>1701.19</ele>
        <time>2018-07-22T07:47:48Z</time>
      </trkpt>
      <trkpt lat="42.64985" lon="1.70351">
        <ele>1700.23</ele>
        <time>2018-07-22T07:48:02Z</time>
      </trkpt>
      <trkpt lat="42.64985" lon="1.70351">
        <ele>1699.75</ele>
        <time>2018-07-22T07:48:07Z</time>
      </trkpt>
      <trkpt lat="42.64984" lon="1.70353">
        <ele>1699.27</ele>
        <time>2018-07-22T07:48:19Z</time>
      </trkpt>
      <trkpt lat="42.64983" lon="1.70353">
        <ele>1700.23</ele>
        <time>2018-07-22T07:48:32Z</time>
      </trkpt>
      <trkpt lat="42.64985" lon="1.70355">
        <ele>1701.67</ele>
        <time>2018-07-22T07:48:54Z</time>
      </trkpt>
      <trkpt lat="42.64986" lon="1.70352">
        <ele>1702.15</ele>
        <time>2018-07-22T07:49:04Z</time>
      </trkpt>
      <trkpt lat="42.64983" lon="1.70352">
        <ele>1697.83</ele>
        <time>2018-07-22T07:49:09Z</time>
      </trkpt>
      <trkpt lat="42.64983" lon="1.70353">
        <ele>1696.86</ele>
        <time>2018-07-22T07:49:16Z</time>
      </trkpt>
      <trkpt lat="42.64982" lon="1.70353">
        <ele>1697.34</ele>
        <time>2018-07-22T07:49:31Z</time>
      </trkpt>
      <trkpt lat="42.64982" lon="1.70353">
        <ele>1697.83</ele>
        <time>2018-07-22T07:49:35Z</time>
      </trkpt>
      <trkpt lat="42.64982" lon="1.70352">
        <ele>1698.79</ele>
        <time>2018-07-22T07:49:42Z</time>
      </trkpt>
      <trkpt lat="42.64983" lon="1.70353">
        <ele>1700.23</ele>
        <time>2018-07-22T07:49:49Z</time>
      </trkpt>
      <trkpt lat="42.64981" lon="1.70356">
        <ele>1699.75</ele>
        <time>2018-07-22T07:50:00Z</time>
      </trkpt>
      <trkpt lat="42.64979" lon="1.70356">
        <ele>1698.31</ele>
        <time>2018-07-22T07:50:14Z</time>
      </trkpt>
      <trkpt lat="42.64981" lon="1.70352">
        <ele>1699.27</ele>
        <time>2018-07-22T07:50:21Z</time>
      </trkpt>
      <trkpt lat="42.64977" lon="1.70355">
        <ele>1698.79</ele>
        <time>2018-07-22T07:50:32Z</time>
      </trkpt>
      <trkpt lat="42.64979" lon="1.70355">
        <ele>1699.75</ele>
        <time>2018-07-22T07:50:42Z</time>
      </trkpt>
      <trkpt lat="42.64979" lon="1.70351">
        <ele>1700.23</ele>
        <time>2018-07-22T07:50:52Z</time>
      </trkpt>
      <trkpt lat="42.64976" lon="1.70354">
        <ele>1698.31</ele>
        <time>2018-07-22T07:50:58Z</time>
      </trkpt>
      <trkpt lat="42.64977" lon="1.70355">
        <ele>1698.31</ele>
        <time>2018-07-22T07:51:09Z</time>
      </trkpt>
      <trkpt lat="42.64978" lon="1.70355">
        <ele>1698.31</ele>
        <time>2018-07-22T07:51:20Z</time>
      </trkpt>
      <trkpt lat="42.64979" lon="1.7035">
        <ele>1694.94</ele>
        <time>2018-07-22T07:51:26Z</time>
      </trkpt>
      <trkpt lat="42.64976" lon="1.70353">
        <ele>1695.42</ele>
        <time>2018-07-22T07:51:33Z</time>
      </trkpt>
      <trkpt lat="42.64975" lon="1.70354">
        <ele>1696.86</ele>
        <time>2018-07-22T07:51:48Z</time>
      </trkpt>
      <trkpt lat="42.64976" lon="1.70353">
        <ele>1696.86</ele>
        <time>2018-07-22T07:51:58Z</time>
      </trkpt>
      <trkpt lat="42.64972" lon="1.7035">
        <ele>1696.86</ele>
        <time>2018-07-22T07:52:05Z</time>
      </trkpt>
      <trkpt lat="42.64966" lon="1.70349">
        <ele>1695.9</ele>
        <time>2018-07-22T07:52:13Z</time>
      </trkpt>
      <trkpt lat="42.64959" lon="1.70348">
        <ele>1694.94</ele>
        <time>2018-07-22T07:52:19Z</time>
      </trkpt>
      <trkpt lat="42.64953" lon="1.70346">
        <ele>1694.94</ele>
        <time>2018-07-22T07:52:27Z</time>
      </trkpt>
      <trkpt lat="42.6495" lon="1.70346">
        <ele>1696.38</ele>
        <time>2018-07-22T07:52:35Z</time>
      </trkpt>
      <trkpt lat="42.64949" lon="1.70346">
        <ele>1696.38</ele>
        <time>2018-07-22T07:52:43Z</time>
      </trkpt>
      <trkpt lat="42.64947" lon="1.70345">
        <ele>1699.27</ele>
        <time>2018-07-22T07:52:53Z</time>
      </trkpt>
      <trkpt lat="42.64948" lon="1.70348">
        <ele>1700.23</ele>
        <time>2018-07-22T07:53:03Z</time>
      </trkpt>
      <trkpt lat="42.64948" lon="1.70347">
        <ele>1700.71</ele>
        <time>2018-07-22T07:53:13Z</time>
      </trkpt>
      <trkpt lat="42.64948" lon="1.70349">
        <ele>1701.19</ele>
        <time>2018-07-22T07:53:20Z</time>
      </trkpt>
      <trkpt lat="42.64949" lon="1.7035">
        <ele>1701.19</ele>
        <time>2018-07-22T07:53:26Z</time>
      </trkpt>
      <trkpt lat="42.64944" lon="1.70347">
        <ele>1701.67</ele>
        <time>2018-07-22T07:53:33Z</time>
      </trkpt>
      <trkpt lat="42.64943" lon="1.70345">
        <ele>1702.63</ele>
        <time>2018-07-22T07:53:35Z</time>
      </trkpt>
      <trkpt lat="42.64942" lon="1.70339">
        <ele>1701.67</ele>
        <time>2018-07-22T07:53:39Z</time>
      </trkpt>
      <trkpt lat="42.64945" lon="1.70337">
        <ele>1700.23</ele>
        <time>2018-07-22T07:53:47Z</time>
      </trkpt>
      <trkpt lat="42.64946" lon="1.70335">
        <ele>1698.79</ele>
        <time>2018-07-22T07:53:57Z</time>
      </trkpt>
      <trkpt lat="42.64945" lon="1.70329">
        <ele>1697.83</ele>
        <time>2018-07-22T07:54:11Z</time>
      </trkpt>
      <trkpt lat="42.6495" lon="1.70322">
        <ele>1696.38</ele>
        <time>2018-07-22T07:54:19Z</time>
      </trkpt>
      <trkpt lat="42.64952" lon="1.70314">
        <ele>1694.46</ele>
        <time>2018-07-22T07:54:25Z</time>
      </trkpt>
      <trkpt lat="42.64953" lon="1.70305">
        <ele>1693.5</ele>
        <time>2018-07-22T07:54:32Z</time>
      </trkpt>
      <trkpt lat="42.64954" lon="1.70299">
        <ele>1693.98</ele>
        <time>2018-07-22T07:54:37Z</time>
      </trkpt>
      <trkpt lat="42.64951" lon="1.70292">
        <ele>1694.46</ele>
        <time>2018-07-22T07:54:46Z</time>
      </trkpt>
      <trkpt lat="42.64949" lon="1.70288">
        <ele>1693.98</ele>
        <time>2018-07-22T07:54:52Z</time>
      </trkpt>
      <trkpt lat="42.64945" lon="1.70285">
        <ele>1694.94</ele>
        <time>2018-07-22T07:54:57Z</time>
      </trkpt>
      <trkpt lat="42.6494" lon="1.70277">
        <ele>1694.94</ele>
        <time>2018-07-22T07:55:03Z</time>
      </trkpt>
      <trkpt lat="42.64935" lon="1.70274">
        <ele>1695.42</ele>
        <time>2018-07-22T07:55:10Z</time>
      </trkpt>
      <trkpt lat="42.64932" lon="1.70274">
        <ele>1694.94</ele>
        <time>2018-07-22T07:55:12Z</time>
      </trkpt>
      <trkpt lat="42.64929" lon="1.70273">
        <ele>1694.94</ele>
        <time>2018-07-22T07:55:15Z</time>
      </trkpt>
      <trkpt lat="42.64923" lon="1.70261">
        <ele>1694.46</ele>
        <time>2018-07-22T07:55:24Z</time>
      </trkpt>
      <trkpt lat="42.64921" lon="1.70259">
        <ele>1695.42</ele>
        <time>2018-07-22T07:55:33Z</time>
      </trkpt>
      <trkpt lat="42.64918" lon="1.70258">
        <ele>1695.42</ele>
        <time>2018-07-22T07:55:35Z</time>
      </trkpt>
      <trkpt lat="42.64909" lon="1.70247">
        <ele>1695.42</ele>
        <time>2018-07-22T07:55:45Z</time>
      </trkpt>
      <trkpt lat="42.64901" lon="1.70235">
        <ele>1695.42</ele>
        <time>2018-07-22T07:55:53Z</time>
      </trkpt>
      <trkpt lat="42.64895" lon="1.70223">
        <ele>1696.38</ele>
        <time>2018-07-22T07:56:01Z</time>
      </trkpt>
      <trkpt lat="42.64887" lon="1.70208">
        <ele>1698.79</ele>
        <time>2018-07-22T07:56:11Z</time>
      </trkpt>
      <trkpt lat="42.64881" lon="1.70198">
        <ele>1700.23</ele>
        <time>2018-07-22T07:56:17Z</time>
      </trkpt>
      <trkpt lat="42.64875" lon="1.70191">
        <ele>1700.23</ele>
        <time>2018-07-22T07:56:23Z</time>
      </trkpt>
      <trkpt lat="42.6487" lon="1.70182">
        <ele>1701.67</ele>
        <time>2018-07-22T07:56:30Z</time>
      </trkpt>
      <trkpt lat="42.64867" lon="1.70173">
        <ele>1702.15</ele>
        <time>2018-07-22T07:56:35Z</time>
      </trkpt>
      <trkpt lat="42.64864" lon="1.70164">
        <ele>1702.63</ele>
        <time>2018-07-22T07:56:41Z</time>
      </trkpt>
      <trkpt lat="42.64861" lon="1.7015">
        <ele>1703.11</ele>
        <time>2018-07-22T07:56:49Z</time>
      </trkpt>
      <trkpt lat="42.64857" lon="1.70139">
        <ele>1702.15</ele>
        <time>2018-07-22T07:56:57Z</time>
      </trkpt>
      <trkpt lat="42.64856" lon="1.70134">
        <ele>1702.63</ele>
        <time>2018-07-22T07:57:01Z</time>
      </trkpt>
      <trkpt lat="42.64854" lon="1.70125">
        <ele>1702.63</ele>
        <time>2018-07-22T07:57:08Z</time>
      </trkpt>
      <trkpt lat="42.64852" lon="1.70115">
        <ele>1703.11</ele>
        <time>2018-07-22T07:57:16Z</time>
      </trkpt>
      <trkpt lat="42.6485" lon="1.70108">
        <ele>1703.11</ele>
        <time>2018-07-22T07:57:22Z</time>
      </trkpt>
      <trkpt lat="42.64847" lon="1.70101">
        <ele>1704.07</ele>
        <time>2018-07-22T07:57:30Z</time>
      </trkpt>
      <trkpt lat="42.64844" lon="1.70094">
        <ele>1706.48</ele>
        <time>2018-07-22T07:57:38Z</time>
      </trkpt>
      <trkpt lat="42.64841" lon="1.70089">
        <ele>1708.4</ele>
        <time>2018-07-22T07:57:46Z</time>
      </trkpt>
      <trkpt lat="42.64837" lon="1.70084">
        <ele>1709.36</ele>
        <time>2018-07-22T07:57:53Z</time>
      </trkpt>
      <trkpt lat="42.64835" lon="1.70083">
        <ele>1709.36</ele>
        <time>2018-07-22T07:57:55Z</time>
      </trkpt>
      <trkpt lat="42.64831" lon="1.70083">
        <ele>1709.84</ele>
        <time>2018-07-22T07:58:03Z</time>
      </trkpt>
      <trkpt lat="42.6483" lon="1.70079">
        <ele>1709.84</ele>
        <time>2018-07-22T07:58:09Z</time>
      </trkpt>
      <trkpt lat="42.64828" lon="1.70075">
        <ele>1711.76</ele>
        <time>2018-07-22T07:58:15Z</time>
      </trkpt>
      <trkpt lat="42.64822" lon="1.70073">
        <ele>1712.73</ele>
        <time>2018-07-22T07:58:22Z</time>
      </trkpt>
      <trkpt lat="42.64817" lon="1.70072">
        <ele>1713.21</ele>
        <time>2018-07-22T07:58:28Z</time>
      </trkpt>
      <trkpt lat="42.64811" lon="1.7007">
        <ele>1713.21</ele>
        <time>2018-07-22T07:58:35Z</time>
      </trkpt>
      <trkpt lat="42.64803" lon="1.70069">
        <ele>1712.73</ele>
        <time>2018-07-22T07:58:43Z</time>
      </trkpt>
      <trkpt lat="42.64797" lon="1.70068">
        <ele>1712.25</ele>
        <time>2018-07-22T07:58:51Z</time>
      </trkpt>
      <trkpt lat="42.64791" lon="1.70066">
        <ele>1711.76</ele>
        <time>2018-07-22T07:58:59Z</time>
      </trkpt>
      <trkpt lat="42.64786" lon="1.70061">
        <ele>1711.28</ele>
        <time>2018-07-22T07:59:08Z</time>
      </trkpt>
      <trkpt lat="42.64782" lon="1.70062">
        <ele>1711.76</ele>
        <time>2018-07-22T07:59:15Z</time>
      </trkpt>
      <trkpt lat="42.64779" lon="1.70061">
        <ele>1712.73</ele>
        <time>2018-07-22T07:59:22Z</time>
      </trkpt>
      <trkpt lat="42.64771" lon="1.70063">
        <ele>1713.69</ele>
        <time>2018-07-22T07:59:29Z</time>
      </trkpt>
      <trkpt lat="42.64765" lon="1.70063">
        <ele>1712.73</ele>
        <time>2018-07-22T07:59:36Z</time>
      </trkpt>
      <trkpt lat="42.64757" lon="1.70064">
        <ele>1712.73</ele>
        <time>2018-07-22T07:59:44Z</time>
      </trkpt>
      <trkpt lat="42.64749" lon="1.70062">
        <ele>1713.21</ele>
        <time>2018-07-22T07:59:52Z</time>
      </trkpt>
      <trkpt lat="42.64741" lon="1.70058">
        <ele>1713.69</ele>
        <time>2018-07-22T08:00:00Z</time>
      </trkpt>
      <trkpt lat="42.64739" lon="1.70057">
        <ele>1714.17</ele>
        <time>2018-07-22T08:00:03Z</time>
      </trkpt>
      <trkpt lat="42.64731" lon="1.70055">
        <ele>1715.13</ele>
        <time>2018-07-22T08:00:10Z</time>
      </trkpt>
      <trkpt lat="42.64723" lon="1.70055">
        <ele>1715.61</ele>
        <time>2018-07-22T08:00:16Z</time>
      </trkpt>
      <trkpt lat="42.64716" lon="1.70053">
        <ele>1716.09</ele>
        <time>2018-07-22T08:00:23Z</time>
      </trkpt>
      <trkpt lat="42.64716" lon="1.7005">
        <ele>1717.05</ele>
        <time>2018-07-22T08:00:30Z</time>
      </trkpt>
      <trkpt lat="42.64707" lon="1.70048">
        <ele>1716.57</ele>
        <time>2018-07-22T08:00:38Z</time>
      </trkpt>
      <trkpt lat="42.64698" lon="1.70048">
        <ele>1716.57</ele>
        <time>2018-07-22T08:00:47Z</time>
      </trkpt>
      <trkpt lat="42.64692" lon="1.70048">
        <ele>1717.53</ele>
        <time>2018-07-22T08:00:53Z</time>
      </trkpt>
      <trkpt lat="42.64684" lon="1.70047">
        <ele>1718.49</ele>
        <time>2018-07-22T08:01:01Z</time>
      </trkpt>
      <trkpt lat="42.64679" lon="1.70045">
        <ele>1718.49</ele>
        <time>2018-07-22T08:01:06Z</time>
      </trkpt>
      <trkpt lat="42.64669" lon="1.70042">
        <ele>1718.97</ele>
        <time>2018-07-22T08:01:14Z</time>
      </trkpt>
      <trkpt lat="42.64662" lon="1.70037">
        <ele>1719.94</ele>
        <time>2018-07-22T08:01:20Z</time>
      </trkpt>
      <trkpt lat="42.6466" lon="1.70037">
        <ele>1718.97</ele>
        <time>2018-07-22T08:01:28Z</time>
      </trkpt>
      <trkpt lat="42.64661" lon="1.70036">
        <ele>1718.01</ele>
        <time>2018-07-22T08:01:39Z</time>
      </trkpt>
      <trkpt lat="42.64663" lon="1.70035">
        <ele>1717.53</ele>
        <time>2018-07-22T08:01:55Z</time>
      </trkpt>
      <trkpt lat="42.64659" lon="1.70034">
        <ele>1718.01</ele>
        <time>2018-07-22T08:02:07Z</time>
      </trkpt>
      <trkpt lat="42.64661" lon="1.70035">
        <ele>1715.61</ele>
        <time>2018-07-22T08:02:24Z</time>
      </trkpt>
      <trkpt lat="42.64661" lon="1.70035">
        <ele>1716.09</ele>
        <time>2018-07-22T08:02:34Z</time>
      </trkpt>
      <trkpt lat="42.6466" lon="1.70033">
        <ele>1715.13</ele>
        <time>2018-07-22T08:02:41Z</time>
      </trkpt>
      <trkpt lat="42.64659" lon="1.70033">
        <ele>1715.13</ele>
        <time>2018-07-22T08:02:52Z</time>
      </trkpt>
      <trkpt lat="42.64659" lon="1.70036">
        <ele>1714.65</ele>
        <time>2018-07-22T08:03:01Z</time>
      </trkpt>
      <trkpt lat="42.64662" lon="1.70036">
        <ele>1714.65</ele>
        <time>2018-07-22T08:03:15Z</time>
      </trkpt>
      <trkpt lat="42.64662" lon="1.70036">
        <ele>1716.57</ele>
        <time>2018-07-22T08:03:27Z</time>
      </trkpt>
      <trkpt lat="42.64662" lon="1.70037">
        <ele>1716.57</ele>
        <time>2018-07-22T08:03:39Z</time>
      </trkpt>
      <trkpt lat="42.6466" lon="1.70037">
        <ele>1718.49</ele>
        <time>2018-07-22T08:03:53Z</time>
      </trkpt>
      <trkpt lat="42.64663" lon="1.70036">
        <ele>1722.34</ele>
        <time>2018-07-22T08:04:08Z</time>
      </trkpt>
      <trkpt lat="42.64661" lon="1.70035">
        <ele>1721.86</ele>
        <time>2018-07-22T08:04:22Z</time>
      </trkpt>
      <trkpt lat="42.64659" lon="1.70034">
        <ele>1720.9</ele>
        <time>2018-07-22T08:04:29Z</time>
      </trkpt>
      <trkpt lat="42.64659" lon="1.70034">
        <ele>1720.42</ele>
        <time>2018-07-22T08:04:40Z</time>
      </trkpt>
      <trkpt lat="42.64659" lon="1.70035">
        <ele>1722.82</ele>
        <time>2018-07-22T08:04:51Z</time>
      </trkpt>
      <trkpt lat="42.64659" lon="1.70038">
        <ele>1722.34</ele>
        <time>2018-07-22T08:05:02Z</time>
      </trkpt>
      <trkpt lat="42.64661" lon="1.70037">
        <ele>1722.82</ele>
        <time>2018-07-22T08:05:12Z</time>
      </trkpt>
      <trkpt lat="42.64658" lon="1.70034">
        <ele>1723.3</ele>
        <time>2018-07-22T08:05:20Z</time>
      </trkpt>
      <trkpt lat="42.64653" lon="1.70034">
        <ele>1723.3</ele>
        <time>2018-07-22T08:05:27Z</time>
      </trkpt>
      <trkpt lat="42.64653" lon="1.70034">
        <ele>1723.78</ele>
        <time>2018-07-22T08:05:37Z</time>
      </trkpt>
      <trkpt lat="42.64651" lon="1.70032">
        <ele>1724.26</ele>
        <time>2018-07-22T08:05:46Z</time>
      </trkpt>
      <trkpt lat="42.64646" lon="1.70032">
        <ele>1724.74</ele>
        <time>2018-07-22T08:05:53Z</time>
      </trkpt>
      <trkpt lat="42.64643" lon="1.70033">
        <ele>1725.22</ele>
        <time>2018-07-22T08:06:00Z</time>
      </trkpt>
      <trkpt lat="42.64639" lon="1.70032">
        <ele>1726.18</ele>
        <time>2018-07-22T08:06:08Z</time>
      </trkpt>
      <trkpt lat="42.64636" lon="1.70036">
        <ele>1727.15</ele>
        <time>2018-07-22T08:06:14Z</time>
      </trkpt>
      <trkpt lat="42.64637" lon="1.70037">
        <ele>1727.63</ele>
        <time>2018-07-22T08:06:16Z</time>
      </trkpt>
      <trkpt lat="42.64634" lon="1.70046">
        <ele>1729.07</ele>
        <time>2018-07-22T08:06:23Z</time>
      </trkpt>
      <trkpt lat="42.64624" lon="1.70055">
        <ele>1730.99</ele>
        <time>2018-07-22T08:06:32Z</time>
      </trkpt>
      <trkpt lat="42.64622" lon="1.70057">
        <ele>1732.91</ele>
        <time>2018-07-22T08:06:38Z</time>
      </trkpt>
      <trkpt lat="42.64613" lon="1.70055">
        <ele>1735.8</ele>
        <time>2018-07-22T08:06:48Z</time>
      </trkpt>
      <trkpt lat="42.64608" lon="1.70054">
        <ele>1736.76</ele>
        <time>2018-07-22T08:06:55Z</time>
      </trkpt>
      <trkpt lat="42.64605" lon="1.70056">
        <ele>1737.24</ele>
        <time>2018-07-22T08:06:58Z</time>
      </trkpt>
      <trkpt lat="42.64593" lon="1.70057">
        <ele>1737.24</ele>
        <time>2018-07-22T08:07:06Z</time>
      </trkpt>
      <trkpt lat="42.64593" lon="1.70062">
        <ele>1732.91</ele>
        <time>2018-07-22T08:07:14Z</time>
      </trkpt>
      <trkpt lat="42.64593" lon="1.70067">
        <ele>1729.55</ele>
        <time>2018-07-22T08:07:29Z</time>
      </trkpt>
      <trkpt lat="42.6459" lon="1.70063">
        <ele>1723.3</ele>
        <time>2018-07-22T08:07:48Z</time>
      </trkpt>
      <trkpt lat="42.64585" lon="1.70059">
        <ele>1723.78</ele>
        <time>2018-07-22T08:07:58Z</time>
      </trkpt>
      <trkpt lat="42.64577" lon="1.70058">
        <ele>1723.3</ele>
        <time>2018-07-22T08:08:06Z</time>
      </trkpt>
      <trkpt lat="42.64576" lon="1.70058">
        <ele>1723.3</ele>
        <time>2018-07-22T08:08:07Z</time>
      </trkpt>
      <trkpt lat="42.64563" lon="1.70059">
        <ele>1723.78</ele>
        <time>2018-07-22T08:08:17Z</time>
      </trkpt>
      <trkpt lat="42.64563" lon="1.70059">
        <ele>1724.74</ele>
        <time>2018-07-22T08:08:18Z</time>
      </trkpt>
      <trkpt lat="42.64555" lon="1.70058">
        <ele>1724.74</ele>
        <time>2018-07-22T08:08:25Z</time>
      </trkpt>
      <trkpt lat="42.64546" lon="1.70056">
        <ele>1725.22</ele>
        <time>2018-07-22T08:08:33Z</time>
      </trkpt>
      <trkpt lat="42.64537" lon="1.70053">
        <ele>1725.22</ele>
        <time>2018-07-22T08:08:41Z</time>
      </trkpt>
      <trkpt lat="42.64531" lon="1.7005">
        <ele>1724.26</ele>
        <time>2018-07-22T08:08:47Z</time>
      </trkpt>
      <trkpt lat="42.64524" lon="1.70047">
        <ele>1723.3</ele>
        <time>2018-07-22T08:08:54Z</time>
      </trkpt>
      <trkpt lat="42.64521" lon="1.70046">
        <ele>1723.3</ele>
        <time>2018-07-22T08:08:57Z</time>
      </trkpt>
      <trkpt lat="42.64515" lon="1.70042">
        <ele>1724.74</ele>
        <time>2018-07-22T08:09:02Z</time>
      </trkpt>
      <trkpt lat="42.64507" lon="1.70043">
        <ele>1725.22</ele>
        <time>2018-07-22T08:09:09Z</time>
      </trkpt>
      <trkpt lat="42.64502" lon="1.7004">
        <ele>1724.74</ele>
        <time>2018-07-22T08:09:14Z</time>
      </trkpt>
      <trkpt lat="42.64493" lon="1.70039">
        <ele>1719.46</ele>
        <time>2018-07-22T08:09:20Z</time>
      </trkpt>
      <trkpt lat="42.64485" lon="1.70036">
        <ele>1717.53</ele>
        <time>2018-07-22T08:09:27Z</time>
      </trkpt>
      <trkpt lat="42.64483" lon="1.70035">
        <ele>1716.57</ele>
        <time>2018-07-22T08:09:30Z</time>
      </trkpt>
      <trkpt lat="42.64478" lon="1.70034">
        <ele>1716.57</ele>
        <time>2018-07-22T08:09:35Z</time>
      </trkpt>
      <trkpt lat="42.64475" lon="1.7003">
        <ele>1716.09</ele>
        <time>2018-07-22T08:09:41Z</time>
      </trkpt>
      <trkpt lat="42.6447" lon="1.70027">
        <ele>1716.09</ele>
        <time>2018-07-22T08:09:48Z</time>
      </trkpt>
      <trkpt lat="42.64467" lon="1.70025">
        <ele>1715.61</ele>
        <time>2018-07-22T08:09:52Z</time>
      </trkpt>
      <trkpt lat="42.64465" lon="1.70023">
        <ele>1715.61</ele>
        <time>2018-07-22T08:09:56Z</time>
      </trkpt>
      <trkpt lat="42.6446" lon="1.70022">
        <ele>1714.65</ele>
        <time>2018-07-22T08:10:03Z</time>
      </trkpt>
      <trkpt lat="42.64453" lon="1.70021">
        <ele>1714.17</ele>
        <time>2018-07-22T08:10:10Z</time>
      </trkpt>
      <trkpt lat="42.64452" lon="1.70021">
        <ele>1714.17</ele>
        <time>2018-07-22T08:10:11Z</time>
      </trkpt>
      <trkpt lat="42.64446" lon="1.70017">
        <ele>1716.09</ele>
        <time>2018-07-22T08:10:20Z</time>
      </trkpt>
      <trkpt lat="42.64443" lon="1.70016">
        <ele>1717.05</ele>
        <time>2018-07-22T08:10:24Z</time>
      </trkpt>
      <trkpt lat="42.64437" lon="1.70017">
        <ele>1717.53</ele>
        <time>2018-07-22T08:10:29Z</time>
      </trkpt>
      <trkpt lat="42.64428" lon="1.70012">
        <ele>1718.97</ele>
        <time>2018-07-22T08:10:37Z</time>
      </trkpt>
      <trkpt lat="42.64422" lon="1.70008">
        <ele>1719.94</ele>
        <time>2018-07-22T08:10:44Z</time>
      </trkpt>
      <trkpt lat="42.64415" lon="1.70004">
        <ele>1722.34</ele>
        <time>2018-07-22T08:10:52Z</time>
      </trkpt>
      <trkpt lat="42.64411" lon="1.7">
        <ele>1724.26</ele>
        <time>2018-07-22T08:10:59Z</time>
      </trkpt>
      <trkpt lat="42.64409" lon="1.69995">
        <ele>1725.22</ele>
        <time>2018-07-22T08:11:05Z</time>
      </trkpt>
      <trkpt lat="42.64404" lon="1.69992">
        <ele>1725.7</ele>
        <time>2018-07-22T08:11:09Z</time>
      </trkpt>
      <trkpt lat="42.64396" lon="1.69988">
        <ele>1727.15</ele>
        <time>2018-07-22T08:11:17Z</time>
      </trkpt>
      <trkpt lat="42.64395" lon="1.69985">
        <ele>1728.59</ele>
        <time>2018-07-22T08:11:23Z</time>
      </trkpt>
      <trkpt lat="42.64391" lon="1.69982">
        <ele>1730.51</ele>
        <time>2018-07-22T08:11:31Z</time>
      </trkpt>
      <trkpt lat="42.64388" lon="1.69978">
        <ele>1732.91</ele>
        <time>2018-07-22T08:11:39Z</time>
      </trkpt>
      <trkpt lat="42.6438" lon="1.69976">
        <ele>1732.43</ele>
        <time>2018-07-22T08:11:45Z</time>
      </trkpt>
      <trkpt lat="42.64377" lon="1.69975">
        <ele>1732.91</ele>
        <time>2018-07-22T08:11:48Z</time>
      </trkpt>
      <trkpt lat="42.64371" lon="1.69974">
        <ele>1733.88</ele>
        <time>2018-07-22T08:11:53Z</time>
      </trkpt>
      <trkpt lat="42.64364" lon="1.69975">
        <ele>1734.36</ele>
        <time>2018-07-22T08:12:00Z</time>
      </trkpt>
      <trkpt lat="42.64357" lon="1.69974">
        <ele>1734.36</ele>
        <time>2018-07-22T08:12:09Z</time>
      </trkpt>
      <trkpt lat="42.64356" lon="1.69974">
        <ele>1734.36</ele>
        <time>2018-07-22T08:12:10Z</time>
      </trkpt>
      <trkpt lat="42.64348" lon="1.6997">
        <ele>1733.88</ele>
        <time>2018-07-22T08:12:19Z</time>
      </trkpt>
      <trkpt lat="42.64343" lon="1.69968">
        <ele>1734.36</ele>
        <time>2018-07-22T08:12:26Z</time>
      </trkpt>
      <trkpt lat="42.64338" lon="1.69966">
        <ele>1735.32</ele>
        <time>2018-07-22T08:12:34Z</time>
      </trkpt>
      <trkpt lat="42.64337" lon="1.69964">
        <ele>1735.32</ele>
        <time>2018-07-22T08:12:39Z</time>
      </trkpt>
      <trkpt lat="42.64335" lon="1.69965">
        <ele>1735.8</ele>
        <time>2018-07-22T08:12:41Z</time>
      </trkpt>
      <trkpt lat="42.64333" lon="1.69964">
        <ele>1735.8</ele>
        <time>2018-07-22T08:12:44Z</time>
      </trkpt>
      <trkpt lat="42.64325" lon="1.69959">
        <ele>1735.8</ele>
        <time>2018-07-22T08:12:53Z</time>
      </trkpt>
      <trkpt lat="42.64317" lon="1.69955">
        <ele>1736.76</ele>
        <time>2018-07-22T08:13:01Z</time>
      </trkpt>
      <trkpt lat="42.64312" lon="1.69952">
        <ele>1736.28</ele>
        <time>2018-07-22T08:13:07Z</time>
      </trkpt>
      <trkpt lat="42.64303" lon="1.69947">
        <ele>1735.8</ele>
        <time>2018-07-22T08:13:16Z</time>
      </trkpt>
      <trkpt lat="42.64297" lon="1.69942">
        <ele>1735.8</ele>
        <time>2018-07-22T08:13:23Z</time>
      </trkpt>
      <trkpt lat="42.64292" lon="1.69939">
        <ele>1736.28</ele>
        <time>2018-07-22T08:13:31Z</time>
      </trkpt>
      <trkpt lat="42.64289" lon="1.69936">
        <ele>1736.76</ele>
        <time>2018-07-22T08:13:38Z</time>
      </trkpt>
      <trkpt lat="42.64285" lon="1.69932">
        <ele>1736.76</ele>
        <time>2018-07-22T08:13:45Z</time>
      </trkpt>
      <trkpt lat="42.64281" lon="1.69931">
        <ele>1736.28</ele>
        <time>2018-07-22T08:13:52Z</time>
      </trkpt>
      <trkpt lat="42.64279" lon="1.69927">
        <ele>1736.28</ele>
        <time>2018-07-22T08:14:00Z</time>
      </trkpt>
      <trkpt lat="42.64276" lon="1.69927">
        <ele>1736.28</ele>
        <time>2018-07-22T08:14:03Z</time>
      </trkpt>
      <trkpt lat="42.64272" lon="1.69925">
        <ele>1736.28</ele>
        <time>2018-07-22T08:14:08Z</time>
      </trkpt>
      <trkpt lat="42.64266" lon="1.69921">
        <ele>1736.76</ele>
        <time>2018-07-22T08:14:16Z</time>
      </trkpt>
      <trkpt lat="42.64259" lon="1.69917">
        <ele>1738.2</ele>
        <time>2018-07-22T08:14:24Z</time>
      </trkpt>
      <trkpt lat="42.64254" lon="1.69917">
        <ele>1739.64</ele>
        <time>2018-07-22T08:14:34Z</time>
      </trkpt>
      <trkpt lat="42.64252" lon="1.69913">
        <ele>1739.64</ele>
        <time>2018-07-22T08:14:41Z</time>
      </trkpt>
      <trkpt lat="42.64248" lon="1.6991">
        <ele>1741.57</ele>
        <time>2018-07-22T08:14:48Z</time>
      </trkpt>
      <trkpt lat="42.64244" lon="1.69908">
        <ele>1742.05</ele>
        <time>2018-07-22T08:14:54Z</time>
      </trkpt>
      <trkpt lat="42.64238" lon="1.69905">
        <ele>1744.45</ele>
        <time>2018-07-22T08:15:02Z</time>
      </trkpt>
      <trkpt lat="42.64235" lon="1.69903">
        <ele>1744.45</ele>
        <time>2018-07-22T08:15:07Z</time>
      </trkpt>
      <trkpt lat="42.64235" lon="1.699">
        <ele>1745.41</ele>
        <time>2018-07-22T08:15:14Z</time>
      </trkpt>
      <trkpt lat="42.64231" lon="1.69896">
        <ele>1747.33</ele>
        <time>2018-07-22T08:15:21Z</time>
      </trkpt>
      <trkpt lat="42.64227" lon="1.69894">
        <ele>1750.22</ele>
        <time>2018-07-22T08:15:29Z</time>
      </trkpt>
      <trkpt lat="42.64221" lon="1.69891">
        <ele>1752.62</ele>
        <time>2018-07-22T08:15:36Z</time>
      </trkpt>
      <trkpt lat="42.64217" lon="1.6989">
        <ele>1754.54</ele>
        <time>2018-07-22T08:15:45Z</time>
      </trkpt>
      <trkpt lat="42.64212" lon="1.69888">
        <ele>1754.06</ele>
        <time>2018-07-22T08:15:50Z</time>
      </trkpt>
      <trkpt lat="42.64209" lon="1.69883">
        <ele>1754.06</ele>
        <time>2018-07-22T08:15:56Z</time>
      </trkpt>
      <trkpt lat="42.64205" lon="1.69879">
        <ele>1753.58</ele>
        <time>2018-07-22T08:16:01Z</time>
      </trkpt>
      <trkpt lat="42.642" lon="1.69873">
        <ele>1753.1</ele>
        <time>2018-07-22T08:16:10Z</time>
      </trkpt>
      <trkpt lat="42.64193" lon="1.69869">
        <ele>1755.5</ele>
        <time>2018-07-22T08:16:18Z</time>
      </trkpt>
      <trkpt lat="42.64189" lon="1.69864">
        <ele>1755.99</ele>
        <time>2018-07-22T08:16:25Z</time>
      </trkpt>
      <trkpt lat="42.64189" lon="1.69865">
        <ele>1755.99</ele>
        <time>2018-07-22T08:16:33Z</time>
      </trkpt>
      <trkpt lat="42.64186" lon="1.69865">
        <ele>1756.47</ele>
        <time>2018-07-22T08:16:48Z</time>
      </trkpt>
      <trkpt lat="42.64185" lon="1.69869">
        <ele>1754.54</ele>
        <time>2018-07-22T08:17:01Z</time>
      </trkpt>
      <trkpt lat="42.64185" lon="1.69873">
        <ele>1754.54</ele>
        <time>2018-07-22T08:17:18Z</time>
      </trkpt>
      <trkpt lat="42.64185" lon="1.69873">
        <ele>1754.06</ele>
        <time>2018-07-22T08:17:40Z</time>
      </trkpt>
      <trkpt lat="42.64184" lon="1.69865">
        <ele>1755.5</ele>
        <time>2018-07-22T08:17:59Z</time>
      </trkpt>
      <trkpt lat="42.64184" lon="1.69861">
        <ele>1756.47</ele>
        <time>2018-07-22T08:18:08Z</time>
      </trkpt>
      <trkpt lat="42.64183" lon="1.69859">
        <ele>1757.43</ele>
        <time>2018-07-22T08:18:18Z</time>
      </trkpt>
      <trkpt lat="42.64182" lon="1.69855">
        <ele>1757.91</ele>
        <time>2018-07-22T08:18:26Z</time>
      </trkpt>
      <trkpt lat="42.64179" lon="1.69852">
        <ele>1759.35</ele>
        <time>2018-07-22T08:18:34Z</time>
      </trkpt>
      <trkpt lat="42.64174" lon="1.69848">
        <ele>1761.27</ele>
        <time>2018-07-22T08:18:41Z</time>
      </trkpt>
      <trkpt lat="42.64171" lon="1.69845">
        <ele>1761.75</ele>
        <time>2018-07-22T08:18:49Z</time>
      </trkpt>
      <trkpt lat="42.64167" lon="1.69841">
        <ele>1762.71</ele>
        <time>2018-07-22T08:18:56Z</time>
      </trkpt>
      <trkpt lat="42.64163" lon="1.69837">
        <ele>1763.68</ele>
        <time>2018-07-22T08:19:03Z</time>
      </trkpt>
      <trkpt lat="42.6416" lon="1.69833">
        <ele>1764.64</ele>
        <time>2018-07-22T08:19:10Z</time>
      </trkpt>
      <trkpt lat="42.64156" lon="1.69828">
        <ele>1766.08</ele>
        <time>2018-07-22T08:19:18Z</time>
      </trkpt>
      <trkpt lat="42.64153" lon="1.69823">
        <ele>1766.56</ele>
        <time>2018-07-22T08:19:25Z</time>
      </trkpt>
      <trkpt lat="42.64147" lon="1.69818">
        <ele>1768.48</ele>
        <time>2018-07-22T08:19:33Z</time>
      </trkpt>
      <trkpt lat="42.6414" lon="1.69815">
        <ele>1768.96</ele>
        <time>2018-07-22T08:19:40Z</time>
      </trkpt>
      <trkpt lat="42.64135" lon="1.69811">
        <ele>1769.44</ele>
        <time>2018-07-22T08:19:47Z</time>
      </trkpt>
      <trkpt lat="42.64129" lon="1.69805">
        <ele>1770.41</ele>
        <time>2018-07-22T08:19:56Z</time>
      </trkpt>
      <trkpt lat="42.64128" lon="1.69802">
        <ele>1770.89</ele>
        <time>2018-07-22T08:20:02Z</time>
      </trkpt>
      <trkpt lat="42.64124" lon="1.69797">
        <ele>1772.33</ele>
        <time>2018-07-22T08:20:10Z</time>
      </trkpt>
      <trkpt lat="42.64118" lon="1.69793">
        <ele>1773.29</ele>
        <time>2018-07-22T08:20:19Z</time>
      </trkpt>
      <trkpt lat="42.64115" lon="1.69788">
        <ele>1774.25</ele>
        <time>2018-07-22T08:20:27Z</time>
      </trkpt>
      <trkpt lat="42.64108" lon="1.69783">
        <ele>1775.69</ele>
        <time>2018-07-22T08:20:35Z</time>
      </trkpt>
      <trkpt lat="42.64104" lon="1.69779">
        <ele>1776.17</ele>
        <time>2018-07-22T08:20:42Z</time>
      </trkpt>
      <trkpt lat="42.64101" lon="1.69775">
        <ele>1777.13</ele>
        <time>2018-07-22T08:20:49Z</time>
      </trkpt>
      <trkpt lat="42.64097" lon="1.6977">
        <ele>1777.61</ele>
        <time>2018-07-22T08:20:56Z</time>
      </trkpt>
      <trkpt lat="42.64096" lon="1.69765">
        <ele>1779.54</ele>
        <time>2018-07-22T08:21:03Z</time>
      </trkpt>
      <trkpt lat="42.64094" lon="1.69762">
        <ele>1780.02</ele>
        <time>2018-07-22T08:21:12Z</time>
      </trkpt>
      <trkpt lat="42.64092" lon="1.69756">
        <ele>1781.46</ele>
        <time>2018-07-22T08:21:19Z</time>
      </trkpt>
      <trkpt lat="42.64089" lon="1.6975">
        <ele>1784.82</ele>
        <time>2018-07-22T08:21:27Z</time>
      </trkpt>
      <trkpt lat="42.64087" lon="1.69744">
        <ele>1786.27</ele>
        <time>2018-07-22T08:21:35Z</time>
      </trkpt>
      <trkpt lat="42.64084" lon="1.69738">
        <ele>1788.19</ele>
        <time>2018-07-22T08:21:42Z</time>
      </trkpt>
      <trkpt lat="42.64081" lon="1.69732">
        <ele>1789.63</ele>
        <time>2018-07-22T08:21:50Z</time>
      </trkpt>
      <trkpt lat="42.64079" lon="1.69728">
        <ele>1790.59</ele>
        <time>2018-07-22T08:21:56Z</time>
      </trkpt>
      <trkpt lat="42.64076" lon="1.69724">
        <ele>1791.07</ele>
        <time>2018-07-22T08:22:03Z</time>
      </trkpt>
      <trkpt lat="42.64073" lon="1.69719">
        <ele>1792.52</ele>
        <time>2018-07-22T08:22:10Z</time>
      </trkpt>
      <trkpt lat="42.64073" lon="1.69718">
        <ele>1792.52</ele>
        <time>2018-07-22T08:22:18Z</time>
      </trkpt>
      <trkpt lat="42.64071" lon="1.69715">
        <ele>1789.15</ele>
        <time>2018-07-22T08:22:29Z</time>
      </trkpt>
      <trkpt lat="42.64067" lon="1.69715">
        <ele>1789.63</ele>
        <time>2018-07-22T08:22:43Z</time>
      </trkpt>
      <trkpt lat="42.6407" lon="1.69714">
        <ele>1789.63</ele>
        <time>2018-07-22T08:22:56Z</time>
      </trkpt>
      <trkpt lat="42.64067" lon="1.69717">
        <ele>1788.19</ele>
        <time>2018-07-22T08:23:18Z</time>
      </trkpt>
      <trkpt lat="42.64069" lon="1.69717">
        <ele>1790.11</ele>
        <time>2018-07-22T08:23:40Z</time>
      </trkpt>
      <trkpt lat="42.6407" lon="1.69715">
        <ele>1790.11</ele>
        <time>2018-07-22T08:23:56Z</time>
      </trkpt>
      <trkpt lat="42.6407" lon="1.69713">
        <ele>1788.19</ele>
        <time>2018-07-22T08:24:14Z</time>
      </trkpt>
      <trkpt lat="42.6407" lon="1.69709">
        <ele>1788.19</ele>
        <time>2018-07-22T08:24:32Z</time>
      </trkpt>
      <trkpt lat="42.6407" lon="1.69715">
        <ele>1789.63</ele>
        <time>2018-07-22T08:24:43Z</time>
      </trkpt>
      <trkpt lat="42.64066" lon="1.69708">
        <ele>1793</ele>
        <time>2018-07-22T08:24:52Z</time>
      </trkpt>
      <trkpt lat="42.64065" lon="1.69703">
        <ele>1794.92</ele>
        <time>2018-07-22T08:24:59Z</time>
      </trkpt>
      <trkpt lat="42.64062" lon="1.69696">
        <ele>1797.32</ele>
        <time>2018-07-22T08:25:08Z</time>
      </trkpt>
      <trkpt lat="42.64061" lon="1.69691">
        <ele>1798.28</ele>
        <time>2018-07-22T08:25:15Z</time>
      </trkpt>
      <trkpt lat="42.64058" lon="1.69684">
        <ele>1801.17</ele>
        <time>2018-07-22T08:25:24Z</time>
      </trkpt>
      <trkpt lat="42.64054" lon="1.69677">
        <ele>1801.65</ele>
        <time>2018-07-22T08:25:33Z</time>
      </trkpt>
      <trkpt lat="42.64053" lon="1.69671">
        <ele>1802.13</ele>
        <time>2018-07-22T08:25:41Z</time>
      </trkpt>
      <trkpt lat="42.6405" lon="1.69666">
        <ele>1803.09</ele>
        <time>2018-07-22T08:25:48Z</time>
      </trkpt>
      <trkpt lat="42.64049" lon="1.6966">
        <ele>1802.61</ele>
        <time>2018-07-22T08:25:55Z</time>
      </trkpt>
      <trkpt lat="42.64044" lon="1.6965">
        <ele>1805.49</ele>
        <time>2018-07-22T08:26:05Z</time>
      </trkpt>
      <trkpt lat="42.64042" lon="1.69643">
        <ele>1807.42</ele>
        <time>2018-07-22T08:26:12Z</time>
      </trkpt>
      <trkpt lat="42.64041" lon="1.69635">
        <ele>1809.34</ele>
        <time>2018-07-22T08:26:21Z</time>
      </trkpt>
      <trkpt lat="42.6404" lon="1.69632">
        <ele>1809.82</ele>
        <time>2018-07-22T08:26:27Z</time>
      </trkpt>
      <trkpt lat="42.64036" lon="1.69622">
        <ele>1811.26</ele>
        <time>2018-07-22T08:26:36Z</time>
      </trkpt>
      <trkpt lat="42.64033" lon="1.69614">
        <ele>1809.82</ele>
        <time>2018-07-22T08:26:44Z</time>
      </trkpt>
      <trkpt lat="42.64028" lon="1.69609">
        <ele>1809.34</ele>
        <time>2018-07-22T08:26:52Z</time>
      </trkpt>
      <trkpt lat="42.64025" lon="1.69602">
        <ele>1810.78</ele>
        <time>2018-07-22T08:27:00Z</time>
      </trkpt>
      <trkpt lat="42.6402" lon="1.69598">
        <ele>1811.26</ele>
        <time>2018-07-22T08:27:08Z</time>
      </trkpt>
      <trkpt lat="42.64021" lon="1.69595">
        <ele>1811.26</ele>
        <time>2018-07-22T08:27:14Z</time>
      </trkpt>
      <trkpt lat="42.6402" lon="1.69591">
        <ele>1811.74</ele>
        <time>2018-07-22T08:27:19Z</time>
      </trkpt>
      <trkpt lat="42.64016" lon="1.69584">
        <ele>1811.26</ele>
        <time>2018-07-22T08:27:27Z</time>
      </trkpt>
      <trkpt lat="42.64014" lon="1.69579">
        <ele>1812.7</ele>
        <time>2018-07-22T08:27:33Z</time>
      </trkpt>
      <trkpt lat="42.64014" lon="1.69573">
        <ele>1814.15</ele>
        <time>2018-07-22T08:27:40Z</time>
      </trkpt>
      <trkpt lat="42.64013" lon="1.69567">
        <ele>1816.55</ele>
        <time>2018-07-22T08:27:48Z</time>
      </trkpt>
      <trkpt lat="42.64012" lon="1.69568">
        <ele>1817.51</ele>
        <time>2018-07-22T08:27:55Z</time>
      </trkpt>
      <trkpt lat="42.64013" lon="1.69568">
        <ele>1819.43</ele>
        <time>2018-07-22T08:28:11Z</time>
      </trkpt>
      <trkpt lat="42.64016" lon="1.69566">
        <ele>1819.91</ele>
        <time>2018-07-22T08:28:28Z</time>
      </trkpt>
      <trkpt lat="42.64013" lon="1.69566">
        <ele>1818.95</ele>
        <time>2018-07-22T08:28:40Z</time>
      </trkpt>
      <trkpt lat="42.64009" lon="1.69562">
        <ele>1817.99</ele>
        <time>2018-07-22T08:28:49Z</time>
      </trkpt>
      <trkpt lat="42.64007" lon="1.69559">
        <ele>1817.99</ele>
        <time>2018-07-22T08:28:52Z</time>
      </trkpt>
      <trkpt lat="42.64005" lon="1.69557">
        <ele>1818.95</ele>
        <time>2018-07-22T08:28:55Z</time>
      </trkpt>
      <trkpt lat="42.64001" lon="1.6955">
        <ele>1819.91</ele>
        <time>2018-07-22T08:29:04Z</time>
      </trkpt>
      <trkpt lat="42.64002" lon="1.69543">
        <ele>1821.35</ele>
        <time>2018-07-22T08:29:11Z</time>
      </trkpt>
      <trkpt lat="42.63998" lon="1.69536">
        <ele>1822.8</ele>
        <time>2018-07-22T08:29:19Z</time>
      </trkpt>
      <trkpt lat="42.63997" lon="1.69529">
        <ele>1822.32</ele>
        <time>2018-07-22T08:29:26Z</time>
      </trkpt>
      <trkpt lat="42.63997" lon="1.69524">
        <ele>1823.76</ele>
        <time>2018-07-22T08:29:33Z</time>
      </trkpt>
      <trkpt lat="42.63995" lon="1.6952">
        <ele>1824.24</ele>
        <time>2018-07-22T08:29:39Z</time>
      </trkpt>
      <trkpt lat="42.63996" lon="1.69513">
        <ele>1826.64</ele>
        <time>2018-07-22T08:29:46Z</time>
      </trkpt>
      <trkpt lat="42.63992" lon="1.69509">
        <ele>1827.6</ele>
        <time>2018-07-22T08:29:52Z</time>
      </trkpt>
      <trkpt lat="42.6399" lon="1.69504">
        <ele>1825.68</ele>
        <time>2018-07-22T08:30:04Z</time>
      </trkpt>
      <trkpt lat="42.6399" lon="1.69504">
        <ele>1823.28</ele>
        <time>2018-07-22T08:30:16Z</time>
      </trkpt>
      <trkpt lat="42.63994" lon="1.69501">
        <ele>1823.76</ele>
        <time>2018-07-22T08:30:29Z</time>
      </trkpt>
      <trkpt lat="42.6399" lon="1.69501">
        <ele>1824.24</ele>
        <time>2018-07-22T08:30:38Z</time>
      </trkpt>
      <trkpt lat="42.63988" lon="1.69498">
        <ele>1824.72</ele>
        <time>2018-07-22T08:30:45Z</time>
      </trkpt>
      <trkpt lat="42.63984" lon="1.69497">
        <ele>1824.24</ele>
        <time>2018-07-22T08:30:52Z</time>
      </trkpt>
      <trkpt lat="42.63982" lon="1.69495">
        <ele>1824.24</ele>
        <time>2018-07-22T08:30:57Z</time>
      </trkpt>
      <trkpt lat="42.63977" lon="1.6949">
        <ele>1824.72</ele>
        <time>2018-07-22T08:31:04Z</time>
      </trkpt>
      <trkpt lat="42.63972" lon="1.69486">
        <ele>1825.2</ele>
        <time>2018-07-22T08:31:13Z</time>
      </trkpt>
      <trkpt lat="42.63967" lon="1.6948">
        <ele>1826.16</ele>
        <time>2018-07-22T08:31:21Z</time>
      </trkpt>
      <trkpt lat="42.63962" lon="1.69473">
        <ele>1826.64</ele>
        <time>2018-07-22T08:31:31Z</time>
      </trkpt>
      <trkpt lat="42.63956" lon="1.69465">
        <ele>1828.56</ele>
        <time>2018-07-22T08:31:41Z</time>
      </trkpt>
      <trkpt lat="42.63952" lon="1.69458">
        <ele>1830.49</ele>
        <time>2018-07-22T08:31:49Z</time>
      </trkpt>
      <trkpt lat="42.63948" lon="1.69451">
        <ele>1831.45</ele>
        <time>2018-07-22T08:31:57Z</time>
      </trkpt>
      <trkpt lat="42.63943" lon="1.6944">
        <ele>1833.37</ele>
        <time>2018-07-22T08:32:07Z</time>
      </trkpt>
      <trkpt lat="42.63942" lon="1.69435">
        <ele>1834.33</ele>
        <time>2018-07-22T08:32:14Z</time>
      </trkpt>
      <trkpt lat="42.63939" lon="1.69427">
        <ele>1835.29</ele>
        <time>2018-07-22T08:32:22Z</time>
      </trkpt>
      <trkpt lat="42.63939" lon="1.6942">
        <ele>1837.7</ele>
        <time>2018-07-22T08:32:30Z</time>
      </trkpt>
      <trkpt lat="42.63937" lon="1.69412">
        <ele>1838.66</ele>
        <time>2018-07-22T08:32:37Z</time>
      </trkpt>
      <trkpt lat="42.63934" lon="1.69408">
        <ele>1839.62</ele>
        <time>2018-07-22T08:32:44Z</time>
      </trkpt>
      <trkpt lat="42.63933" lon="1.69404">
        <ele>1840.1</ele>
        <time>2018-07-22T08:32:48Z</time>
      </trkpt>
      <trkpt lat="42.63932" lon="1.69402">
        <ele>1841.54</ele>
        <time>2018-07-22T08:32:56Z</time>
      </trkpt>
      <trkpt lat="42.63931" lon="1.694">
        <ele>1841.54</ele>
        <time>2018-07-22T08:33:08Z</time>
      </trkpt>
      <trkpt lat="42.6393" lon="1.69394">
        <ele>1842.98</ele>
        <time>2018-07-22T08:33:16Z</time>
      </trkpt>
      <trkpt lat="42.63927" lon="1.69395">
        <ele>1843.95</ele>
        <time>2018-07-22T08:33:26Z</time>
      </trkpt>
      <trkpt lat="42.63925" lon="1.69394">
        <ele>1843.47</ele>
        <time>2018-07-22T08:33:35Z</time>
      </trkpt>
      <trkpt lat="42.63927" lon="1.69386">
        <ele>1842.02</ele>
        <time>2018-07-22T08:33:42Z</time>
      </trkpt>
      <trkpt lat="42.63921" lon="1.69373">
        <ele>1841.54</ele>
        <time>2018-07-22T08:33:52Z</time>
      </trkpt>
      <trkpt lat="42.63916" lon="1.69364">
        <ele>1841.54</ele>
        <time>2018-07-22T08:34:01Z</time>
      </trkpt>
      <trkpt lat="42.63912" lon="1.69355">
        <ele>1842.98</ele>
        <time>2018-07-22T08:34:10Z</time>
      </trkpt>
      <trkpt lat="42.63912" lon="1.69353">
        <ele>1842.98</ele>
        <time>2018-07-22T08:34:12Z</time>
      </trkpt>
      <trkpt lat="42.63912" lon="1.69342">
        <ele>1844.43</ele>
        <time>2018-07-22T08:34:22Z</time>
      </trkpt>
      <trkpt lat="42.63911" lon="1.69337">
        <ele>1844.91</ele>
        <time>2018-07-22T08:34:26Z</time>
      </trkpt>
      <trkpt lat="42.63908" lon="1.69329">
        <ele>1846.35</ele>
        <time>2018-07-22T08:34:34Z</time>
      </trkpt>
      <trkpt lat="42.63904" lon="1.69321">
        <ele>1847.31</ele>
        <time>2018-07-22T08:34:42Z</time>
      </trkpt>
      <trkpt lat="42.63903" lon="1.69313">
        <ele>1848.27</ele>
        <time>2018-07-22T08:34:50Z</time>
      </trkpt>
      <trkpt lat="42.639" lon="1.69305">
        <ele>1848.27</ele>
        <time>2018-07-22T08:34:58Z</time>
      </trkpt>
      <trkpt lat="42.63895" lon="1.69297">
        <ele>1847.79</ele>
        <time>2018-07-22T08:35:05Z</time>
      </trkpt>
      <trkpt lat="42.6389" lon="1.69289">
        <ele>1848.27</ele>
        <time>2018-07-22T08:35:13Z</time>
      </trkpt>
      <trkpt lat="42.63888" lon="1.69282">
        <ele>1849.23</ele>
        <time>2018-07-22T08:35:21Z</time>
      </trkpt>
      <trkpt lat="42.63883" lon="1.69273">
        <ele>1849.23</ele>
        <time>2018-07-22T08:35:30Z</time>
      </trkpt>
      <trkpt lat="42.6388" lon="1.69268">
        <ele>1849.23</ele>
        <time>2018-07-22T08:35:34Z</time>
      </trkpt>
      <trkpt lat="42.63877" lon="1.69259">
        <ele>1850.19</ele>
        <time>2018-07-22T08:35:42Z</time>
      </trkpt>
      <trkpt lat="42.63874" lon="1.6925">
        <ele>1850.68</ele>
        <time>2018-07-22T08:35:50Z</time>
      </trkpt>
      <trkpt lat="42.63873" lon="1.69249">
        <ele>1850.68</ele>
        <time>2018-07-22T08:35:51Z</time>
      </trkpt>
      <trkpt lat="42.63873" lon="1.69246">
        <ele>1851.16</ele>
        <time>2018-07-22T08:35:54Z</time>
      </trkpt>
      <trkpt lat="42.6387" lon="1.69237">
        <ele>1852.12</ele>
        <time>2018-07-22T08:36:02Z</time>
      </trkpt>
      <trkpt lat="42.63867" lon="1.6923">
        <ele>1852.6</ele>
        <time>2018-07-22T08:36:09Z</time>
      </trkpt>
      <trkpt lat="42.63867" lon="1.69229">
        <ele>1852.6</ele>
        <time>2018-07-22T08:36:10Z</time>
      </trkpt>
      <trkpt lat="42.63865" lon="1.69221">
        <ele>1853.56</ele>
        <time>2018-07-22T08:36:18Z</time>
      </trkpt>
      <trkpt lat="42.63863" lon="1.69213">
        <ele>1855.96</ele>
        <time>2018-07-22T08:36:26Z</time>
      </trkpt>
      <trkpt lat="42.63861" lon="1.69206">
        <ele>1857.4</ele>
        <time>2018-07-22T08:36:32Z</time>
      </trkpt>
      <trkpt lat="42.63856" lon="1.692">
        <ele>1858.37</ele>
        <time>2018-07-22T08:36:40Z</time>
      </trkpt>
      <trkpt lat="42.63852" lon="1.69194">
        <ele>1859.33</ele>
        <time>2018-07-22T08:36:48Z</time>
      </trkpt>
      <trkpt lat="42.63853" lon="1.69194">
        <ele>1859.33</ele>
        <time>2018-07-22T08:36:56Z</time>
      </trkpt>
      <trkpt lat="42.63851" lon="1.69192">
        <ele>1861.25</ele>
        <time>2018-07-22T08:37:06Z</time>
      </trkpt>
      <trkpt lat="42.63851" lon="1.69192">
        <ele>1859.81</ele>
        <time>2018-07-22T08:37:14Z</time>
      </trkpt>
      <trkpt lat="42.6385" lon="1.69188">
        <ele>1859.81</ele>
        <time>2018-07-22T08:37:20Z</time>
      </trkpt>
      <trkpt lat="42.63849" lon="1.69185">
        <ele>1859.81</ele>
        <time>2018-07-22T08:37:22Z</time>
      </trkpt>
      <trkpt lat="42.63845" lon="1.69177">
        <ele>1859.81</ele>
        <time>2018-07-22T08:37:31Z</time>
      </trkpt>
      <trkpt lat="42.63842" lon="1.6917">
        <ele>1859.33</ele>
        <time>2018-07-22T08:37:39Z</time>
      </trkpt>
      <trkpt lat="42.63841" lon="1.69162">
        <ele>1858.85</ele>
        <time>2018-07-22T08:37:47Z</time>
      </trkpt>
      <trkpt lat="42.63842" lon="1.69152">
        <ele>1858.85</ele>
        <time>2018-07-22T08:37:55Z</time>
      </trkpt>
      <trkpt lat="42.63845" lon="1.69144">
        <ele>1860.77</ele>
        <time>2018-07-22T08:38:05Z</time>
      </trkpt>
      <trkpt lat="42.63846" lon="1.69145">
        <ele>1862.21</ele>
        <time>2018-07-22T08:38:19Z</time>
      </trkpt>
      <trkpt lat="42.63847" lon="1.69141">
        <ele>1862.21</ele>
        <time>2018-07-22T08:38:28Z</time>
      </trkpt>
      <trkpt lat="42.63846" lon="1.69139">
        <ele>1863.17</ele>
        <time>2018-07-22T08:38:37Z</time>
      </trkpt>
      <trkpt lat="42.63846" lon="1.69132">
        <ele>1863.65</ele>
        <time>2018-07-22T08:38:44Z</time>
      </trkpt>
      <trkpt lat="42.63841" lon="1.69131">
        <ele>1864.13</ele>
        <time>2018-07-22T08:38:48Z</time>
      </trkpt>
      <trkpt lat="42.63838" lon="1.69129">
        <ele>1864.13</ele>
        <time>2018-07-22T08:38:51Z</time>
      </trkpt>
      <trkpt lat="42.63837" lon="1.69128">
        <ele>1864.13</ele>
        <time>2018-07-22T08:38:53Z</time>
      </trkpt>
      <trkpt lat="42.63831" lon="1.69125">
        <ele>1865.09</ele>
        <time>2018-07-22T08:39:01Z</time>
      </trkpt>
      <trkpt lat="42.63829" lon="1.69118">
        <ele>1865.09</ele>
        <time>2018-07-22T08:39:09Z</time>
      </trkpt>
      <trkpt lat="42.63823" lon="1.69112">
        <ele>1866.06</ele>
        <time>2018-07-22T08:39:17Z</time>
      </trkpt>
      <trkpt lat="42.63822" lon="1.69106">
        <ele>1865.58</ele>
        <time>2018-07-22T08:39:25Z</time>
      </trkpt>
      <trkpt lat="42.63819" lon="1.69104">
        <ele>1866.54</ele>
        <time>2018-07-22T08:39:32Z</time>
      </trkpt>
      <trkpt lat="42.63816" lon="1.69099">
        <ele>1867.02</ele>
        <time>2018-07-22T08:39:40Z</time>
      </trkpt>
      <trkpt lat="42.63817" lon="1.69097">
        <ele>1867.02</ele>
        <time>2018-07-22T08:39:43Z</time>
      </trkpt>
      <trkpt lat="42.63814" lon="1.69092">
        <ele>1867.98</ele>
        <time>2018-07-22T08:39:51Z</time>
      </trkpt>
      <trkpt lat="42.63813" lon="1.69091">
        <ele>1867.98</ele>
        <time>2018-07-22T08:39:52Z</time>
      </trkpt>
      <trkpt lat="42.63806" lon="1.69089">
        <ele>1868.46</ele>
        <time>2018-07-22T08:40:00Z</time>
      </trkpt>
      <trkpt lat="42.63801" lon="1.69091">
        <ele>1868.94</ele>
        <time>2018-07-22T08:40:07Z</time>
      </trkpt>
      <trkpt lat="42.63796" lon="1.69095">
        <ele>1868.94</ele>
        <time>2018-07-22T08:40:14Z</time>
      </trkpt>
      <trkpt lat="42.63793" lon="1.69093">
        <ele>1868.46</ele>
        <time>2018-07-22T08:40:18Z</time>
      </trkpt>
      <trkpt lat="42.63791" lon="1.69088">
        <ele>1868.94</ele>
        <time>2018-07-22T08:40:23Z</time>
      </trkpt>
      <trkpt lat="42.63789" lon="1.69086">
        <ele>1869.42</ele>
        <time>2018-07-22T08:40:25Z</time>
      </trkpt>
      <trkpt lat="42.63782" lon="1.69082">
        <ele>1870.38</ele>
        <time>2018-07-22T08:40:33Z</time>
      </trkpt>
      <trkpt lat="42.63781" lon="1.69082">
        <ele>1871.34</ele>
        <time>2018-07-22T08:40:40Z</time>
      </trkpt>
      <trkpt lat="42.63779" lon="1.6908">
        <ele>1869.9</ele>
        <time>2018-07-22T08:40:50Z</time>
      </trkpt>
      <trkpt lat="42.63778" lon="1.69079">
        <ele>1869.9</ele>
        <time>2018-07-22T08:41:00Z</time>
      </trkpt>
      <trkpt lat="42.63778" lon="1.69077">
        <ele>1870.38</ele>
        <time>2018-07-22T08:41:19Z</time>
      </trkpt>
      <trkpt lat="42.63775" lon="1.69075">
        <ele>1868.94</ele>
        <time>2018-07-22T08:41:26Z</time>
      </trkpt>
      <trkpt lat="42.63776" lon="1.69075">
        <ele>1869.9</ele>
        <time>2018-07-22T08:41:36Z</time>
      </trkpt>
      <trkpt lat="42.63779" lon="1.69072">
        <ele>1868.94</ele>
        <time>2018-07-22T08:41:43Z</time>
      </trkpt>
      <trkpt lat="42.63782" lon="1.69072">
        <ele>1868.94</ele>
        <time>2018-07-22T08:41:48Z</time>
      </trkpt>
      <trkpt lat="42.63786" lon="1.69064">
        <ele>1870.38</ele>
        <time>2018-07-22T08:41:56Z</time>
      </trkpt>
      <trkpt lat="42.63785" lon="1.69055">
        <ele>1870.86</ele>
        <time>2018-07-22T08:42:04Z</time>
      </trkpt>
      <trkpt lat="42.63782" lon="1.69047">
        <ele>1871.34</ele>
        <time>2018-07-22T08:42:12Z</time>
      </trkpt>
      <trkpt lat="42.6378" lon="1.69045">
        <ele>1871.82</ele>
        <time>2018-07-22T08:42:14Z</time>
      </trkpt>
      <trkpt lat="42.63779" lon="1.69038">
        <ele>1872.3</ele>
        <time>2018-07-22T08:42:21Z</time>
      </trkpt>
      <trkpt lat="42.63779" lon="1.69035">
        <ele>1872.3</ele>
        <time>2018-07-22T08:42:23Z</time>
      </trkpt>
      <trkpt lat="42.63777" lon="1.69031">
        <ele>1872.3</ele>
        <time>2018-07-22T08:42:26Z</time>
      </trkpt>
      <trkpt lat="42.63777" lon="1.69019">
        <ele>1873.27</ele>
        <time>2018-07-22T08:42:36Z</time>
      </trkpt>
      <trkpt lat="42.63777" lon="1.69012">
        <ele>1874.23</ele>
        <time>2018-07-22T08:42:44Z</time>
      </trkpt>
      <trkpt lat="42.63776" lon="1.6901">
        <ele>1871.82</ele>
        <time>2018-07-22T08:42:52Z</time>
      </trkpt>
      <trkpt lat="42.63776" lon="1.69011">
        <ele>1872.3</ele>
        <time>2018-07-22T08:43:03Z</time>
      </trkpt>
      <trkpt lat="42.63776" lon="1.69011">
        <ele>1873.75</ele>
        <time>2018-07-22T08:43:09Z</time>
      </trkpt>
      <trkpt lat="42.63777" lon="1.69011">
        <ele>1872.79</ele>
        <time>2018-07-22T08:43:20Z</time>
      </trkpt>
      <trkpt lat="42.63781" lon="1.69007">
        <ele>1874.23</ele>
        <time>2018-07-22T08:43:43Z</time>
      </trkpt>
      <trkpt lat="42.63778" lon="1.69004">
        <ele>1873.75</ele>
        <time>2018-07-22T08:43:55Z</time>
      </trkpt>
      <trkpt lat="42.63777" lon="1.68996">
        <ele>1875.67</ele>
        <time>2018-07-22T08:44:02Z</time>
      </trkpt>
      <trkpt lat="42.63778" lon="1.68986">
        <ele>1877.11</ele>
        <time>2018-07-22T08:44:10Z</time>
      </trkpt>
      <trkpt lat="42.63778" lon="1.68977">
        <ele>1877.59</ele>
        <time>2018-07-22T08:44:18Z</time>
      </trkpt>
      <trkpt lat="42.6378" lon="1.68973">
        <ele>1878.55</ele>
        <time>2018-07-22T08:44:25Z</time>
      </trkpt>
      <trkpt lat="42.63782" lon="1.68968">
        <ele>1879.03</ele>
        <time>2018-07-22T08:44:32Z</time>
      </trkpt>
      <trkpt lat="42.63782" lon="1.68965">
        <ele>1880.48</ele>
        <time>2018-07-22T08:44:47Z</time>
      </trkpt>
      <trkpt lat="42.63781" lon="1.68965">
        <ele>1881.92</ele>
        <time>2018-07-22T08:45:01Z</time>
      </trkpt>
      <trkpt lat="42.63783" lon="1.68964">
        <ele>1880.48</ele>
        <time>2018-07-22T08:45:09Z</time>
      </trkpt>
      <trkpt lat="42.63785" lon="1.6896">
        <ele>1880.48</ele>
        <time>2018-07-22T08:45:17Z</time>
      </trkpt>
      <trkpt lat="42.63787" lon="1.68961">
        <ele>1878.55</ele>
        <time>2018-07-22T08:45:37Z</time>
      </trkpt>
      <trkpt lat="42.63787" lon="1.68956">
        <ele>1878.55</ele>
        <time>2018-07-22T08:45:46Z</time>
      </trkpt>
      <trkpt lat="42.63788" lon="1.68954">
        <ele>1881.44</ele>
        <time>2018-07-22T08:45:59Z</time>
      </trkpt>
      <trkpt lat="42.63787" lon="1.68953">
        <ele>1883.84</ele>
        <time>2018-07-22T08:46:16Z</time>
      </trkpt>
      <trkpt lat="42.63788" lon="1.68954">
        <ele>1882.4</ele>
        <time>2018-07-22T08:46:33Z</time>
      </trkpt>
      <trkpt lat="42.63788" lon="1.68954">
        <ele>1880.96</ele>
        <time>2018-07-22T08:46:36Z</time>
      </trkpt>
      <trkpt lat="42.63791" lon="1.68949">
        <ele>1880</ele>
        <time>2018-07-22T08:46:42Z</time>
      </trkpt>
      <trkpt lat="42.63794" lon="1.68944">
        <ele>1880.48</ele>
        <time>2018-07-22T08:46:49Z</time>
      </trkpt>
      <trkpt lat="42.63797" lon="1.68937">
        <ele>1880.96</ele>
        <time>2018-07-22T08:46:54Z</time>
      </trkpt>
      <trkpt lat="42.63803" lon="1.68931">
        <ele>1882.4</ele>
        <time>2018-07-22T08:47:02Z</time>
      </trkpt>
      <trkpt lat="42.63809" lon="1.68926">
        <ele>1882.88</ele>
        <time>2018-07-22T08:47:10Z</time>
      </trkpt>
      <trkpt lat="42.63814" lon="1.68919">
        <ele>1884.32</ele>
        <time>2018-07-22T08:47:18Z</time>
      </trkpt>
      <trkpt lat="42.63813" lon="1.68917">
        <ele>1885.28</ele>
        <time>2018-07-22T08:47:31Z</time>
      </trkpt>
      <trkpt lat="42.63814" lon="1.68918">
        <ele>1887.69</ele>
        <time>2018-07-22T08:47:47Z</time>
      </trkpt>
      <trkpt lat="42.63817" lon="1.68913">
        <ele>1887.21</ele>
        <time>2018-07-22T08:48:04Z</time>
      </trkpt>
      <trkpt lat="42.63817" lon="1.68916">
        <ele>1887.69</ele>
        <time>2018-07-22T08:48:23Z</time>
      </trkpt>
      <trkpt lat="42.63817" lon="1.68913">
        <ele>1883.84</ele>
        <time>2018-07-22T08:48:40Z</time>
      </trkpt>
      <trkpt lat="42.63817" lon="1.68914">
        <ele>1883.84</ele>
        <time>2018-07-22T08:48:54Z</time>
      </trkpt>
      <trkpt lat="42.63816" lon="1.68911">
        <ele>1886.24</ele>
        <time>2018-07-22T08:49:08Z</time>
      </trkpt>
      <trkpt lat="42.63814" lon="1.68911">
        <ele>1886.72</ele>
        <time>2018-07-22T08:49:34Z</time>
      </trkpt>
      <trkpt lat="42.63816" lon="1.68914">
        <ele>1885.76</ele>
        <time>2018-07-22T08:49:41Z</time>
      </trkpt>
      <trkpt lat="42.63816" lon="1.68908">
        <ele>1886.72</ele>
        <time>2018-07-22T08:49:46Z</time>
      </trkpt>
      <trkpt lat="42.63814" lon="1.68903">
        <ele>1887.21</ele>
        <time>2018-07-22T08:49:55Z</time>
      </trkpt>
      <trkpt lat="42.63815" lon="1.689">
        <ele>1886.24</ele>
        <time>2018-07-22T08:50:12Z</time>
      </trkpt>
      <trkpt lat="42.63814" lon="1.68898">
        <ele>1887.21</ele>
        <time>2018-07-22T08:50:32Z</time>
      </trkpt>
      <trkpt lat="42.63813" lon="1.68895">
        <ele>1886.24</ele>
        <time>2018-07-22T08:50:40Z</time>
      </trkpt>
      <trkpt lat="42.63812" lon="1.68891">
        <ele>1887.21</ele>
        <time>2018-07-22T08:50:50Z</time>
      </trkpt>
      <trkpt lat="42.63813" lon="1.68891">
        <ele>1888.17</ele>
        <time>2018-07-22T08:51:03Z</time>
      </trkpt>
      <trkpt lat="42.63812" lon="1.68892">
        <ele>1887.69</ele>
        <time>2018-07-22T08:51:09Z</time>
      </trkpt>
      <trkpt lat="42.63811" lon="1.68891">
        <ele>1886.72</ele>
        <time>2018-07-22T08:51:22Z</time>
      </trkpt>
      <trkpt lat="42.6381" lon="1.6889">
        <ele>1886.72</ele>
        <time>2018-07-22T08:51:29Z</time>
      </trkpt>
      <trkpt lat="42.63808" lon="1.68886">
        <ele>1886.24</ele>
        <time>2018-07-22T08:51:40Z</time>
      </trkpt>
      <trkpt lat="42.63808" lon="1.68885">
        <ele>1886.24</ele>
        <time>2018-07-22T08:51:42Z</time>
      </trkpt>
      <trkpt lat="42.63804" lon="1.68878">
        <ele>1886.72</ele>
        <time>2018-07-22T08:51:50Z</time>
      </trkpt>
      <trkpt lat="42.63801" lon="1.68873">
        <ele>1888.17</ele>
        <time>2018-07-22T08:51:57Z</time>
      </trkpt>
      <trkpt lat="42.638" lon="1.68871">
        <ele>1889.13</ele>
        <time>2018-07-22T08:52:05Z</time>
      </trkpt>
      <trkpt lat="42.63798" lon="1.68866">
        <ele>1889.61</ele>
        <time>2018-07-22T08:52:13Z</time>
      </trkpt>
      <trkpt lat="42.63794" lon="1.68862">
        <ele>1889.61</ele>
        <time>2018-07-22T08:52:21Z</time>
      </trkpt>
      <trkpt lat="42.63793" lon="1.68859">
        <ele>1890.09</ele>
        <time>2018-07-22T08:52:34Z</time>
      </trkpt>
      <trkpt lat="42.63788" lon="1.68851">
        <ele>1890.57</ele>
        <time>2018-07-22T08:52:42Z</time>
      </trkpt>
      <trkpt lat="42.63787" lon="1.68847">
        <ele>1890.09</ele>
        <time>2018-07-22T08:52:45Z</time>
      </trkpt>
      <trkpt lat="42.63784" lon="1.68844">
        <ele>1890.09</ele>
        <time>2018-07-22T08:52:49Z</time>
      </trkpt>
      <trkpt lat="42.63781" lon="1.68831">
        <ele>1890.09</ele>
        <time>2018-07-22T08:52:58Z</time>
      </trkpt>
      <trkpt lat="42.63778" lon="1.68822">
        <ele>1890.57</ele>
        <time>2018-07-22T08:53:07Z</time>
      </trkpt>
      <trkpt lat="42.63777" lon="1.6882">
        <ele>1891.05</ele>
        <time>2018-07-22T08:53:09Z</time>
      </trkpt>
      <trkpt lat="42.63774" lon="1.68811">
        <ele>1892.49</ele>
        <time>2018-07-22T08:53:18Z</time>
      </trkpt>
      <trkpt lat="42.63774" lon="1.68807">
        <ele>1893.45</ele>
        <time>2018-07-22T08:53:24Z</time>
      </trkpt>
      <trkpt lat="42.63773" lon="1.68798">
        <ele>1895.38</ele>
        <time>2018-07-22T08:53:32Z</time>
      </trkpt>
      <trkpt lat="42.6377" lon="1.68789">
        <ele>1895.86</ele>
        <time>2018-07-22T08:53:40Z</time>
      </trkpt>
      <trkpt lat="42.63768" lon="1.6878">
        <ele>1896.82</ele>
        <time>2018-07-22T08:53:48Z</time>
      </trkpt>
      <trkpt lat="42.63768" lon="1.68779">
        <ele>1897.3</ele>
        <time>2018-07-22T08:53:49Z</time>
      </trkpt>
      <trkpt lat="42.63765" lon="1.68768">
        <ele>1898.26</ele>
        <time>2018-07-22T08:53:58Z</time>
      </trkpt>
      <trkpt lat="42.63764" lon="1.68761">
        <ele>1898.74</ele>
        <time>2018-07-22T08:54:04Z</time>
      </trkpt>
      <trkpt lat="42.63763" lon="1.68751">
        <ele>1897.3</ele>
        <time>2018-07-22T08:54:13Z</time>
      </trkpt>
      <trkpt lat="42.63762" lon="1.68739">
        <ele>1898.26</ele>
        <time>2018-07-22T08:54:21Z</time>
      </trkpt>
      <trkpt lat="42.6376" lon="1.68729">
        <ele>1899.7</ele>
        <time>2018-07-22T08:54:29Z</time>
      </trkpt>
      <trkpt lat="42.63757" lon="1.68723">
        <ele>1899.7</ele>
        <time>2018-07-22T08:54:34Z</time>
      </trkpt>
      <trkpt lat="42.63755" lon="1.68717">
        <ele>1900.66</ele>
        <time>2018-07-22T08:54:39Z</time>
      </trkpt>
      <trkpt lat="42.6375" lon="1.68709">
        <ele>1900.18</ele>
        <time>2018-07-22T08:54:47Z</time>
      </trkpt>
      <trkpt lat="42.63747" lon="1.68702">
        <ele>1900.18</ele>
        <time>2018-07-22T08:54:54Z</time>
      </trkpt>
      <trkpt lat="42.63747" lon="1.68693">
        <ele>1901.14</ele>
        <time>2018-07-22T08:55:03Z</time>
      </trkpt>
      <trkpt lat="42.63745" lon="1.68684">
        <ele>1901.14</ele>
        <time>2018-07-22T08:55:10Z</time>
      </trkpt>
      <trkpt lat="42.63745" lon="1.68683">
        <ele>1901.14</ele>
        <time>2018-07-22T08:55:11Z</time>
      </trkpt>
      <trkpt lat="42.63746" lon="1.68672">
        <ele>1902.59</ele>
        <time>2018-07-22T08:55:20Z</time>
      </trkpt>
      <trkpt lat="42.63748" lon="1.68664">
        <ele>1903.07</ele>
        <time>2018-07-22T08:55:27Z</time>
      </trkpt>
      <trkpt lat="42.63747" lon="1.68661">
        <ele>1903.07</ele>
        <time>2018-07-22T08:55:29Z</time>
      </trkpt>
      <trkpt lat="42.63747" lon="1.68649">
        <ele>1903.07</ele>
        <time>2018-07-22T08:55:37Z</time>
      </trkpt>
      <trkpt lat="42.63746" lon="1.6864">
        <ele>1902.11</ele>
        <time>2018-07-22T08:55:44Z</time>
      </trkpt>
      <trkpt lat="42.63745" lon="1.68631">
        <ele>1902.59</ele>
        <time>2018-07-22T08:55:51Z</time>
      </trkpt>
      <trkpt lat="42.63746" lon="1.68625">
        <ele>1902.59</ele>
        <time>2018-07-22T08:55:57Z</time>
      </trkpt>
      <trkpt lat="42.63745" lon="1.68623">
        <ele>1903.07</ele>
        <time>2018-07-22T08:55:59Z</time>
      </trkpt>
      <trkpt lat="42.63744" lon="1.68614">
        <ele>1903.07</ele>
        <time>2018-07-22T08:56:07Z</time>
      </trkpt>
      <trkpt lat="42.63744" lon="1.68612">
        <ele>1902.11</ele>
        <time>2018-07-22T08:56:15Z</time>
      </trkpt>
      <trkpt lat="42.63743" lon="1.68605">
        <ele>1904.51</ele>
        <time>2018-07-22T08:56:23Z</time>
      </trkpt>
      <trkpt lat="42.63742" lon="1.68595">
        <ele>1907.39</ele>
        <time>2018-07-22T08:56:32Z</time>
      </trkpt>
      <trkpt lat="42.63741" lon="1.68592">
        <ele>1907.39</ele>
        <time>2018-07-22T08:56:35Z</time>
      </trkpt>
      <trkpt lat="42.63737" lon="1.6858">
        <ele>1907.87</ele>
        <time>2018-07-22T08:56:44Z</time>
      </trkpt>
      <trkpt lat="42.63735" lon="1.68572">
        <ele>1909.32</ele>
        <time>2018-07-22T08:56:51Z</time>
      </trkpt>
      <trkpt lat="42.63734" lon="1.68564">
        <ele>1909.8</ele>
        <time>2018-07-22T08:56:57Z</time>
      </trkpt>
      <trkpt lat="42.63736" lon="1.68557">
        <ele>1907.87</ele>
        <time>2018-07-22T08:57:05Z</time>
      </trkpt>
      <trkpt lat="42.63737" lon="1.68549">
        <ele>1907.87</ele>
        <time>2018-07-22T08:57:11Z</time>
      </trkpt>
      <trkpt lat="42.63735" lon="1.68537">
        <ele>1908.83</ele>
        <time>2018-07-22T08:57:20Z</time>
      </trkpt>
      <trkpt lat="42.63734" lon="1.68526">
        <ele>1910.28</ele>
        <time>2018-07-22T08:57:28Z</time>
      </trkpt>
      <trkpt lat="42.63733" lon="1.68517">
        <ele>1909.32</ele>
        <time>2018-07-22T08:57:36Z</time>
      </trkpt>
      <trkpt lat="42.63733" lon="1.68507">
        <ele>1909.8</ele>
        <time>2018-07-22T08:57:45Z</time>
      </trkpt>
      <trkpt lat="42.63734" lon="1.68497">
        <ele>1909.8</ele>
        <time>2018-07-22T08:57:52Z</time>
      </trkpt>
      <trkpt lat="42.63733" lon="1.68493">
        <ele>1909.32</ele>
        <time>2018-07-22T08:57:55Z</time>
      </trkpt>
      <trkpt lat="42.63731" lon="1.6848">
        <ele>1910.28</ele>
        <time>2018-07-22T08:58:04Z</time>
      </trkpt>
      <trkpt lat="42.6373" lon="1.68474">
        <ele>1909.8</ele>
        <time>2018-07-22T08:58:08Z</time>
      </trkpt>
      <trkpt lat="42.63725" lon="1.68466">
        <ele>1912.2</ele>
        <time>2018-07-22T08:58:16Z</time>
      </trkpt>
      <trkpt lat="42.63726" lon="1.68456">
        <ele>1914.12</ele>
        <time>2018-07-22T08:58:24Z</time>
      </trkpt>
      <trkpt lat="42.63726" lon="1.68452">
        <ele>1915.08</ele>
        <time>2018-07-22T08:58:28Z</time>
      </trkpt>
      <trkpt lat="42.63725" lon="1.68442">
        <ele>1917.01</ele>
        <time>2018-07-22T08:58:35Z</time>
      </trkpt>
      <trkpt lat="42.63724" lon="1.68434">
        <ele>1917.01</ele>
        <time>2018-07-22T08:58:44Z</time>
      </trkpt>
      <trkpt lat="42.63722" lon="1.68425">
        <ele>1917.49</ele>
        <time>2018-07-22T08:58:52Z</time>
      </trkpt>
      <trkpt lat="42.63722" lon="1.68417">
        <ele>1918.45</ele>
        <time>2018-07-22T08:59:00Z</time>
      </trkpt>
      <trkpt lat="42.63722" lon="1.6841">
        <ele>1919.41</ele>
        <time>2018-07-22T08:59:07Z</time>
      </trkpt>
      <trkpt lat="42.63721" lon="1.68402">
        <ele>1920.85</ele>
        <time>2018-07-22T08:59:15Z</time>
      </trkpt>
      <trkpt lat="42.63719" lon="1.68394">
        <ele>1921.33</ele>
        <time>2018-07-22T08:59:22Z</time>
      </trkpt>
      <trkpt lat="42.63718" lon="1.68387">
        <ele>1922.29</ele>
        <time>2018-07-22T08:59:29Z</time>
      </trkpt>
      <trkpt lat="42.63717" lon="1.6838">
        <ele>1922.29</ele>
        <time>2018-07-22T08:59:36Z</time>
      </trkpt>
      <trkpt lat="42.63717" lon="1.68372">
        <ele>1924.22</ele>
        <time>2018-07-22T08:59:44Z</time>
      </trkpt>
      <trkpt lat="42.63717" lon="1.68364">
        <ele>1925.18</ele>
        <time>2018-07-22T08:59:51Z</time>
      </trkpt>
      <trkpt lat="42.63715" lon="1.68358">
        <ele>1925.66</ele>
        <time>2018-07-22T08:59:58Z</time>
      </trkpt>
      <trkpt lat="42.63713" lon="1.68353">
        <ele>1925.66</ele>
        <time>2018-07-22T09:00:04Z</time>
      </trkpt>
      <trkpt lat="42.63709" lon="1.68347">
        <ele>1924.22</ele>
        <time>2018-07-22T09:00:10Z</time>
      </trkpt>
      <trkpt lat="42.63707" lon="1.68337">
        <ele>1924.22</ele>
        <time>2018-07-22T09:00:18Z</time>
      </trkpt>
      <trkpt lat="42.63706" lon="1.68331">
        <ele>1926.14</ele>
        <time>2018-07-22T09:00:28Z</time>
      </trkpt>
      <trkpt lat="42.63706" lon="1.68329">
        <ele>1926.62</ele>
        <time>2018-07-22T09:00:41Z</time>
      </trkpt>
      <trkpt lat="42.63703" lon="1.6833">
        <ele>1930.95</ele>
        <time>2018-07-22T09:00:55Z</time>
      </trkpt>
      <trkpt lat="42.63705" lon="1.6833">
        <ele>1929.02</ele>
        <time>2018-07-22T09:01:07Z</time>
      </trkpt>
      <trkpt lat="42.63706" lon="1.68332">
        <ele>1930.95</ele>
        <time>2018-07-22T09:01:15Z</time>
      </trkpt>
      <trkpt lat="42.63705" lon="1.68333">
        <ele>1929.98</ele>
        <time>2018-07-22T09:01:23Z</time>
      </trkpt>
      <trkpt lat="42.63704" lon="1.68331">
        <ele>1930.46</ele>
        <time>2018-07-22T09:01:34Z</time>
      </trkpt>
      <trkpt lat="42.63705" lon="1.6833">
        <ele>1930.95</ele>
        <time>2018-07-22T09:01:46Z</time>
      </trkpt>
      <trkpt lat="42.63705" lon="1.6833">
        <ele>1930.46</ele>
        <time>2018-07-22T09:01:58Z</time>
      </trkpt>
      <trkpt lat="42.63705" lon="1.68334">
        <ele>1931.91</ele>
        <time>2018-07-22T09:02:15Z</time>
      </trkpt>
      <trkpt lat="42.63704" lon="1.68333">
        <ele>1930.95</ele>
        <time>2018-07-22T09:02:31Z</time>
      </trkpt>
      <trkpt lat="42.63704" lon="1.68333">
        <ele>1928.06</ele>
        <time>2018-07-22T09:02:43Z</time>
      </trkpt>
      <trkpt lat="42.63701" lon="1.6833">
        <ele>1927.58</ele>
        <time>2018-07-22T09:02:51Z</time>
      </trkpt>
      <trkpt lat="42.63704" lon="1.68327">
        <ele>1929.5</ele>
        <time>2018-07-22T09:03:04Z</time>
      </trkpt>
      <trkpt lat="42.63706" lon="1.68328">
        <ele>1929.5</ele>
        <time>2018-07-22T09:03:14Z</time>
      </trkpt>
      <trkpt lat="42.63705" lon="1.68328">
        <ele>1928.54</ele>
        <time>2018-07-22T09:03:24Z</time>
      </trkpt>
      <trkpt lat="42.63704" lon="1.68327">
        <ele>1927.58</ele>
        <time>2018-07-22T09:03:34Z</time>
      </trkpt>
      <trkpt lat="42.63707" lon="1.68324">
        <ele>1929.02</ele>
        <time>2018-07-22T09:03:53Z</time>
      </trkpt>
      <trkpt lat="42.63706" lon="1.6833">
        <ele>1929.5</ele>
        <time>2018-07-22T09:04:05Z</time>
      </trkpt>
      <trkpt lat="42.63707" lon="1.68332">
        <ele>1932.39</ele>
        <time>2018-07-22T09:04:19Z</time>
      </trkpt>
      <trkpt lat="42.63708" lon="1.68332">
        <ele>1929.02</ele>
        <time>2018-07-22T09:04:28Z</time>
      </trkpt>
      <trkpt lat="42.63708" lon="1.68334">
        <ele>1928.06</ele>
        <time>2018-07-22T09:04:37Z</time>
      </trkpt>
      <trkpt lat="42.63706" lon="1.68334">
        <ele>1927.58</ele>
        <time>2018-07-22T09:04:52Z</time>
      </trkpt>
      <trkpt lat="42.63705" lon="1.6833">
        <ele>1929.5</ele>
        <time>2018-07-22T09:05:05Z</time>
      </trkpt>
      <trkpt lat="42.63705" lon="1.68328">
        <ele>1930.46</ele>
        <time>2018-07-22T09:05:24Z</time>
      </trkpt>
      <trkpt lat="42.63704" lon="1.68328">
        <ele>1933.35</ele>
        <time>2018-07-22T09:05:32Z</time>
      </trkpt>
      <trkpt lat="42.63705" lon="1.68329">
        <ele>1935.27</ele>
        <time>2018-07-22T09:05:44Z</time>
      </trkpt>
      <trkpt lat="42.63703" lon="1.68331">
        <ele>1938.16</ele>
        <time>2018-07-22T09:06:00Z</time>
      </trkpt>
      <trkpt lat="42.63704" lon="1.68327">
        <ele>1936.23</ele>
        <time>2018-07-22T09:06:10Z</time>
      </trkpt>
      <trkpt lat="42.63705" lon="1.68328">
        <ele>1936.23</ele>
        <time>2018-07-22T09:06:21Z</time>
      </trkpt>
      <trkpt lat="42.63704" lon="1.68328">
        <ele>1934.79</ele>
        <time>2018-07-22T09:06:32Z</time>
      </trkpt>
      <trkpt lat="42.63705" lon="1.68327">
        <ele>1935.75</ele>
        <time>2018-07-22T09:06:46Z</time>
      </trkpt>
      <trkpt lat="42.63703" lon="1.68326">
        <ele>1934.79</ele>
        <time>2018-07-22T09:06:53Z</time>
      </trkpt>
      <trkpt lat="42.63704" lon="1.68329">
        <ele>1937.19</ele>
        <time>2018-07-22T09:07:03Z</time>
      </trkpt>
      <trkpt lat="42.63706" lon="1.68327">
        <ele>1938.64</ele>
        <time>2018-07-22T09:07:12Z</time>
      </trkpt>
      <trkpt lat="42.63707" lon="1.68323">
        <ele>1940.56</ele>
        <time>2018-07-22T09:07:24Z</time>
      </trkpt>
      <trkpt lat="42.63705" lon="1.68318">
        <ele>1941.52</ele>
        <time>2018-07-22T09:07:33Z</time>
      </trkpt>
      <trkpt lat="42.63705" lon="1.68314">
        <ele>1940.08</ele>
        <time>2018-07-22T09:07:42Z</time>
      </trkpt>
      <trkpt lat="42.63705" lon="1.68311">
        <ele>1938.64</ele>
        <time>2018-07-22T09:07:48Z</time>
      </trkpt>
      <trkpt lat="42.63704" lon="1.68308">
        <ele>1938.16</ele>
        <time>2018-07-22T09:07:50Z</time>
      </trkpt>
      <trkpt lat="42.63703" lon="1.68303">
        <ele>1940.08</ele>
        <time>2018-07-22T09:07:58Z</time>
      </trkpt>
      <trkpt lat="42.63703" lon="1.68301">
        <ele>1941.04</ele>
        <time>2018-07-22T09:08:02Z</time>
      </trkpt>
      <trkpt lat="42.63702" lon="1.68295">
        <ele>1941.52</ele>
        <time>2018-07-22T09:08:09Z</time>
      </trkpt>
      <trkpt lat="42.637" lon="1.68291">
        <ele>1942.96</ele>
        <time>2018-07-22T09:08:16Z</time>
      </trkpt>
      <trkpt lat="42.63699" lon="1.68287">
        <ele>1942.96</ele>
        <time>2018-07-22T09:08:20Z</time>
      </trkpt>
      <trkpt lat="42.63695" lon="1.68271">
        <ele>1942</ele>
        <time>2018-07-22T09:08:29Z</time>
      </trkpt>
      <trkpt lat="42.63694" lon="1.68266">
        <ele>1941.52</ele>
        <time>2018-07-22T09:08:33Z</time>
      </trkpt>
      <trkpt lat="42.63693" lon="1.68261">
        <ele>1941.04</ele>
        <time>2018-07-22T09:08:36Z</time>
      </trkpt>
      <trkpt lat="42.63694" lon="1.68252">
        <ele>1941.52</ele>
        <time>2018-07-22T09:08:45Z</time>
      </trkpt>
      <trkpt lat="42.63698" lon="1.68248">
        <ele>1933.83</ele>
        <time>2018-07-22T09:08:53Z</time>
      </trkpt>
      <trkpt lat="42.63698" lon="1.68237">
        <ele>1932.39</ele>
        <time>2018-07-22T09:09:02Z</time>
      </trkpt>
      <trkpt lat="42.63695" lon="1.68229">
        <ele>1933.35</ele>
        <time>2018-07-22T09:09:10Z</time>
      </trkpt>
      <trkpt lat="42.63693" lon="1.68223">
        <ele>1933.35</ele>
        <time>2018-07-22T09:09:18Z</time>
      </trkpt>
      <trkpt lat="42.63693" lon="1.68222">
        <ele>1933.35</ele>
        <time>2018-07-22T09:09:20Z</time>
      </trkpt>
      <trkpt lat="42.63691" lon="1.68213">
        <ele>1934.31</ele>
        <time>2018-07-22T09:09:28Z</time>
      </trkpt>
      <trkpt lat="42.63688" lon="1.68207">
        <ele>1933.83</ele>
        <time>2018-07-22T09:09:35Z</time>
      </trkpt>
      <trkpt lat="42.63687" lon="1.68199">
        <ele>1934.79</ele>
        <time>2018-07-22T09:09:44Z</time>
      </trkpt>
      <trkpt lat="42.63685" lon="1.68191">
        <ele>1934.79</ele>
        <time>2018-07-22T09:09:52Z</time>
      </trkpt>
      <trkpt lat="42.63684" lon="1.68184">
        <ele>1936.23</ele>
        <time>2018-07-22T09:09:59Z</time>
      </trkpt>
      <trkpt lat="42.63684" lon="1.68178">
        <ele>1937.19</ele>
        <time>2018-07-22T09:10:07Z</time>
      </trkpt>
      <trkpt lat="42.63684" lon="1.68171">
        <ele>1937.19</ele>
        <time>2018-07-22T09:10:14Z</time>
      </trkpt>
      <trkpt lat="42.63685" lon="1.68164">
        <ele>1938.64</ele>
        <time>2018-07-22T09:10:23Z</time>
      </trkpt>
      <trkpt lat="42.63683" lon="1.68161">
        <ele>1939.6</ele>
        <time>2018-07-22T09:10:27Z</time>
      </trkpt>
      <trkpt lat="42.63684" lon="1.68156">
        <ele>1940.08</ele>
        <time>2018-07-22T09:10:35Z</time>
      </trkpt>
      <trkpt lat="42.63684" lon="1.68147">
        <ele>1940.56</ele>
        <time>2018-07-22T09:10:44Z</time>
      </trkpt>
      <trkpt lat="42.63682" lon="1.6814">
        <ele>1941.52</ele>
        <time>2018-07-22T09:10:51Z</time>
      </trkpt>
      <trkpt lat="42.6368" lon="1.68137">
        <ele>1941.52</ele>
        <time>2018-07-22T09:10:54Z</time>
      </trkpt>
      <trkpt lat="42.63678" lon="1.6813">
        <ele>1942.48</ele>
        <time>2018-07-22T09:11:03Z</time>
      </trkpt>
      <trkpt lat="42.63675" lon="1.68125">
        <ele>1943.44</ele>
        <time>2018-07-22T09:11:09Z</time>
      </trkpt>
      <trkpt lat="42.63672" lon="1.68115">
        <ele>1943.92</ele>
        <time>2018-07-22T09:11:19Z</time>
      </trkpt>
      <trkpt lat="42.63671" lon="1.68112">
        <ele>1944.4</ele>
        <time>2018-07-22T09:11:22Z</time>
      </trkpt>
      <trkpt lat="42.63668" lon="1.68102">
        <ele>1944.4</ele>
        <time>2018-07-22T09:11:32Z</time>
      </trkpt>
      <trkpt lat="42.63667" lon="1.68094">
        <ele>1944.88</ele>
        <time>2018-07-22T09:11:42Z</time>
      </trkpt>
      <trkpt lat="42.63665" lon="1.68086">
        <ele>1946.33</ele>
        <time>2018-07-22T09:11:51Z</time>
      </trkpt>
      <trkpt lat="42.63664" lon="1.68077">
        <ele>1946.81</ele>
        <time>2018-07-22T09:12:00Z</time>
      </trkpt>
      <trkpt lat="42.63663" lon="1.68069">
        <ele>1948.25</ele>
        <time>2018-07-22T09:12:09Z</time>
      </trkpt>
      <trkpt lat="42.63662" lon="1.6806">
        <ele>1948.73</ele>
        <time>2018-07-22T09:12:17Z</time>
      </trkpt>
      <trkpt lat="42.6366" lon="1.68053">
        <ele>1949.21</ele>
        <time>2018-07-22T09:12:23Z</time>
      </trkpt>
      <trkpt lat="42.63659" lon="1.68048">
        <ele>1948.73</ele>
        <time>2018-07-22T09:12:26Z</time>
      </trkpt>
      <trkpt lat="42.63658" lon="1.68041">
        <ele>1948.73</ele>
        <time>2018-07-22T09:12:32Z</time>
      </trkpt>
      <trkpt lat="42.63656" lon="1.68032">
        <ele>1949.21</ele>
        <time>2018-07-22T09:12:39Z</time>
      </trkpt>
      <trkpt lat="42.63654" lon="1.68024">
        <ele>1949.69</ele>
        <time>2018-07-22T09:12:47Z</time>
      </trkpt>
      <trkpt lat="42.63655" lon="1.68016">
        <ele>1950.17</ele>
        <time>2018-07-22T09:12:55Z</time>
      </trkpt>
      <trkpt lat="42.63654" lon="1.68006">
        <ele>1952.57</ele>
        <time>2018-07-22T09:13:04Z</time>
      </trkpt>
      <trkpt lat="42.63651" lon="1.67998">
        <ele>1955.46</ele>
        <time>2018-07-22T09:13:13Z</time>
      </trkpt>
      <trkpt lat="42.6365" lon="1.67988">
        <ele>1957.86</ele>
        <time>2018-07-22T09:13:25Z</time>
      </trkpt>
      <trkpt lat="42.63648" lon="1.67982">
        <ele>1957.86</ele>
        <time>2018-07-22T09:13:33Z</time>
      </trkpt>
      <trkpt lat="42.63648" lon="1.67981">
        <ele>1957.86</ele>
        <time>2018-07-22T09:13:34Z</time>
      </trkpt>
      <trkpt lat="42.63647" lon="1.67973">
        <ele>1958.34</ele>
        <time>2018-07-22T09:13:43Z</time>
      </trkpt>
      <trkpt lat="42.63644" lon="1.67967">
        <ele>1957.86</ele>
        <time>2018-07-22T09:13:50Z</time>
      </trkpt>
      <trkpt lat="42.63644" lon="1.67963">
        <ele>1958.34</ele>
        <time>2018-07-22T09:13:57Z</time>
      </trkpt>
      <trkpt lat="42.63645" lon="1.67959">
        <ele>1958.34</ele>
        <time>2018-07-22T09:14:02Z</time>
      </trkpt>
      <trkpt lat="42.63641" lon="1.6795">
        <ele>1958.82</ele>
        <time>2018-07-22T09:14:11Z</time>
      </trkpt>
      <trkpt lat="42.63637" lon="1.67943">
        <ele>1960.75</ele>
        <time>2018-07-22T09:14:20Z</time>
      </trkpt>
      <trkpt lat="42.63636" lon="1.67941">
        <ele>1962.19</ele>
        <time>2018-07-22T09:14:27Z</time>
      </trkpt>
      <trkpt lat="42.63637" lon="1.67937">
        <ele>1961.23</ele>
        <time>2018-07-22T09:14:35Z</time>
      </trkpt>
      <trkpt lat="42.63638" lon="1.6793">
        <ele>1962.67</ele>
        <time>2018-07-22T09:14:45Z</time>
      </trkpt>
      <trkpt lat="42.63641" lon="1.67928">
        <ele>1964.11</ele>
        <time>2018-07-22T09:14:51Z</time>
      </trkpt>
      <trkpt lat="42.63639" lon="1.6792">
        <ele>1964.59</ele>
        <time>2018-07-22T09:14:58Z</time>
      </trkpt>
      <trkpt lat="42.63636" lon="1.67913">
        <ele>1965.07</ele>
        <time>2018-07-22T09:15:05Z</time>
      </trkpt>
      <trkpt lat="42.63633" lon="1.67905">
        <ele>1965.55</ele>
        <time>2018-07-22T09:15:14Z</time>
      </trkpt>
      <trkpt lat="42.63632" lon="1.67902">
        <ele>1965.55</ele>
        <time>2018-07-22T09:15:20Z</time>
      </trkpt>
      <trkpt lat="42.63631" lon="1.67895">
        <ele>1966.51</ele>
        <time>2018-07-22T09:15:27Z</time>
      </trkpt>
      <trkpt lat="42.63627" lon="1.67889">
        <ele>1968.92</ele>
        <time>2018-07-22T09:15:35Z</time>
      </trkpt>
      <trkpt lat="42.63624" lon="1.67882">
        <ele>1970.84</ele>
        <time>2018-07-22T09:15:44Z</time>
      </trkpt>
      <trkpt lat="42.63622" lon="1.67877">
        <ele>1971.32</ele>
        <time>2018-07-22T09:15:52Z</time>
      </trkpt>
      <trkpt lat="42.63622" lon="1.67871">
        <ele>1972.76</ele>
        <time>2018-07-22T09:16:00Z</time>
      </trkpt>
      <trkpt lat="42.63622" lon="1.67865">
        <ele>1973.72</ele>
        <time>2018-07-22T09:16:07Z</time>
      </trkpt>
      <trkpt lat="42.63622" lon="1.67857">
        <ele>1974.2</ele>
        <time>2018-07-22T09:16:17Z</time>
      </trkpt>
      <trkpt lat="42.63619" lon="1.67848">
        <ele>1974.69</ele>
        <time>2018-07-22T09:16:25Z</time>
      </trkpt>
      <trkpt lat="42.63616" lon="1.6784">
        <ele>1975.65</ele>
        <time>2018-07-22T09:16:33Z</time>
      </trkpt>
      <trkpt lat="42.63615" lon="1.67832">
        <ele>1977.09</ele>
        <time>2018-07-22T09:16:42Z</time>
      </trkpt>
      <trkpt lat="42.63613" lon="1.67826">
        <ele>1977.09</ele>
        <time>2018-07-22T09:16:49Z</time>
      </trkpt>
      <trkpt lat="42.63612" lon="1.67822">
        <ele>1977.09</ele>
        <time>2018-07-22T09:16:56Z</time>
      </trkpt>
      <trkpt lat="42.63612" lon="1.67819">
        <ele>1976.61</ele>
        <time>2018-07-22T09:17:01Z</time>
      </trkpt>
      <trkpt lat="42.63608" lon="1.67815">
        <ele>1977.57</ele>
        <time>2018-07-22T09:17:08Z</time>
      </trkpt>
      <trkpt lat="42.63607" lon="1.67811">
        <ele>1977.57</ele>
        <time>2018-07-22T09:17:15Z</time>
      </trkpt>
      <trkpt lat="42.63603" lon="1.67806">
        <ele>1978.53</ele>
        <time>2018-07-22T09:17:23Z</time>
      </trkpt>
      <trkpt lat="42.63601" lon="1.678">
        <ele>1979.49</ele>
        <time>2018-07-22T09:17:30Z</time>
      </trkpt>
      <trkpt lat="42.63603" lon="1.67794">
        <ele>1979.97</ele>
        <time>2018-07-22T09:17:38Z</time>
      </trkpt>
      <trkpt lat="42.63602" lon="1.67785">
        <ele>1979.49</ele>
        <time>2018-07-22T09:17:47Z</time>
      </trkpt>
      <trkpt lat="42.63602" lon="1.67777">
        <ele>1982.38</ele>
        <time>2018-07-22T09:17:56Z</time>
      </trkpt>
      <trkpt lat="42.63602" lon="1.67768">
        <ele>1983.82</ele>
        <time>2018-07-22T09:18:04Z</time>
      </trkpt>
      <trkpt lat="42.63602" lon="1.67763">
        <ele>1984.78</ele>
        <time>2018-07-22T09:18:11Z</time>
      </trkpt>
      <trkpt lat="42.63602" lon="1.67758">
        <ele>1985.26</ele>
        <time>2018-07-22T09:18:17Z</time>
      </trkpt>
      <trkpt lat="42.63599" lon="1.67755">
        <ele>1986.22</ele>
        <time>2018-07-22T09:18:24Z</time>
      </trkpt>
      <trkpt lat="42.63599" lon="1.67753">
        <ele>1988.62</ele>
        <time>2018-07-22T09:18:32Z</time>
      </trkpt>
      <trkpt lat="42.63596" lon="1.67746">
        <ele>1990.07</ele>
        <time>2018-07-22T09:18:40Z</time>
      </trkpt>
      <trkpt lat="42.63596" lon="1.67751">
        <ele>1991.51</ele>
        <time>2018-07-22T09:18:49Z</time>
      </trkpt>
      <trkpt lat="42.63598" lon="1.67753">
        <ele>1992.47</ele>
        <time>2018-07-22T09:19:03Z</time>
      </trkpt>
      <trkpt lat="42.63598" lon="1.67745">
        <ele>1990.55</ele>
        <time>2018-07-22T09:19:10Z</time>
      </trkpt>
      <trkpt lat="42.63595" lon="1.67737">
        <ele>1991.03</ele>
        <time>2018-07-22T09:19:18Z</time>
      </trkpt>
      <trkpt lat="42.63594" lon="1.67731">
        <ele>1990.55</ele>
        <time>2018-07-22T09:19:27Z</time>
      </trkpt>
      <trkpt lat="42.63592" lon="1.67724">
        <ele>1990.55</ele>
        <time>2018-07-22T09:19:34Z</time>
      </trkpt>
      <trkpt lat="42.6359" lon="1.67717">
        <ele>1991.51</ele>
        <time>2018-07-22T09:19:42Z</time>
      </trkpt>
      <trkpt lat="42.6359" lon="1.67711">
        <ele>1993.43</ele>
        <time>2018-07-22T09:19:50Z</time>
      </trkpt>
      <trkpt lat="42.63589" lon="1.67711">
        <ele>1993.43</ele>
        <time>2018-07-22T09:19:58Z</time>
      </trkpt>
      <trkpt lat="42.63589" lon="1.67705">
        <ele>1993.43</ele>
        <time>2018-07-22T09:20:05Z</time>
      </trkpt>
      <trkpt lat="42.63588" lon="1.67699">
        <ele>1994.87</ele>
        <time>2018-07-22T09:20:12Z</time>
      </trkpt>
      <trkpt lat="42.63587" lon="1.67694">
        <ele>1994.87</ele>
        <time>2018-07-22T09:20:20Z</time>
      </trkpt>
      <trkpt lat="42.63587" lon="1.67687">
        <ele>1994.87</ele>
        <time>2018-07-22T09:20:27Z</time>
      </trkpt>
      <trkpt lat="42.63583" lon="1.67678">
        <ele>1994.87</ele>
        <time>2018-07-22T09:20:35Z</time>
      </trkpt>
      <trkpt lat="42.63583" lon="1.67675">
        <ele>1994.87</ele>
        <time>2018-07-22T09:20:39Z</time>
      </trkpt>
      <trkpt lat="42.63582" lon="1.67666">
        <ele>1996.8</ele>
        <time>2018-07-22T09:20:48Z</time>
      </trkpt>
      <trkpt lat="42.63582" lon="1.67659">
        <ele>1996.8</ele>
        <time>2018-07-22T09:20:55Z</time>
      </trkpt>
      <trkpt lat="42.63582" lon="1.6765">
        <ele>1998.24</ele>
        <time>2018-07-22T09:21:04Z</time>
      </trkpt>
      <trkpt lat="42.63583" lon="1.67647">
        <ele>2000.64</ele>
        <time>2018-07-22T09:21:12Z</time>
      </trkpt>
      <trkpt lat="42.63584" lon="1.67645">
        <ele>2001.12</ele>
        <time>2018-07-22T09:21:25Z</time>
      </trkpt>
      <trkpt lat="42.6358" lon="1.67645">
        <ele>2003.04</ele>
        <time>2018-07-22T09:21:36Z</time>
      </trkpt>
      <trkpt lat="42.63579" lon="1.67646">
        <ele>2002.56</ele>
        <time>2018-07-22T09:21:52Z</time>
      </trkpt>
      <trkpt lat="42.6358" lon="1.67646">
        <ele>2003.04</ele>
        <time>2018-07-22T09:22:07Z</time>
      </trkpt>
      <trkpt lat="42.63579" lon="1.67645">
        <ele>2001.6</ele>
        <time>2018-07-22T09:22:24Z</time>
      </trkpt>
      <trkpt lat="42.63581" lon="1.67643">
        <ele>1996.8</ele>
        <time>2018-07-22T09:22:31Z</time>
      </trkpt>
      <trkpt lat="42.6358" lon="1.67639">
        <ele>1996.8</ele>
        <time>2018-07-22T09:22:37Z</time>
      </trkpt>
      <trkpt lat="42.6358" lon="1.67638">
        <ele>2000.16</ele>
        <time>2018-07-22T09:22:49Z</time>
      </trkpt>
      <trkpt lat="42.63582" lon="1.67638">
        <ele>1999.68</ele>
        <time>2018-07-22T09:22:57Z</time>
      </trkpt>
      <trkpt lat="42.63581" lon="1.67634">
        <ele>1999.68</ele>
        <time>2018-07-22T09:23:03Z</time>
      </trkpt>
      <trkpt lat="42.63577" lon="1.6763">
        <ele>2000.16</ele>
        <time>2018-07-22T09:23:07Z</time>
      </trkpt>
      <trkpt lat="42.63575" lon="1.67627">
        <ele>2000.16</ele>
        <time>2018-07-22T09:23:10Z</time>
      </trkpt>
      <trkpt lat="42.63574" lon="1.67622">
        <ele>1999.68</ele>
        <time>2018-07-22T09:23:17Z</time>
      </trkpt>
      <trkpt lat="42.63573" lon="1.67616">
        <ele>1999.68</ele>
        <time>2018-07-22T09:23:25Z</time>
      </trkpt>
      <trkpt lat="42.63572" lon="1.67608">
        <ele>2002.08</ele>
        <time>2018-07-22T09:23:33Z</time>
      </trkpt>
      <trkpt lat="42.63571" lon="1.67605">
        <ele>2003.04</ele>
        <time>2018-07-22T09:23:37Z</time>
      </trkpt>
      <trkpt lat="42.6357" lon="1.67598">
        <ele>2004.97</ele>
        <time>2018-07-22T09:23:44Z</time>
      </trkpt>
      <trkpt lat="42.6357" lon="1.67593">
        <ele>2007.37</ele>
        <time>2018-07-22T09:23:51Z</time>
      </trkpt>
      <trkpt lat="42.63566" lon="1.67587">
        <ele>2008.81</ele>
        <time>2018-07-22T09:23:58Z</time>
      </trkpt>
      <trkpt lat="42.63567" lon="1.67581">
        <ele>2010.25</ele>
        <time>2018-07-22T09:24:05Z</time>
      </trkpt>
      <trkpt lat="42.63567" lon="1.67576">
        <ele>2011.22</ele>
        <time>2018-07-22T09:24:13Z</time>
      </trkpt>
      <trkpt lat="42.63564" lon="1.6757">
        <ele>2012.18</ele>
        <time>2018-07-22T09:24:22Z</time>
      </trkpt>
      <trkpt lat="42.63564" lon="1.67565">
        <ele>2012.66</ele>
        <time>2018-07-22T09:24:29Z</time>
      </trkpt>
      <trkpt lat="42.63564" lon="1.67559">
        <ele>2013.62</ele>
        <time>2018-07-22T09:24:35Z</time>
      </trkpt>
      <trkpt lat="42.63565" lon="1.67554">
        <ele>2014.58</ele>
        <time>2018-07-22T09:24:42Z</time>
      </trkpt>
      <trkpt lat="42.63567" lon="1.67546">
        <ele>2014.1</ele>
        <time>2018-07-22T09:24:52Z</time>
      </trkpt>
      <trkpt lat="42.63568" lon="1.6754">
        <ele>2015.06</ele>
        <time>2018-07-22T09:25:00Z</time>
      </trkpt>
      <trkpt lat="42.6357" lon="1.67534">
        <ele>2016.98</ele>
        <time>2018-07-22T09:25:08Z</time>
      </trkpt>
      <trkpt lat="42.63571" lon="1.67527">
        <ele>2017.94</ele>
        <time>2018-07-22T09:25:17Z</time>
      </trkpt>
      <trkpt lat="42.63567" lon="1.67526">
        <ele>2017.94</ele>
        <time>2018-07-22T09:25:23Z</time>
      </trkpt>
      <trkpt lat="42.63566" lon="1.67522">
        <ele>2016.5</ele>
        <time>2018-07-22T09:25:29Z</time>
      </trkpt>
      <trkpt lat="42.63568" lon="1.67517">
        <ele>2015.54</ele>
        <time>2018-07-22T09:25:37Z</time>
      </trkpt>
      <trkpt lat="42.63564" lon="1.67507">
        <ele>2016.5</ele>
        <time>2018-07-22T09:25:47Z</time>
      </trkpt>
      <trkpt lat="42.63565" lon="1.67501">
        <ele>2016.98</ele>
        <time>2018-07-22T09:25:55Z</time>
      </trkpt>
      <trkpt lat="42.63565" lon="1.67494">
        <ele>2017.46</ele>
        <time>2018-07-22T09:26:03Z</time>
      </trkpt>
      <trkpt lat="42.63564" lon="1.67488">
        <ele>2017.94</ele>
        <time>2018-07-22T09:26:10Z</time>
      </trkpt>
      <trkpt lat="42.63564" lon="1.67481">
        <ele>2020.35</ele>
        <time>2018-07-22T09:26:20Z</time>
      </trkpt>
      <trkpt lat="42.63559" lon="1.67474">
        <ele>2022.27</ele>
        <time>2018-07-22T09:26:28Z</time>
      </trkpt>
      <trkpt lat="42.63559" lon="1.67473">
        <ele>2024.19</ele>
        <time>2018-07-22T09:26:36Z</time>
      </trkpt>
      <trkpt lat="42.63558" lon="1.67474">
        <ele>2024.19</ele>
        <time>2018-07-22T09:26:47Z</time>
      </trkpt>
      <trkpt lat="42.63558" lon="1.67478">
        <ele>2026.12</ele>
        <time>2018-07-22T09:27:01Z</time>
      </trkpt>
      <trkpt lat="42.63561" lon="1.67471">
        <ele>2025.64</ele>
        <time>2018-07-22T09:27:15Z</time>
      </trkpt>
      <trkpt lat="42.63558" lon="1.67468">
        <ele>2022.75</ele>
        <time>2018-07-22T09:27:29Z</time>
      </trkpt>
      <trkpt lat="42.63558" lon="1.67466">
        <ele>2021.79</ele>
        <time>2018-07-22T09:27:34Z</time>
      </trkpt>
      <trkpt lat="42.63553" lon="1.6746">
        <ele>2020.35</ele>
        <time>2018-07-22T09:27:42Z</time>
      </trkpt>
      <trkpt lat="42.63552" lon="1.67458">
        <ele>2019.87</ele>
        <time>2018-07-22T09:27:43Z</time>
      </trkpt>
      <trkpt lat="42.6355" lon="1.67456">
        <ele>2020.35</ele>
        <time>2018-07-22T09:27:46Z</time>
      </trkpt>
      <trkpt lat="42.63548" lon="1.67449">
        <ele>2018.91</ele>
        <time>2018-07-22T09:27:53Z</time>
      </trkpt>
      <trkpt lat="42.63548" lon="1.6744">
        <ele>2018.43</ele>
        <time>2018-07-22T09:28:00Z</time>
      </trkpt>
      <trkpt lat="42.63547" lon="1.67431">
        <ele>2019.39</ele>
        <time>2018-07-22T09:28:08Z</time>
      </trkpt>
      <trkpt lat="42.63543" lon="1.67423">
        <ele>2021.79</ele>
        <time>2018-07-22T09:28:17Z</time>
      </trkpt>
      <trkpt lat="42.63541" lon="1.67415">
        <ele>2023.71</ele>
        <time>2018-07-22T09:28:25Z</time>
      </trkpt>
      <trkpt lat="42.63538" lon="1.67411">
        <ele>2025.64</ele>
        <time>2018-07-22T09:28:32Z</time>
      </trkpt>
      <trkpt lat="42.63537" lon="1.67404">
        <ele>2028.04</ele>
        <time>2018-07-22T09:28:40Z</time>
      </trkpt>
      <trkpt lat="42.63536" lon="1.67395">
        <ele>2030.92</ele>
        <time>2018-07-22T09:28:50Z</time>
      </trkpt>
      <trkpt lat="42.63535" lon="1.67389">
        <ele>2031.88</ele>
        <time>2018-07-22T09:28:57Z</time>
      </trkpt>
      <trkpt lat="42.63532" lon="1.67382">
        <ele>2030.92</ele>
        <time>2018-07-22T09:29:03Z</time>
      </trkpt>
      <trkpt lat="42.63531" lon="1.67375">
        <ele>2029</ele>
        <time>2018-07-22T09:29:11Z</time>
      </trkpt>
      <trkpt lat="42.63529" lon="1.67369">
        <ele>2029.96</ele>
        <time>2018-07-22T09:29:18Z</time>
      </trkpt>
      <trkpt lat="42.63528" lon="1.67363">
        <ele>2030.44</ele>
        <time>2018-07-22T09:29:26Z</time>
      </trkpt>
      <trkpt lat="42.63524" lon="1.67357">
        <ele>2031.88</ele>
        <time>2018-07-22T09:29:35Z</time>
      </trkpt>
      <trkpt lat="42.63518" lon="1.67352">
        <ele>2033.33</ele>
        <time>2018-07-22T09:29:44Z</time>
      </trkpt>
      <trkpt lat="42.63517" lon="1.67345">
        <ele>2034.29</ele>
        <time>2018-07-22T09:29:51Z</time>
      </trkpt>
      <trkpt lat="42.63514" lon="1.6734">
        <ele>2034.77</ele>
        <time>2018-07-22T09:29:59Z</time>
      </trkpt>
      <trkpt lat="42.63513" lon="1.67338">
        <ele>2034.29</ele>
        <time>2018-07-22T09:30:01Z</time>
      </trkpt>
      <trkpt lat="42.63514" lon="1.6733">
        <ele>2033.33</ele>
        <time>2018-07-22T09:30:10Z</time>
      </trkpt>
      <trkpt lat="42.63512" lon="1.67333">
        <ele>2036.21</ele>
        <time>2018-07-22T09:30:20Z</time>
      </trkpt>
      <trkpt lat="42.63509" lon="1.67328">
        <ele>2033.81</ele>
        <time>2018-07-22T09:30:33Z</time>
      </trkpt>
      <trkpt lat="42.63513" lon="1.67329">
        <ele>2032.84</ele>
        <time>2018-07-22T09:30:44Z</time>
      </trkpt>
      <trkpt lat="42.63512" lon="1.67326">
        <ele>2033.81</ele>
        <time>2018-07-22T09:30:50Z</time>
      </trkpt>
      <trkpt lat="42.63512" lon="1.67324">
        <ele>2032.84</ele>
        <time>2018-07-22T09:30:54Z</time>
      </trkpt>
      <trkpt lat="42.6351" lon="1.67316">
        <ele>2033.33</ele>
        <time>2018-07-22T09:31:01Z</time>
      </trkpt>
      <trkpt lat="42.63509" lon="1.67313">
        <ele>2033.33</ele>
        <time>2018-07-22T09:31:04Z</time>
      </trkpt>
      <trkpt lat="42.63506" lon="1.67307">
        <ele>2034.77</ele>
        <time>2018-07-22T09:31:11Z</time>
      </trkpt>
      <trkpt lat="42.63506" lon="1.67299">
        <ele>2034.77</ele>
        <time>2018-07-22T09:31:19Z</time>
      </trkpt>
      <trkpt lat="42.63505" lon="1.67289">
        <ele>2036.21</ele>
        <time>2018-07-22T09:31:28Z</time>
      </trkpt>
      <trkpt lat="42.63504" lon="1.67287">
        <ele>2036.69</ele>
        <time>2018-07-22T09:31:36Z</time>
      </trkpt>
      <trkpt lat="42.63506" lon="1.67285">
        <ele>2037.17</ele>
        <time>2018-07-22T09:31:47Z</time>
      </trkpt>
      <trkpt lat="42.63507" lon="1.67286">
        <ele>2037.65</ele>
        <time>2018-07-22T09:31:53Z</time>
      </trkpt>
      <trkpt lat="42.63505" lon="1.67284">
        <ele>2037.65</ele>
        <time>2018-07-22T09:32:02Z</time>
      </trkpt>
      <trkpt lat="42.63503" lon="1.67281">
        <ele>2037.17</ele>
        <time>2018-07-22T09:32:19Z</time>
      </trkpt>
      <trkpt lat="42.63502" lon="1.67284">
        <ele>2037.17</ele>
        <time>2018-07-22T09:32:31Z</time>
      </trkpt>
      <trkpt lat="42.635" lon="1.6729">
        <ele>2036.21</ele>
        <time>2018-07-22T09:32:38Z</time>
      </trkpt>
      <trkpt lat="42.63501" lon="1.67292">
        <ele>2037.65</ele>
        <time>2018-07-22T09:32:50Z</time>
      </trkpt>
      <trkpt lat="42.63501" lon="1.67291">
        <ele>2037.65</ele>
        <time>2018-07-22T09:32:57Z</time>
      </trkpt>
      <trkpt lat="42.63503" lon="1.6729">
        <ele>2038.13</ele>
        <time>2018-07-22T09:33:07Z</time>
      </trkpt>
      <trkpt lat="42.63504" lon="1.67292">
        <ele>2037.17</ele>
        <time>2018-07-22T09:33:21Z</time>
      </trkpt>
      <trkpt lat="42.63501" lon="1.67287">
        <ele>2038.13</ele>
        <time>2018-07-22T09:33:34Z</time>
      </trkpt>
      <trkpt lat="42.63499" lon="1.67285">
        <ele>2038.13</ele>
        <time>2018-07-22T09:33:50Z</time>
      </trkpt>
      <trkpt lat="42.63501" lon="1.67285">
        <ele>2035.73</ele>
        <time>2018-07-22T09:34:05Z</time>
      </trkpt>
      <trkpt lat="42.63503" lon="1.67289">
        <ele>2034.29</ele>
        <time>2018-07-22T09:34:21Z</time>
      </trkpt>
      <trkpt lat="42.635" lon="1.67288">
        <ele>2034.77</ele>
        <time>2018-07-22T09:34:32Z</time>
      </trkpt>
      <trkpt lat="42.635" lon="1.67287">
        <ele>2031.4</ele>
        <time>2018-07-22T09:34:43Z</time>
      </trkpt>
      <trkpt lat="42.63498" lon="1.67288">
        <ele>2029.48</ele>
        <time>2018-07-22T09:34:53Z</time>
      </trkpt>
      <trkpt lat="42.63502" lon="1.67288">
        <ele>2031.88</ele>
        <time>2018-07-22T09:35:09Z</time>
      </trkpt>
      <trkpt lat="42.63503" lon="1.6729">
        <ele>2034.29</ele>
        <time>2018-07-22T09:35:25Z</time>
      </trkpt>
      <trkpt lat="42.63505" lon="1.67288">
        <ele>2036.21</ele>
        <time>2018-07-22T09:35:42Z</time>
      </trkpt>
      <trkpt lat="42.63504" lon="1.6729">
        <ele>2035.25</ele>
        <time>2018-07-22T09:35:58Z</time>
      </trkpt>
      <trkpt lat="42.63504" lon="1.6729">
        <ele>2037.17</ele>
        <time>2018-07-22T09:36:11Z</time>
      </trkpt>
      <trkpt lat="42.63504" lon="1.67289">
        <ele>2038.61</ele>
        <time>2018-07-22T09:36:24Z</time>
      </trkpt>
      <trkpt lat="42.63502" lon="1.67289">
        <ele>2035.73</ele>
        <time>2018-07-22T09:36:41Z</time>
      </trkpt>
      <trkpt lat="42.63501" lon="1.6729">
        <ele>2037.17</ele>
        <time>2018-07-22T09:36:55Z</time>
      </trkpt>
      <trkpt lat="42.63503" lon="1.67294">
        <ele>2035.73</ele>
        <time>2018-07-22T09:37:06Z</time>
      </trkpt>
      <trkpt lat="42.63504" lon="1.67295">
        <ele>2035.25</ele>
        <time>2018-07-22T09:37:13Z</time>
      </trkpt>
      <trkpt lat="42.63503" lon="1.67291">
        <ele>2035.73</ele>
        <time>2018-07-22T09:37:22Z</time>
      </trkpt>
      <trkpt lat="42.63501" lon="1.67287">
        <ele>2035.25</ele>
        <time>2018-07-22T09:37:29Z</time>
      </trkpt>
      <trkpt lat="42.63499" lon="1.67279">
        <ele>2035.73</ele>
        <time>2018-07-22T09:37:36Z</time>
      </trkpt>
      <trkpt lat="42.63498" lon="1.67273">
        <ele>2035.25</ele>
        <time>2018-07-22T09:37:43Z</time>
      </trkpt>
      <trkpt lat="42.63497" lon="1.67272">
        <ele>2035.73</ele>
        <time>2018-07-22T09:37:45Z</time>
      </trkpt>
      <trkpt lat="42.63496" lon="1.67264">
        <ele>2037.17</ele>
        <time>2018-07-22T09:37:52Z</time>
      </trkpt>
      <trkpt lat="42.63493" lon="1.67262">
        <ele>2038.61</ele>
        <time>2018-07-22T09:37:59Z</time>
      </trkpt>
      <trkpt lat="42.63493" lon="1.67256">
        <ele>2040.05</ele>
        <time>2018-07-22T09:38:06Z</time>
      </trkpt>
      <trkpt lat="42.63493" lon="1.67256">
        <ele>2040.54</ele>
        <time>2018-07-22T09:38:07Z</time>
      </trkpt>
      <trkpt lat="42.63489" lon="1.67246">
        <ele>2040.05</ele>
        <time>2018-07-22T09:38:15Z</time>
      </trkpt>
      <trkpt lat="42.63483" lon="1.67237">
        <ele>2038.13</ele>
        <time>2018-07-22T09:38:24Z</time>
      </trkpt>
      <trkpt lat="42.63483" lon="1.67235">
        <ele>2037.65</ele>
        <time>2018-07-22T09:38:27Z</time>
      </trkpt>
      <trkpt lat="42.63482" lon="1.67225">
        <ele>2037.17</ele>
        <time>2018-07-22T09:38:35Z</time>
      </trkpt>
      <trkpt lat="42.63481" lon="1.67221">
        <ele>2038.13</ele>
        <time>2018-07-22T09:38:39Z</time>
      </trkpt>
      <trkpt lat="42.63479" lon="1.67214">
        <ele>2039.57</ele>
        <time>2018-07-22T09:38:46Z</time>
      </trkpt>
      <trkpt lat="42.63478" lon="1.67206">
        <ele>2040.05</ele>
        <time>2018-07-22T09:38:52Z</time>
      </trkpt>
      <trkpt lat="42.63478" lon="1.67203">
        <ele>2040.05</ele>
        <time>2018-07-22T09:38:57Z</time>
      </trkpt>
      <trkpt lat="42.63478" lon="1.67196">
        <ele>2040.05</ele>
        <time>2018-07-22T09:39:05Z</time>
      </trkpt>
      <trkpt lat="42.63476" lon="1.6719">
        <ele>2039.57</ele>
        <time>2018-07-22T09:39:11Z</time>
      </trkpt>
      <trkpt lat="42.6347" lon="1.67181">
        <ele>2040.05</ele>
        <time>2018-07-22T09:39:19Z</time>
      </trkpt>
      <trkpt lat="42.63466" lon="1.67175">
        <ele>2040.54</ele>
        <time>2018-07-22T09:39:25Z</time>
      </trkpt>
      <trkpt lat="42.63461" lon="1.67172">
        <ele>2041.02</ele>
        <time>2018-07-22T09:39:32Z</time>
      </trkpt>
      <trkpt lat="42.6346" lon="1.67169">
        <ele>2041.5</ele>
        <time>2018-07-22T09:39:35Z</time>
      </trkpt>
      <trkpt lat="42.63458" lon="1.67166">
        <ele>2041.5</ele>
        <time>2018-07-22T09:39:39Z</time>
      </trkpt>
      <trkpt lat="42.63453" lon="1.67167">
        <ele>2041.5</ele>
        <time>2018-07-22T09:39:47Z</time>
      </trkpt>
      <trkpt lat="42.63454" lon="1.67168">
        <ele>2041.02</ele>
        <time>2018-07-22T09:39:53Z</time>
      </trkpt>
      <trkpt lat="42.63453" lon="1.67168">
        <ele>2040.05</ele>
        <time>2018-07-22T09:40:01Z</time>
      </trkpt>
      <trkpt lat="42.63457" lon="1.67164">
        <ele>2038.61</ele>
        <time>2018-07-22T09:40:09Z</time>
      </trkpt>
      <trkpt lat="42.63454" lon="1.6716">
        <ele>2041.02</ele>
        <time>2018-07-22T09:40:15Z</time>
      </trkpt>
      <trkpt lat="42.63454" lon="1.67152">
        <ele>2039.09</ele>
        <time>2018-07-22T09:40:22Z</time>
      </trkpt>
      <trkpt lat="42.63453" lon="1.67149">
        <ele>2040.05</ele>
        <time>2018-07-22T09:40:25Z</time>
      </trkpt>
      <trkpt lat="42.63454" lon="1.67142">
        <ele>2039.09</ele>
        <time>2018-07-22T09:40:31Z</time>
      </trkpt>
      <trkpt lat="42.6345" lon="1.67134">
        <ele>2040.54</ele>
        <time>2018-07-22T09:40:40Z</time>
      </trkpt>
      <trkpt lat="42.6345" lon="1.67133">
        <ele>2040.05</ele>
        <time>2018-07-22T09:40:42Z</time>
      </trkpt>
      <trkpt lat="42.63449" lon="1.67124">
        <ele>2041.02</ele>
        <time>2018-07-22T09:40:49Z</time>
      </trkpt>
      <trkpt lat="42.63448" lon="1.67123">
        <ele>2041.5</ele>
        <time>2018-07-22T09:40:51Z</time>
      </trkpt>
      <trkpt lat="42.63446" lon="1.67111">
        <ele>2043.42</ele>
        <time>2018-07-22T09:41:00Z</time>
      </trkpt>
      <trkpt lat="42.63445" lon="1.67106">
        <ele>2044.38</ele>
        <time>2018-07-22T09:41:06Z</time>
      </trkpt>
      <trkpt lat="42.63444" lon="1.67096">
        <ele>2043.42</ele>
        <time>2018-07-22T09:41:13Z</time>
      </trkpt>
      <trkpt lat="42.63444" lon="1.67095">
        <ele>2042.94</ele>
        <time>2018-07-22T09:41:14Z</time>
      </trkpt>
      <trkpt lat="42.63442" lon="1.67083">
        <ele>2041.5</ele>
        <time>2018-07-22T09:41:22Z</time>
      </trkpt>
      <trkpt lat="42.6344" lon="1.67073">
        <ele>2040.05</ele>
        <time>2018-07-22T09:41:31Z</time>
      </trkpt>
      <trkpt lat="42.63439" lon="1.67063">
        <ele>2041.02</ele>
        <time>2018-07-22T09:41:38Z</time>
      </trkpt>
      <trkpt lat="42.63438" lon="1.6706">
        <ele>2041.5</ele>
        <time>2018-07-22T09:41:41Z</time>
      </trkpt>
      <trkpt lat="42.63437" lon="1.67048">
        <ele>2041.02</ele>
        <time>2018-07-22T09:41:49Z</time>
      </trkpt>
      <trkpt lat="42.63435" lon="1.67037">
        <ele>2040.54</ele>
        <time>2018-07-22T09:41:57Z</time>
      </trkpt>
      <trkpt lat="42.63432" lon="1.67026">
        <ele>2039.57</ele>
        <time>2018-07-22T09:42:05Z</time>
      </trkpt>
      <trkpt lat="42.6343" lon="1.67018">
        <ele>2040.05</ele>
        <time>2018-07-22T09:42:11Z</time>
      </trkpt>
      <trkpt lat="42.63428" lon="1.67009">
        <ele>2041.98</ele>
        <time>2018-07-22T09:42:20Z</time>
      </trkpt>
      <trkpt lat="42.63426" lon="1.67004">
        <ele>2043.9</ele>
        <time>2018-07-22T09:42:26Z</time>
      </trkpt>
      <trkpt lat="42.63424" lon="1.67002">
        <ele>2045.34</ele>
        <time>2018-07-22T09:42:29Z</time>
      </trkpt>
      <trkpt lat="42.6342" lon="1.66995">
        <ele>2047.75</ele>
        <time>2018-07-22T09:42:37Z</time>
      </trkpt>
      <trkpt lat="42.6342" lon="1.66994">
        <ele>2047.75</ele>
        <time>2018-07-22T09:42:38Z</time>
      </trkpt>
      <trkpt lat="42.63419" lon="1.66989">
        <ele>2047.75</ele>
        <time>2018-07-22T09:42:41Z</time>
      </trkpt>
      <trkpt lat="42.63416" lon="1.66979">
        <ele>2047.26</ele>
        <time>2018-07-22T09:42:50Z</time>
      </trkpt>
      <trkpt lat="42.6341" lon="1.66973">
        <ele>2049.67</ele>
        <time>2018-07-22T09:42:59Z</time>
      </trkpt>
      <trkpt lat="42.63409" lon="1.66968">
        <ele>2050.15</ele>
        <time>2018-07-22T09:43:05Z</time>
      </trkpt>
      <trkpt lat="42.63407" lon="1.66963">
        <ele>2051.11</ele>
        <time>2018-07-22T09:43:11Z</time>
      </trkpt>
      <trkpt lat="42.63404" lon="1.66957">
        <ele>2052.55</ele>
        <time>2018-07-22T09:43:19Z</time>
      </trkpt>
      <trkpt lat="42.63401" lon="1.66952">
        <ele>2051.11</ele>
        <time>2018-07-22T09:43:27Z</time>
      </trkpt>
      <trkpt lat="42.63401" lon="1.66945">
        <ele>2048.71</ele>
        <time>2018-07-22T09:43:34Z</time>
      </trkpt>
      <trkpt lat="42.63399" lon="1.66939">
        <ele>2049.67</ele>
        <time>2018-07-22T09:43:40Z</time>
      </trkpt>
      <trkpt lat="42.63397" lon="1.66935">
        <ele>2049.67</ele>
        <time>2018-07-22T09:43:46Z</time>
      </trkpt>
      <trkpt lat="42.63393" lon="1.66928">
        <ele>2050.63</ele>
        <time>2018-07-22T09:43:53Z</time>
      </trkpt>
      <trkpt lat="42.63388" lon="1.66922">
        <ele>2053.99</ele>
        <time>2018-07-22T09:44:01Z</time>
      </trkpt>
      <trkpt lat="42.63386" lon="1.66917">
        <ele>2054.96</ele>
        <time>2018-07-22T09:44:07Z</time>
      </trkpt>
      <trkpt lat="42.63385" lon="1.66909">
        <ele>2055.92</ele>
        <time>2018-07-22T09:44:14Z</time>
      </trkpt>
      <trkpt lat="42.63383" lon="1.66902">
        <ele>2057.36</ele>
        <time>2018-07-22T09:44:22Z</time>
      </trkpt>
      <trkpt lat="42.63383" lon="1.66892">
        <ele>2058.32</ele>
        <time>2018-07-22T09:44:30Z</time>
      </trkpt>
      <trkpt lat="42.63379" lon="1.66885">
        <ele>2059.28</ele>
        <time>2018-07-22T09:44:38Z</time>
      </trkpt>
      <trkpt lat="42.63379" lon="1.66878">
        <ele>2058.8</ele>
        <time>2018-07-22T09:44:47Z</time>
      </trkpt>
      <trkpt lat="42.63375" lon="1.66875">
        <ele>2060.72</ele>
        <time>2018-07-22T09:44:56Z</time>
      </trkpt>
      <trkpt lat="42.63375" lon="1.6687">
        <ele>2059.28</ele>
        <time>2018-07-22T09:45:02Z</time>
      </trkpt>
      <trkpt lat="42.63373" lon="1.66863">
        <ele>2059.76</ele>
        <time>2018-07-22T09:45:10Z</time>
      </trkpt>
      <trkpt lat="42.63372" lon="1.6686">
        <ele>2060.24</ele>
        <time>2018-07-22T09:45:18Z</time>
      </trkpt>
      <trkpt lat="42.63373" lon="1.66852">
        <ele>2061.2</ele>
        <time>2018-07-22T09:45:25Z</time>
      </trkpt>
      <trkpt lat="42.63371" lon="1.66849">
        <ele>2061.2</ele>
        <time>2018-07-22T09:45:30Z</time>
      </trkpt>
      <trkpt lat="42.63368" lon="1.66849">
        <ele>2062.65</ele>
        <time>2018-07-22T09:45:35Z</time>
      </trkpt>
      <trkpt lat="42.63366" lon="1.66843">
        <ele>2062.65</ele>
        <time>2018-07-22T09:45:42Z</time>
      </trkpt>
      <trkpt lat="42.63365" lon="1.66836">
        <ele>2064.09</ele>
        <time>2018-07-22T09:45:48Z</time>
      </trkpt>
      <trkpt lat="42.63362" lon="1.6683">
        <ele>2062.17</ele>
        <time>2018-07-22T09:45:55Z</time>
      </trkpt>
      <trkpt lat="42.63362" lon="1.66821">
        <ele>2061.68</ele>
        <time>2018-07-22T09:46:02Z</time>
      </trkpt>
      <trkpt lat="42.6336" lon="1.66814">
        <ele>2063.13</ele>
        <time>2018-07-22T09:46:10Z</time>
      </trkpt>
      <trkpt lat="42.63358" lon="1.66808">
        <ele>2061.68</ele>
        <time>2018-07-22T09:46:17Z</time>
      </trkpt>
      <trkpt lat="42.63356" lon="1.668">
        <ele>2063.61</ele>
        <time>2018-07-22T09:46:24Z</time>
      </trkpt>
      <trkpt lat="42.63353" lon="1.66795">
        <ele>2065.53</ele>
        <time>2018-07-22T09:46:31Z</time>
      </trkpt>
      <trkpt lat="42.63349" lon="1.66789">
        <ele>2065.05</ele>
        <time>2018-07-22T09:46:38Z</time>
      </trkpt>
      <trkpt lat="42.63348" lon="1.66782">
        <ele>2064.57</ele>
        <time>2018-07-22T09:46:45Z</time>
      </trkpt>
      <trkpt lat="42.63345" lon="1.66773">
        <ele>2066.97</ele>
        <time>2018-07-22T09:46:52Z</time>
      </trkpt>
      <trkpt lat="42.63345" lon="1.66766">
        <ele>2067.45</ele>
        <time>2018-07-22T09:46:59Z</time>
      </trkpt>
      <trkpt lat="42.63342" lon="1.66755">
        <ele>2064.57</ele>
        <time>2018-07-22T09:47:09Z</time>
      </trkpt>
      <trkpt lat="42.6334" lon="1.66745">
        <ele>2062.17</ele>
        <time>2018-07-22T09:47:16Z</time>
      </trkpt>
      <trkpt lat="42.63337" lon="1.6674">
        <ele>2064.09</ele>
        <time>2018-07-22T09:47:24Z</time>
      </trkpt>
      <trkpt lat="42.63336" lon="1.66737">
        <ele>2064.57</ele>
        <time>2018-07-22T09:47:31Z</time>
      </trkpt>
      <trkpt lat="42.63333" lon="1.66729">
        <ele>2066.97</ele>
        <time>2018-07-22T09:47:39Z</time>
      </trkpt>
      <trkpt lat="42.63331" lon="1.66723">
        <ele>2070.34</ele>
        <time>2018-07-22T09:47:48Z</time>
      </trkpt>
      <trkpt lat="42.63332" lon="1.66717">
        <ele>2072.26</ele>
        <time>2018-07-22T09:47:55Z</time>
      </trkpt>
      <trkpt lat="42.63333" lon="1.66709">
        <ele>2071.3</ele>
        <time>2018-07-22T09:48:04Z</time>
      </trkpt>
      <trkpt lat="42.63332" lon="1.66703">
        <ele>2069.86</ele>
        <time>2018-07-22T09:48:12Z</time>
      </trkpt>
      <trkpt lat="42.63334" lon="1.66692">
        <ele>2070.82</ele>
        <time>2018-07-22T09:48:21Z</time>
      </trkpt>
      <trkpt lat="42.63333" lon="1.6669">
        <ele>2069.86</ele>
        <time>2018-07-22T09:48:29Z</time>
      </trkpt>
      <trkpt lat="42.63333" lon="1.66685">
        <ele>2068.89</ele>
        <time>2018-07-22T09:48:43Z</time>
      </trkpt>
      <trkpt lat="42.63331" lon="1.66675">
        <ele>2068.89</ele>
        <time>2018-07-22T09:48:49Z</time>
      </trkpt>
      <trkpt lat="42.63331" lon="1.66673">
        <ele>2068.89</ele>
        <time>2018-07-22T09:48:50Z</time>
      </trkpt>
      <trkpt lat="42.6333" lon="1.66665">
        <ele>2069.86</ele>
        <time>2018-07-22T09:48:57Z</time>
      </trkpt>
      <trkpt lat="42.6333" lon="1.66656">
        <ele>2070.34</ele>
        <time>2018-07-22T09:49:06Z</time>
      </trkpt>
      <trkpt lat="42.6333" lon="1.6665">
        <ele>2071.78</ele>
        <time>2018-07-22T09:49:13Z</time>
      </trkpt>
      <trkpt lat="42.63333" lon="1.66642">
        <ele>2072.74</ele>
        <time>2018-07-22T09:49:20Z</time>
      </trkpt>
      <trkpt lat="42.63332" lon="1.66636">
        <ele>2074.18</ele>
        <time>2018-07-22T09:49:27Z</time>
      </trkpt>
      <trkpt lat="42.63332" lon="1.6663">
        <ele>2075.62</ele>
        <time>2018-07-22T09:49:33Z</time>
      </trkpt>
      <trkpt lat="42.6333" lon="1.66623">
        <ele>2077.07</ele>
        <time>2018-07-22T09:49:40Z</time>
      </trkpt>
      <trkpt lat="42.63326" lon="1.66616">
        <ele>2079.47</ele>
        <time>2018-07-22T09:49:46Z</time>
      </trkpt>
      <trkpt lat="42.63324" lon="1.66606">
        <ele>2079.47</ele>
        <time>2018-07-22T09:49:54Z</time>
      </trkpt>
      <trkpt lat="42.63318" lon="1.66597">
        <ele>2081.87</ele>
        <time>2018-07-22T09:50:01Z</time>
      </trkpt>
      <trkpt lat="42.63316" lon="1.66592">
        <ele>2081.87</ele>
        <time>2018-07-22T09:50:09Z</time>
      </trkpt>
      <trkpt lat="42.63316" lon="1.66586">
        <ele>2081.87</ele>
        <time>2018-07-22T09:50:15Z</time>
      </trkpt>
      <trkpt lat="42.63316" lon="1.66587">
        <ele>2080.91</ele>
        <time>2018-07-22T09:50:22Z</time>
      </trkpt>
      <trkpt lat="42.63315" lon="1.66584">
        <ele>2081.87</ele>
        <time>2018-07-22T09:50:33Z</time>
      </trkpt>
      <trkpt lat="42.6331" lon="1.66573">
        <ele>2080.91</ele>
        <time>2018-07-22T09:50:42Z</time>
      </trkpt>
      <trkpt lat="42.63306" lon="1.66564">
        <ele>2080.43</ele>
        <time>2018-07-22T09:50:50Z</time>
      </trkpt>
      <trkpt lat="42.63304" lon="1.6656">
        <ele>2080.43</ele>
        <time>2018-07-22T09:50:56Z</time>
      </trkpt>
      <trkpt lat="42.63304" lon="1.66562">
        <ele>2079.95</ele>
        <time>2018-07-22T09:51:03Z</time>
      </trkpt>
      <trkpt lat="42.63301" lon="1.66561">
        <ele>2079.95</ele>
        <time>2018-07-22T09:51:08Z</time>
      </trkpt>
      <trkpt lat="42.63298" lon="1.66565">
        <ele>2080.43</ele>
        <time>2018-07-22T09:51:18Z</time>
      </trkpt>
      <trkpt lat="42.63301" lon="1.6656">
        <ele>2078.03</ele>
        <time>2018-07-22T09:51:33Z</time>
      </trkpt>
      <trkpt lat="42.63303" lon="1.66562">
        <ele>2078.03</ele>
        <time>2018-07-22T09:51:49Z</time>
      </trkpt>
      <trkpt lat="42.63303" lon="1.66562">
        <ele>2076.59</ele>
        <time>2018-07-22T09:52:03Z</time>
      </trkpt>
      <trkpt lat="42.63303" lon="1.66563">
        <ele>2077.55</ele>
        <time>2018-07-22T09:52:15Z</time>
      </trkpt>
      <trkpt lat="42.63302" lon="1.66556">
        <ele>2075.62</ele>
        <time>2018-07-22T09:52:22Z</time>
      </trkpt>
      <trkpt lat="42.63303" lon="1.66547">
        <ele>2075.62</ele>
        <time>2018-07-22T09:52:30Z</time>
      </trkpt>
      <trkpt lat="42.63304" lon="1.66539">
        <ele>2077.07</ele>
        <time>2018-07-22T09:52:37Z</time>
      </trkpt>
      <trkpt lat="42.63303" lon="1.66536">
        <ele>2077.55</ele>
        <time>2018-07-22T09:52:45Z</time>
      </trkpt>
      <trkpt lat="42.63305" lon="1.66528">
        <ele>2078.03</ele>
        <time>2018-07-22T09:52:54Z</time>
      </trkpt>
      <trkpt lat="42.63308" lon="1.66522">
        <ele>2079.47</ele>
        <time>2018-07-22T09:53:02Z</time>
      </trkpt>
      <trkpt lat="42.63306" lon="1.66514">
        <ele>2082.83</ele>
        <time>2018-07-22T09:53:11Z</time>
      </trkpt>
      <trkpt lat="42.63307" lon="1.66509">
        <ele>2084.76</ele>
        <time>2018-07-22T09:53:20Z</time>
      </trkpt>
      <trkpt lat="42.63307" lon="1.66503">
        <ele>2087.16</ele>
        <time>2018-07-22T09:53:30Z</time>
      </trkpt>
      <trkpt lat="42.63307" lon="1.66497">
        <ele>2089.08</ele>
        <time>2018-07-22T09:53:40Z</time>
      </trkpt>
      <trkpt lat="42.63307" lon="1.66491">
        <ele>2090.52</ele>
        <time>2018-07-22T09:53:49Z</time>
      </trkpt>
      <trkpt lat="42.63305" lon="1.66487">
        <ele>2091.97</ele>
        <time>2018-07-22T09:53:57Z</time>
      </trkpt>
      <trkpt lat="42.63307" lon="1.66485">
        <ele>2093.41</ele>
        <time>2018-07-22T09:54:06Z</time>
      </trkpt>
      <trkpt lat="42.63306" lon="1.66488">
        <ele>2097.73</ele>
        <time>2018-07-22T09:54:18Z</time>
      </trkpt>
      <trkpt lat="42.63311" lon="1.66486">
        <ele>2098.7</ele>
        <time>2018-07-22T09:54:26Z</time>
      </trkpt>
      <trkpt lat="42.63313" lon="1.66487">
        <ele>2102.54</ele>
        <time>2018-07-22T09:54:37Z</time>
      </trkpt>
      <trkpt lat="42.63316" lon="1.6649">
        <ele>2103.98</ele>
        <time>2018-07-22T09:54:51Z</time>
      </trkpt>
      <trkpt lat="42.63318" lon="1.66483">
        <ele>2105.42</ele>
        <time>2018-07-22T09:54:58Z</time>
      </trkpt>
      <trkpt lat="42.63319" lon="1.66482">
        <ele>2104.94</ele>
        <time>2018-07-22T09:55:03Z</time>
      </trkpt>
      <trkpt lat="42.6332" lon="1.66482">
        <ele>2104.94</ele>
        <time>2018-07-22T09:55:04Z</time>
      </trkpt>
      <trkpt lat="42.63322" lon="1.66485">
        <ele>2106.87</ele>
        <time>2018-07-22T09:55:12Z</time>
      </trkpt>
      <trkpt lat="42.63328" lon="1.66489">
        <ele>2110.71</ele>
        <time>2018-07-22T09:55:21Z</time>
      </trkpt>
      <trkpt lat="42.6333" lon="1.66489">
        <ele>2112.15</ele>
        <time>2018-07-22T09:55:28Z</time>
      </trkpt>
      <trkpt lat="42.63335" lon="1.66491">
        <ele>2113.12</ele>
        <time>2018-07-22T09:55:36Z</time>
      </trkpt>
      <trkpt lat="42.63339" lon="1.66492">
        <ele>2113.6</ele>
        <time>2018-07-22T09:55:43Z</time>
      </trkpt>
      <trkpt lat="42.63343" lon="1.66492">
        <ele>2115.04</ele>
        <time>2018-07-22T09:55:50Z</time>
      </trkpt>
      <trkpt lat="42.63346" lon="1.66494">
        <ele>2116</ele>
        <time>2018-07-22T09:55:56Z</time>
      </trkpt>
      <trkpt lat="42.63349" lon="1.66493">
        <ele>2118.4</ele>
        <time>2018-07-22T09:56:03Z</time>
      </trkpt>
      <trkpt lat="42.63351" lon="1.66498">
        <ele>2115.52</ele>
        <time>2018-07-22T09:56:12Z</time>
      </trkpt>
      <trkpt lat="42.63355" lon="1.665">
        <ele>2115.52</ele>
        <time>2018-07-22T09:56:22Z</time>
      </trkpt>
      <trkpt lat="42.63359" lon="1.66505">
        <ele>2116.96</ele>
        <time>2018-07-22T09:56:31Z</time>
      </trkpt>
      <trkpt lat="42.6336" lon="1.665">
        <ele>2118.88</ele>
        <time>2018-07-22T09:56:42Z</time>
      </trkpt>
      <trkpt lat="42.63365" lon="1.66503">
        <ele>2120.32</ele>
        <time>2018-07-22T09:56:49Z</time>
      </trkpt>
      <trkpt lat="42.63368" lon="1.66504">
        <ele>2120.81</ele>
        <time>2018-07-22T09:56:56Z</time>
      </trkpt>
      <trkpt lat="42.63373" lon="1.66507">
        <ele>2121.77</ele>
        <time>2018-07-22T09:57:04Z</time>
      </trkpt>
      <trkpt lat="42.63376" lon="1.66511">
        <ele>2124.65</ele>
        <time>2018-07-22T09:57:12Z</time>
      </trkpt>
      <trkpt lat="42.63381" lon="1.66516">
        <ele>2128.02</ele>
        <time>2018-07-22T09:57:22Z</time>
      </trkpt>
      <trkpt lat="42.63385" lon="1.66522">
        <ele>2131.38</ele>
        <time>2018-07-22T09:57:33Z</time>
      </trkpt>
      <trkpt lat="42.6339" lon="1.66519">
        <ele>2130.9</ele>
        <time>2018-07-22T09:57:40Z</time>
      </trkpt>
      <trkpt lat="42.63388" lon="1.66519">
        <ele>2131.86</ele>
        <time>2018-07-22T09:57:55Z</time>
      </trkpt>
      <trkpt lat="42.63393" lon="1.66524">
        <ele>2130.9</ele>
        <time>2018-07-22T09:58:04Z</time>
      </trkpt>
      <trkpt lat="42.63396" lon="1.66527">
        <ele>2128.02</ele>
        <time>2018-07-22T09:58:13Z</time>
      </trkpt>
      <trkpt lat="42.63401" lon="1.66527">
        <ele>2128.02</ele>
        <time>2018-07-22T09:58:28Z</time>
      </trkpt>
      <trkpt lat="42.63403" lon="1.66528">
        <ele>2129.46</ele>
        <time>2018-07-22T09:58:38Z</time>
      </trkpt>
      <trkpt lat="42.63396" lon="1.66533">
        <ele>2128.98</ele>
        <time>2018-07-22T09:58:52Z</time>
      </trkpt>
      <trkpt lat="42.63399" lon="1.66534">
        <ele>2129.46</ele>
        <time>2018-07-22T09:58:59Z</time>
      </trkpt>
      <trkpt lat="42.63402" lon="1.66538">
        <ele>2129.94</ele>
        <time>2018-07-22T09:59:05Z</time>
      </trkpt>
      <trkpt lat="42.63405" lon="1.66542">
        <ele>2129.46</ele>
        <time>2018-07-22T09:59:11Z</time>
      </trkpt>
      <trkpt lat="42.63402" lon="1.66539">
        <ele>2131.38</ele>
        <time>2018-07-22T09:59:20Z</time>
      </trkpt>
      <trkpt lat="42.63401" lon="1.6654">
        <ele>2130.9</ele>
        <time>2018-07-22T09:59:33Z</time>
      </trkpt>
      <trkpt lat="42.63402" lon="1.66542">
        <ele>2132.82</ele>
        <time>2018-07-22T09:59:43Z</time>
      </trkpt>
      <trkpt lat="42.63399" lon="1.66537">
        <ele>2133.78</ele>
        <time>2018-07-22T09:59:51Z</time>
      </trkpt>
      <trkpt lat="42.63399" lon="1.66538">
        <ele>2133.78</ele>
        <time>2018-07-22T10:00:09Z</time>
      </trkpt>
      <trkpt lat="42.63397" lon="1.66536">
        <ele>2133.78</ele>
        <time>2018-07-22T10:00:17Z</time>
      </trkpt>
      <trkpt lat="42.63396" lon="1.66536">
        <ele>2134.74</ele>
        <time>2018-07-22T10:00:23Z</time>
      </trkpt>
      <trkpt lat="42.63397" lon="1.66538">
        <ele>2134.74</ele>
        <time>2018-07-22T10:00:25Z</time>
      </trkpt>
      <trkpt lat="42.63395" lon="1.66536">
        <ele>2133.78</ele>
        <time>2018-07-22T10:00:31Z</time>
      </trkpt>
      <trkpt lat="42.63395" lon="1.66534">
        <ele>2133.3</ele>
        <time>2018-07-22T10:00:41Z</time>
      </trkpt>
      <trkpt lat="42.63398" lon="1.66534">
        <ele>2135.23</ele>
        <time>2018-07-22T10:00:48Z</time>
      </trkpt>
      <trkpt lat="42.63399" lon="1.66534">
        <ele>2134.74</ele>
        <time>2018-07-22T10:00:53Z</time>
      </trkpt>
      <trkpt lat="42.63401" lon="1.66534">
        <ele>2134.26</ele>
        <time>2018-07-22T10:00:58Z</time>
      </trkpt>
      <trkpt lat="42.634" lon="1.66537">
        <ele>2134.74</ele>
        <time>2018-07-22T10:01:07Z</time>
      </trkpt>
      <trkpt lat="42.634" lon="1.66535">
        <ele>2136.67</ele>
        <time>2018-07-22T10:01:17Z</time>
      </trkpt>
      <trkpt lat="42.63396" lon="1.66533">
        <ele>2139.55</ele>
        <time>2018-07-22T10:01:27Z</time>
      </trkpt>
      <trkpt lat="42.63397" lon="1.66534">
        <ele>2141.47</ele>
        <time>2018-07-22T10:01:38Z</time>
      </trkpt>
      <trkpt lat="42.63399" lon="1.66536">
        <ele>2142.44</ele>
        <time>2018-07-22T10:01:52Z</time>
      </trkpt>
      <trkpt lat="42.63395" lon="1.66536">
        <ele>2141.95</ele>
        <time>2018-07-22T10:02:07Z</time>
      </trkpt>
      <trkpt lat="42.63395" lon="1.66537">
        <ele>2142.44</ele>
        <time>2018-07-22T10:02:24Z</time>
      </trkpt>
      <trkpt lat="42.63392" lon="1.66542">
        <ele>2142.44</ele>
        <time>2018-07-22T10:02:41Z</time>
      </trkpt>
      <trkpt lat="42.63396" lon="1.66534">
        <ele>2141.95</ele>
        <time>2018-07-22T10:02:55Z</time>
      </trkpt>
      <trkpt lat="42.63397" lon="1.66538">
        <ele>2141.47</ele>
        <time>2018-07-22T10:03:13Z</time>
      </trkpt>
      <trkpt lat="42.63404" lon="1.66543">
        <ele>2140.51</ele>
        <time>2018-07-22T10:03:20Z</time>
      </trkpt>
      <trkpt lat="42.63403" lon="1.66546">
        <ele>2140.99</ele>
        <time>2018-07-22T10:03:27Z</time>
      </trkpt>
      <trkpt lat="42.63404" lon="1.66545">
        <ele>2141.95</ele>
        <time>2018-07-22T10:03:34Z</time>
      </trkpt>
      <trkpt lat="42.63406" lon="1.66549">
        <ele>2139.07</ele>
        <time>2018-07-22T10:03:44Z</time>
      </trkpt>
      <trkpt lat="42.6341" lon="1.66556">
        <ele>2140.03</ele>
        <time>2018-07-22T10:03:52Z</time>
      </trkpt>
      <trkpt lat="42.63415" lon="1.66559">
        <ele>2140.03</ele>
        <time>2018-07-22T10:04:01Z</time>
      </trkpt>
      <trkpt lat="42.63418" lon="1.66563">
        <ele>2140.51</ele>
        <time>2018-07-22T10:04:08Z</time>
      </trkpt>
      <trkpt lat="42.63423" lon="1.66569">
        <ele>2141.95</ele>
        <time>2018-07-22T10:04:14Z</time>
      </trkpt>
      <trkpt lat="42.63425" lon="1.66571">
        <ele>2141.47</ele>
        <time>2018-07-22T10:04:18Z</time>
      </trkpt>
      <trkpt lat="42.63429" lon="1.66577">
        <ele>2141.47</ele>
        <time>2018-07-22T10:04:25Z</time>
      </trkpt>
      <trkpt lat="42.6343" lon="1.66582">
        <ele>2140.03</ele>
        <time>2018-07-22T10:04:33Z</time>
      </trkpt>
      <trkpt lat="42.63434" lon="1.66583">
        <ele>2140.51</ele>
        <time>2018-07-22T10:04:41Z</time>
      </trkpt>
      <trkpt lat="42.63437" lon="1.66587">
        <ele>2141.95</ele>
        <time>2018-07-22T10:04:48Z</time>
      </trkpt>
      <trkpt lat="42.63437" lon="1.66592">
        <ele>2142.92</ele>
        <time>2018-07-22T10:04:56Z</time>
      </trkpt>
      <trkpt lat="42.63439" lon="1.66595">
        <ele>2144.36</ele>
        <time>2018-07-22T10:05:06Z</time>
      </trkpt>
      <trkpt lat="42.63441" lon="1.666">
        <ele>2148.2</ele>
        <time>2018-07-22T10:05:14Z</time>
      </trkpt>
      <trkpt lat="42.63442" lon="1.66604">
        <ele>2149.16</ele>
        <time>2018-07-22T10:05:18Z</time>
      </trkpt>
      <trkpt lat="42.63445" lon="1.66611">
        <ele>2150.61</ele>
        <time>2018-07-22T10:05:26Z</time>
      </trkpt>
      <trkpt lat="42.63448" lon="1.66603">
        <ele>2149.65</ele>
        <time>2018-07-22T10:05:36Z</time>
      </trkpt>
      <trkpt lat="42.63447" lon="1.66602">
        <ele>2151.57</ele>
        <time>2018-07-22T10:05:57Z</time>
      </trkpt>
      <trkpt lat="42.63443" lon="1.66612">
        <ele>2149.65</ele>
        <time>2018-07-22T10:06:11Z</time>
      </trkpt>
      <trkpt lat="42.63445" lon="1.66612">
        <ele>2152.05</ele>
        <time>2018-07-22T10:06:18Z</time>
      </trkpt>
      <trkpt lat="42.63446" lon="1.66615">
        <ele>2150.61</ele>
        <time>2018-07-22T10:06:26Z</time>
      </trkpt>
      <trkpt lat="42.63445" lon="1.66611">
        <ele>2148.2</ele>
        <time>2018-07-22T10:06:33Z</time>
      </trkpt>
      <trkpt lat="42.63447" lon="1.66615">
        <ele>2148.2</ele>
        <time>2018-07-22T10:06:39Z</time>
      </trkpt>
      <trkpt lat="42.63449" lon="1.66622">
        <ele>2147.72</ele>
        <time>2018-07-22T10:06:47Z</time>
      </trkpt>
      <trkpt lat="42.63452" lon="1.66627">
        <ele>2146.76</ele>
        <time>2018-07-22T10:06:55Z</time>
      </trkpt>
      <trkpt lat="42.63455" lon="1.6663">
        <ele>2145.8</ele>
        <time>2018-07-22T10:07:02Z</time>
      </trkpt>
      <trkpt lat="42.63455" lon="1.66626">
        <ele>2146.28</ele>
        <time>2018-07-22T10:07:09Z</time>
      </trkpt>
      <trkpt lat="42.63455" lon="1.66629">
        <ele>2147.24</ele>
        <time>2018-07-22T10:07:22Z</time>
      </trkpt>
      <trkpt lat="42.63458" lon="1.66635">
        <ele>2148.2</ele>
        <time>2018-07-22T10:07:31Z</time>
      </trkpt>
      <trkpt lat="42.63459" lon="1.66644">
        <ele>2147.24</ele>
        <time>2018-07-22T10:07:39Z</time>
      </trkpt>
      <trkpt lat="42.63458" lon="1.66652">
        <ele>2147.72</ele>
        <time>2018-07-22T10:07:47Z</time>
      </trkpt>
      <trkpt lat="42.63459" lon="1.66655">
        <ele>2149.16</ele>
        <time>2018-07-22T10:07:53Z</time>
      </trkpt>
      <trkpt lat="42.63461" lon="1.66659">
        <ele>2151.57</ele>
        <time>2018-07-22T10:08:01Z</time>
      </trkpt>
      <trkpt lat="42.63461" lon="1.66661">
        <ele>2151.09</ele>
        <time>2018-07-22T10:08:08Z</time>
      </trkpt>
      <trkpt lat="42.63463" lon="1.6666">
        <ele>2152.05</ele>
        <time>2018-07-22T10:08:19Z</time>
      </trkpt>
      <trkpt lat="42.6346" lon="1.66657">
        <ele>2151.09</ele>
        <time>2018-07-22T10:08:32Z</time>
      </trkpt>
      <trkpt lat="42.63461" lon="1.66662">
        <ele>2150.61</ele>
        <time>2018-07-22T10:08:40Z</time>
      </trkpt>
      <trkpt lat="42.63464" lon="1.66667">
        <ele>2150.13</ele>
        <time>2018-07-22T10:08:48Z</time>
      </trkpt>
      <trkpt lat="42.63467" lon="1.66675">
        <ele>2151.09</ele>
        <time>2018-07-22T10:08:57Z</time>
      </trkpt>
      <trkpt lat="42.63472" lon="1.66678">
        <ele>2151.57</ele>
        <time>2018-07-22T10:09:06Z</time>
      </trkpt>
      <trkpt lat="42.63474" lon="1.66684">
        <ele>2152.05</ele>
        <time>2018-07-22T10:09:13Z</time>
      </trkpt>
      <trkpt lat="42.63476" lon="1.6669">
        <ele>2152.05</ele>
        <time>2018-07-22T10:09:22Z</time>
      </trkpt>
      <trkpt lat="42.63478" lon="1.66693">
        <ele>2153.01</ele>
        <time>2018-07-22T10:09:29Z</time>
      </trkpt>
      <trkpt lat="42.63478" lon="1.66694">
        <ele>2153.01</ele>
        <time>2018-07-22T10:09:37Z</time>
      </trkpt>
      <trkpt lat="42.6348" lon="1.66689">
        <ele>2153.01</ele>
        <time>2018-07-22T10:09:46Z</time>
      </trkpt>
      <trkpt lat="42.63486" lon="1.66691">
        <ele>2155.89</ele>
        <time>2018-07-22T10:09:54Z</time>
      </trkpt>
      <trkpt lat="42.63485" lon="1.66703">
        <ele>2156.86</ele>
        <time>2018-07-22T10:10:00Z</time>
      </trkpt>
      <trkpt lat="42.63487" lon="1.66706">
        <ele>2157.82</ele>
        <time>2018-07-22T10:10:06Z</time>
      </trkpt>
      <trkpt lat="42.6349" lon="1.66712">
        <ele>2158.78</ele>
        <time>2018-07-22T10:10:12Z</time>
      </trkpt>
      <trkpt lat="42.63492" lon="1.66711">
        <ele>2159.26</ele>
        <time>2018-07-22T10:10:21Z</time>
      </trkpt>
      <trkpt lat="42.63495" lon="1.66713">
        <ele>2159.74</ele>
        <time>2018-07-22T10:10:30Z</time>
      </trkpt>
      <trkpt lat="42.63496" lon="1.66714">
        <ele>2159.74</ele>
        <time>2018-07-22T10:10:35Z</time>
      </trkpt>
      <trkpt lat="42.63497" lon="1.66719">
        <ele>2160.22</ele>
        <time>2018-07-22T10:10:44Z</time>
      </trkpt>
      <trkpt lat="42.635" lon="1.66725">
        <ele>2160.7</ele>
        <time>2018-07-22T10:10:53Z</time>
      </trkpt>
      <trkpt lat="42.63505" lon="1.66731">
        <ele>2160.22</ele>
        <time>2018-07-22T10:11:02Z</time>
      </trkpt>
      <trkpt lat="42.63507" lon="1.66735">
        <ele>2160.7</ele>
        <time>2018-07-22T10:11:10Z</time>
      </trkpt>
      <trkpt lat="42.63509" lon="1.66739">
        <ele>2163.1</ele>
        <time>2018-07-22T10:11:18Z</time>
      </trkpt>
      <trkpt lat="42.63511" lon="1.66738">
        <ele>2163.1</ele>
        <time>2018-07-22T10:11:26Z</time>
      </trkpt>
      <trkpt lat="42.63515" lon="1.66741">
        <ele>2163.1</ele>
        <time>2018-07-22T10:11:34Z</time>
      </trkpt>
      <trkpt lat="42.63519" lon="1.66744">
        <ele>2163.58</ele>
        <time>2018-07-22T10:11:41Z</time>
      </trkpt>
      <trkpt lat="42.63525" lon="1.66749">
        <ele>2165.03</ele>
        <time>2018-07-22T10:11:51Z</time>
      </trkpt>
      <trkpt lat="42.63528" lon="1.66749">
        <ele>2165.03</ele>
        <time>2018-07-22T10:11:58Z</time>
      </trkpt>
      <trkpt lat="42.63526" lon="1.66751">
        <ele>2163.58</ele>
        <time>2018-07-22T10:12:11Z</time>
      </trkpt>
      <trkpt lat="42.63531" lon="1.66753">
        <ele>2165.03</ele>
        <time>2018-07-22T10:12:19Z</time>
      </trkpt>
      <trkpt lat="42.63535" lon="1.66754">
        <ele>2165.51</ele>
        <time>2018-07-22T10:12:28Z</time>
      </trkpt>
      <trkpt lat="42.63533" lon="1.66759">
        <ele>2167.43</ele>
        <time>2018-07-22T10:12:39Z</time>
      </trkpt>
      <trkpt lat="42.63536" lon="1.66762">
        <ele>2167.43</ele>
        <time>2018-07-22T10:12:47Z</time>
      </trkpt>
      <trkpt lat="42.63543" lon="1.66761">
        <ele>2168.39</ele>
        <time>2018-07-22T10:12:56Z</time>
      </trkpt>
      <trkpt lat="42.63546" lon="1.66769">
        <ele>2170.79</ele>
        <time>2018-07-22T10:13:05Z</time>
      </trkpt>
      <trkpt lat="42.63548" lon="1.66769">
        <ele>2171.27</ele>
        <time>2018-07-22T10:13:14Z</time>
      </trkpt>
      <trkpt lat="42.63549" lon="1.66765">
        <ele>2171.27</ele>
        <time>2018-07-22T10:13:28Z</time>
      </trkpt>
      <trkpt lat="42.63555" lon="1.66757">
        <ele>2172.24</ele>
        <time>2018-07-22T10:13:39Z</time>
      </trkpt>
      <trkpt lat="42.63555" lon="1.66765">
        <ele>2174.64</ele>
        <time>2018-07-22T10:13:52Z</time>
      </trkpt>
      <trkpt lat="42.63551" lon="1.6677">
        <ele>2176.08</ele>
        <time>2018-07-22T10:14:06Z</time>
      </trkpt>
      <trkpt lat="42.63554" lon="1.66775">
        <ele>2177.04</ele>
        <time>2018-07-22T10:14:13Z</time>
      </trkpt>
      <trkpt lat="42.63559" lon="1.6678">
        <ele>2178</ele>
        <time>2018-07-22T10:14:23Z</time>
      </trkpt>
      <trkpt lat="42.6356" lon="1.66785">
        <ele>2178.48</ele>
        <time>2018-07-22T10:14:30Z</time>
      </trkpt>
      <trkpt lat="42.63564" lon="1.66791">
        <ele>2179.93</ele>
        <time>2018-07-22T10:14:39Z</time>
      </trkpt>
      <trkpt lat="42.63565" lon="1.66795">
        <ele>2179.93</ele>
        <time>2018-07-22T10:14:46Z</time>
      </trkpt>
      <trkpt lat="42.63568" lon="1.668">
        <ele>2179.93</ele>
        <time>2018-07-22T10:14:54Z</time>
      </trkpt>
      <trkpt lat="42.63573" lon="1.66805">
        <ele>2180.89</ele>
        <time>2018-07-22T10:15:03Z</time>
      </trkpt>
      <trkpt lat="42.63576" lon="1.66806">
        <ele>2181.37</ele>
        <time>2018-07-22T10:15:09Z</time>
      </trkpt>
      <trkpt lat="42.63576" lon="1.66812">
        <ele>2181.85</ele>
        <time>2018-07-22T10:15:16Z</time>
      </trkpt>
      <trkpt lat="42.63576" lon="1.66814">
        <ele>2181.85</ele>
        <time>2018-07-22T10:15:19Z</time>
      </trkpt>
      <trkpt lat="42.63578" lon="1.66815">
        <ele>2182.33</ele>
        <time>2018-07-22T10:15:26Z</time>
      </trkpt>
      <trkpt lat="42.63577" lon="1.66818">
        <ele>2182.33</ele>
        <time>2018-07-22T10:15:34Z</time>
      </trkpt>
      <trkpt lat="42.63578" lon="1.66822">
        <ele>2182.81</ele>
        <time>2018-07-22T10:15:42Z</time>
      </trkpt>
      <trkpt lat="42.6358" lon="1.66822">
        <ele>2183.77</ele>
        <time>2018-07-22T10:15:50Z</time>
      </trkpt>
      <trkpt lat="42.63581" lon="1.66828">
        <ele>2184.25</ele>
        <time>2018-07-22T10:15:55Z</time>
      </trkpt>
      <trkpt lat="42.63584" lon="1.66835">
        <ele>2184.25</ele>
        <time>2018-07-22T10:16:01Z</time>
      </trkpt>
      <trkpt lat="42.63585" lon="1.66838">
        <ele>2184.73</ele>
        <time>2018-07-22T10:16:07Z</time>
      </trkpt>
      <trkpt lat="42.63588" lon="1.66843">
        <ele>2185.21</ele>
        <time>2018-07-22T10:16:14Z</time>
      </trkpt>
      <trkpt lat="42.63589" lon="1.66845">
        <ele>2186.66</ele>
        <time>2018-07-22T10:16:20Z</time>
      </trkpt>
      <trkpt lat="42.63591" lon="1.66852">
        <ele>2187.14</ele>
        <time>2018-07-22T10:16:28Z</time>
      </trkpt>
      <trkpt lat="42.63593" lon="1.66857">
        <ele>2187.14</ele>
        <time>2018-07-22T10:16:36Z</time>
      </trkpt>
      <trkpt lat="42.63596" lon="1.66863">
        <ele>2187.62</ele>
        <time>2018-07-22T10:16:43Z</time>
      </trkpt>
      <trkpt lat="42.63595" lon="1.66867">
        <ele>2188.58</ele>
        <time>2018-07-22T10:16:53Z</time>
      </trkpt>
      <trkpt lat="42.63597" lon="1.66868">
        <ele>2189.06</ele>
        <time>2018-07-22T10:17:03Z</time>
      </trkpt>
      <trkpt lat="42.63596" lon="1.66873">
        <ele>2192.42</ele>
        <time>2018-07-22T10:17:12Z</time>
      </trkpt>
      <trkpt lat="42.63597" lon="1.6688">
        <ele>2193.87</ele>
        <time>2018-07-22T10:17:22Z</time>
      </trkpt>
      <trkpt lat="42.63597" lon="1.66884">
        <ele>2196.27</ele>
        <time>2018-07-22T10:17:31Z</time>
      </trkpt>
      <trkpt lat="42.63598" lon="1.66889">
        <ele>2197.71</ele>
        <time>2018-07-22T10:17:45Z</time>
      </trkpt>
      <trkpt lat="42.63598" lon="1.66893">
        <ele>2197.71</ele>
        <time>2018-07-22T10:17:52Z</time>
      </trkpt>
      <trkpt lat="42.63601" lon="1.66895">
        <ele>2198.67</ele>
        <time>2018-07-22T10:18:02Z</time>
      </trkpt>
      <trkpt lat="42.63602" lon="1.66896">
        <ele>2199.15</ele>
        <time>2018-07-22T10:18:11Z</time>
      </trkpt>
      <trkpt lat="42.63604" lon="1.669">
        <ele>2199.63</ele>
        <time>2018-07-22T10:18:21Z</time>
      </trkpt>
      <trkpt lat="42.6361" lon="1.66901">
        <ele>2200.11</ele>
        <time>2018-07-22T10:18:29Z</time>
      </trkpt>
      <trkpt lat="42.63611" lon="1.66902">
        <ele>2200.59</ele>
        <time>2018-07-22T10:18:34Z</time>
      </trkpt>
      <trkpt lat="42.63614" lon="1.66903">
        <ele>2201.08</ele>
        <time>2018-07-22T10:18:42Z</time>
      </trkpt>
      <trkpt lat="42.63618" lon="1.66904">
        <ele>2201.56</ele>
        <time>2018-07-22T10:18:50Z</time>
      </trkpt>
      <trkpt lat="42.63619" lon="1.66904">
        <ele>2201.56</ele>
        <time>2018-07-22T10:18:57Z</time>
      </trkpt>
      <trkpt lat="42.6362" lon="1.66906">
        <ele>2202.04</ele>
        <time>2018-07-22T10:19:04Z</time>
      </trkpt>
      <trkpt lat="42.63623" lon="1.66906">
        <ele>2202.52</ele>
        <time>2018-07-22T10:19:12Z</time>
      </trkpt>
      <trkpt lat="42.63624" lon="1.66909">
        <ele>2203</ele>
        <time>2018-07-22T10:19:20Z</time>
      </trkpt>
      <trkpt lat="42.63626" lon="1.66912">
        <ele>2203.48</ele>
        <time>2018-07-22T10:19:30Z</time>
      </trkpt>
      <trkpt lat="42.63627" lon="1.66915">
        <ele>2203.96</ele>
        <time>2018-07-22T10:19:38Z</time>
      </trkpt>
      <trkpt lat="42.6363" lon="1.66921">
        <ele>2203.96</ele>
        <time>2018-07-22T10:19:44Z</time>
      </trkpt>
      <trkpt lat="42.63633" lon="1.66924">
        <ele>2204.44</ele>
        <time>2018-07-22T10:19:50Z</time>
      </trkpt>
      <trkpt lat="42.63637" lon="1.66929">
        <ele>2204.92</ele>
        <time>2018-07-22T10:20:00Z</time>
      </trkpt>
      <trkpt lat="42.63616" lon="1.6698">
        <ele>2292.88</ele>
        <time>2018-07-22T10:20:08Z</time>
      </trkpt>
      <trkpt lat="42.63622" lon="1.66971">
        <ele>2279.42</ele>
        <time>2018-07-22T10:20:14Z</time>
      </trkpt>
      <trkpt lat="42.63627" lon="1.66973">
        <ele>2271.25</ele>
        <time>2018-07-22T10:20:21Z</time>
      </trkpt>
      <trkpt lat="42.63628" lon="1.66974">
        <ele>2269.33</ele>
        <time>2018-07-22T10:20:23Z</time>
      </trkpt>
      <trkpt lat="42.63635" lon="1.66979">
        <ele>2264.52</ele>
        <time>2018-07-22T10:20:32Z</time>
      </trkpt>
      <trkpt lat="42.63638" lon="1.6698">
        <ele>2262.12</ele>
        <time>2018-07-22T10:20:40Z</time>
      </trkpt>
      <trkpt lat="42.63642" lon="1.66982">
        <ele>2261.64</ele>
        <time>2018-07-22T10:20:46Z</time>
      </trkpt>
      <trkpt lat="42.63648" lon="1.66982">
        <ele>2259.72</ele>
        <time>2018-07-22T10:20:54Z</time>
      </trkpt>
      <trkpt lat="42.63653" lon="1.66987">
        <ele>2255.39</ele>
        <time>2018-07-22T10:21:02Z</time>
      </trkpt>
      <trkpt lat="42.63657" lon="1.66989">
        <ele>2252.51</ele>
        <time>2018-07-22T10:21:09Z</time>
      </trkpt>
      <trkpt lat="42.6366" lon="1.66989">
        <ele>2248.18</ele>
        <time>2018-07-22T10:21:16Z</time>
      </trkpt>
      <trkpt lat="42.63663" lon="1.6699">
        <ele>2247.22</ele>
        <time>2018-07-22T10:21:24Z</time>
      </trkpt>
      <trkpt lat="42.63669" lon="1.6699">
        <ele>2246.74</ele>
        <time>2018-07-22T10:21:33Z</time>
      </trkpt>
      <trkpt lat="42.63672" lon="1.6699">
        <ele>2245.78</ele>
        <time>2018-07-22T10:21:41Z</time>
      </trkpt>
      <trkpt lat="42.63675" lon="1.66992">
        <ele>2245.3</ele>
        <time>2018-07-22T10:21:50Z</time>
      </trkpt>
      <trkpt lat="42.63677" lon="1.66992">
        <ele>2243.37</ele>
        <time>2018-07-22T10:21:58Z</time>
      </trkpt>
      <trkpt lat="42.63679" lon="1.66993">
        <ele>2242.89</ele>
        <time>2018-07-22T10:22:07Z</time>
      </trkpt>
      <trkpt lat="42.6368" lon="1.66994">
        <ele>2242.41</ele>
        <time>2018-07-22T10:22:16Z</time>
      </trkpt>
      <trkpt lat="42.63684" lon="1.66994">
        <ele>2242.41</ele>
        <time>2018-07-22T10:22:23Z</time>
      </trkpt>
      <trkpt lat="42.63685" lon="1.66996">
        <ele>2242.41</ele>
        <time>2018-07-22T10:22:30Z</time>
      </trkpt>
      <trkpt lat="42.63688" lon="1.66997">
        <ele>2242.41</ele>
        <time>2018-07-22T10:22:42Z</time>
      </trkpt>
      <trkpt lat="42.63691" lon="1.67">
        <ele>2242.41</ele>
        <time>2018-07-22T10:22:50Z</time>
      </trkpt>
      <trkpt lat="42.63695" lon="1.67005">
        <ele>2242.41</ele>
        <time>2018-07-22T10:23:00Z</time>
      </trkpt>
      <trkpt lat="42.63699" lon="1.67008">
        <ele>2242.41</ele>
        <time>2018-07-22T10:23:08Z</time>
      </trkpt>
      <trkpt lat="42.63702" lon="1.6701">
        <ele>2242.41</ele>
        <time>2018-07-22T10:23:16Z</time>
      </trkpt>
      <trkpt lat="42.63705" lon="1.67011">
        <ele>2242.41</ele>
        <time>2018-07-22T10:23:22Z</time>
      </trkpt>
      <trkpt lat="42.63708" lon="1.67014">
        <ele>2242.41</ele>
        <time>2018-07-22T10:23:30Z</time>
      </trkpt>
      <trkpt lat="42.63711" lon="1.67015">
        <ele>2242.41</ele>
        <time>2018-07-22T10:23:36Z</time>
      </trkpt>
      <trkpt lat="42.63713" lon="1.67016">
        <ele>2242.41</ele>
        <time>2018-07-22T10:23:45Z</time>
      </trkpt>
      <trkpt lat="42.63714" lon="1.67018">
        <ele>2242.41</ele>
        <time>2018-07-22T10:23:53Z</time>
      </trkpt>
      <trkpt lat="42.63716" lon="1.6702">
        <ele>2242.41</ele>
        <time>2018-07-22T10:24:01Z</time>
      </trkpt>
      <trkpt lat="42.6372" lon="1.67023">
        <ele>2242.41</ele>
        <time>2018-07-22T10:24:08Z</time>
      </trkpt>
      <trkpt lat="42.63723" lon="1.67025">
        <ele>2242.41</ele>
        <time>2018-07-22T10:24:17Z</time>
      </trkpt>
      <trkpt lat="42.63725" lon="1.67026">
        <ele>2242.41</ele>
        <time>2018-07-22T10:24:24Z</time>
      </trkpt>
      <trkpt lat="42.63727" lon="1.67029">
        <ele>2242.89</ele>
        <time>2018-07-22T10:24:33Z</time>
      </trkpt>
      <trkpt lat="42.6373" lon="1.67032">
        <ele>2242.89</ele>
        <time>2018-07-22T10:24:38Z</time>
      </trkpt>
      <trkpt lat="42.63733" lon="1.67034">
        <ele>2243.37</ele>
        <time>2018-07-22T10:24:46Z</time>
      </trkpt>
      <trkpt lat="42.63736" lon="1.67037">
        <ele>2243.37</ele>
        <time>2018-07-22T10:24:55Z</time>
      </trkpt>
      <trkpt lat="42.63739" lon="1.67042">
        <ele>2243.37</ele>
        <time>2018-07-22T10:25:04Z</time>
      </trkpt>
      <trkpt lat="42.6374" lon="1.67046">
        <ele>2243.37</ele>
        <time>2018-07-22T10:25:11Z</time>
      </trkpt>
      <trkpt lat="42.63743" lon="1.6705">
        <ele>2243.85</ele>
        <time>2018-07-22T10:25:18Z</time>
      </trkpt>
      <trkpt lat="42.63743" lon="1.67053">
        <ele>2243.85</ele>
        <time>2018-07-22T10:25:26Z</time>
      </trkpt>
      <trkpt lat="42.63745" lon="1.67055">
        <ele>2244.33</ele>
        <time>2018-07-22T10:25:35Z</time>
      </trkpt>
      <trkpt lat="42.63747" lon="1.6706">
        <ele>2244.82</ele>
        <time>2018-07-22T10:25:44Z</time>
      </trkpt>
      <trkpt lat="42.63752" lon="1.67066">
        <ele>2245.3</ele>
        <time>2018-07-22T10:25:55Z</time>
      </trkpt>
      <trkpt lat="42.63756" lon="1.67071">
        <ele>2245.78</ele>
        <time>2018-07-22T10:26:03Z</time>
      </trkpt>
      <trkpt lat="42.63761" lon="1.67075">
        <ele>2246.26</ele>
        <time>2018-07-22T10:26:13Z</time>
      </trkpt>
      <trkpt lat="42.63766" lon="1.6708">
        <ele>2246.74</ele>
        <time>2018-07-22T10:26:23Z</time>
      </trkpt>
      <trkpt lat="42.6377" lon="1.67084">
        <ele>2247.22</ele>
        <time>2018-07-22T10:26:31Z</time>
      </trkpt>
      <trkpt lat="42.63775" lon="1.6709">
        <ele>2247.22</ele>
        <time>2018-07-22T10:26:40Z</time>
      </trkpt>
      <trkpt lat="42.63775" lon="1.67092">
        <ele>2248.18</ele>
        <time>2018-07-22T10:26:50Z</time>
      </trkpt>
      <trkpt lat="42.63777" lon="1.67094">
        <ele>2248.18</ele>
        <time>2018-07-22T10:26:58Z</time>
      </trkpt>
      <trkpt lat="42.63779" lon="1.67095">
        <ele>2248.66</ele>
        <time>2018-07-22T10:27:05Z</time>
      </trkpt>
      <trkpt lat="42.63781" lon="1.67098">
        <ele>2249.14</ele>
        <time>2018-07-22T10:27:17Z</time>
      </trkpt>
      <trkpt lat="42.63785" lon="1.67101">
        <ele>2249.62</ele>
        <time>2018-07-22T10:27:26Z</time>
      </trkpt>
      <trkpt lat="42.63787" lon="1.67107">
        <ele>2250.1</ele>
        <time>2018-07-22T10:27:37Z</time>
      </trkpt>
      <trkpt lat="42.6379" lon="1.67111">
        <ele>2251.06</ele>
        <time>2018-07-22T10:27:46Z</time>
      </trkpt>
      <trkpt lat="42.63791" lon="1.67113">
        <ele>2251.54</ele>
        <time>2018-07-22T10:27:56Z</time>
      </trkpt>
      <trkpt lat="42.63792" lon="1.67115">
        <ele>2252.51</ele>
        <time>2018-07-22T10:28:06Z</time>
      </trkpt>
      <trkpt lat="42.63795" lon="1.67122">
        <ele>2252.99</ele>
        <time>2018-07-22T10:28:17Z</time>
      </trkpt>
      <trkpt lat="42.63799" lon="1.67127">
        <ele>2253.95</ele>
        <time>2018-07-22T10:28:28Z</time>
      </trkpt>
      <trkpt lat="42.63801" lon="1.6713">
        <ele>2254.43</ele>
        <time>2018-07-22T10:28:38Z</time>
      </trkpt>
      <trkpt lat="42.63801" lon="1.67132">
        <ele>2254.91</ele>
        <time>2018-07-22T10:28:46Z</time>
      </trkpt>
      <trkpt lat="42.63804" lon="1.67136">
        <ele>2255.87</ele>
        <time>2018-07-22T10:28:54Z</time>
      </trkpt>
      <trkpt lat="42.63805" lon="1.67144">
        <ele>2263.56</ele>
        <time>2018-07-22T10:29:04Z</time>
      </trkpt>
      <trkpt lat="42.63805" lon="1.67147">
        <ele>2268.85</ele>
        <time>2018-07-22T10:29:17Z</time>
      </trkpt>
      <trkpt lat="42.63806" lon="1.67152">
        <ele>2272.21</ele>
        <time>2018-07-22T10:29:27Z</time>
      </trkpt>
      <trkpt lat="42.63807" lon="1.67158">
        <ele>2275.1</ele>
        <time>2018-07-22T10:29:37Z</time>
      </trkpt>
      <trkpt lat="42.6381" lon="1.67163">
        <ele>2278.46</ele>
        <time>2018-07-22T10:29:46Z</time>
      </trkpt>
      <trkpt lat="42.63812" lon="1.67168">
        <ele>2279.42</ele>
        <time>2018-07-22T10:29:56Z</time>
      </trkpt>
      <trkpt lat="42.63815" lon="1.67174">
        <ele>2280.87</ele>
        <time>2018-07-22T10:30:07Z</time>
      </trkpt>
      <trkpt lat="42.63817" lon="1.67179">
        <ele>2280.87</ele>
        <time>2018-07-22T10:30:15Z</time>
      </trkpt>
      <trkpt lat="42.6382" lon="1.67183">
        <ele>2280.87</ele>
        <time>2018-07-22T10:30:23Z</time>
      </trkpt>
      <trkpt lat="42.63824" lon="1.6719">
        <ele>2280.87</ele>
        <time>2018-07-22T10:30:31Z</time>
      </trkpt>
      <trkpt lat="42.63828" lon="1.67196">
        <ele>2280.87</ele>
        <time>2018-07-22T10:30:39Z</time>
      </trkpt>
      <trkpt lat="42.63834" lon="1.67202">
        <ele>2281.35</ele>
        <time>2018-07-22T10:30:49Z</time>
      </trkpt>
      <trkpt lat="42.6384" lon="1.67206">
        <ele>2281.35</ele>
        <time>2018-07-22T10:30:58Z</time>
      </trkpt>
      <trkpt lat="42.63845" lon="1.6721">
        <ele>2281.83</ele>
        <time>2018-07-22T10:31:07Z</time>
      </trkpt>
      <trkpt lat="42.63849" lon="1.67213">
        <ele>2282.31</ele>
        <time>2018-07-22T10:31:16Z</time>
      </trkpt>
      <trkpt lat="42.63854" lon="1.67217">
        <ele>2282.31</ele>
        <time>2018-07-22T10:31:24Z</time>
      </trkpt>
      <trkpt lat="42.63856" lon="1.67218">
        <ele>2282.31</ele>
        <time>2018-07-22T10:31:27Z</time>
      </trkpt>
      <trkpt lat="42.63858" lon="1.67219">
        <ele>2282.31</ele>
        <time>2018-07-22T10:31:34Z</time>
      </trkpt>
      <trkpt lat="42.63858" lon="1.67219">
        <ele>2282.79</ele>
        <time>2018-07-22T10:31:44Z</time>
      </trkpt>
      <trkpt lat="42.63859" lon="1.67221">
        <ele>2282.79</ele>
        <time>2018-07-22T10:31:54Z</time>
      </trkpt>
      <trkpt lat="42.6386" lon="1.67225">
        <ele>2283.27</ele>
        <time>2018-07-22T10:32:01Z</time>
      </trkpt>
      <trkpt lat="42.63862" lon="1.67228">
        <ele>2283.27</ele>
        <time>2018-07-22T10:32:07Z</time>
      </trkpt>
      <trkpt lat="42.63866" lon="1.67237">
        <ele>2284.23</ele>
        <time>2018-07-22T10:32:15Z</time>
      </trkpt>
      <trkpt lat="42.63869" lon="1.67244">
        <ele>2284.71</ele>
        <time>2018-07-22T10:32:21Z</time>
      </trkpt>
      <trkpt lat="42.63873" lon="1.67249">
        <ele>2284.71</ele>
        <time>2018-07-22T10:32:28Z</time>
      </trkpt>
      <trkpt lat="42.63877" lon="1.67254">
        <ele>2284.71</ele>
        <time>2018-07-22T10:32:35Z</time>
      </trkpt>
      <trkpt lat="42.63877" lon="1.67253">
        <ele>2285.19</ele>
        <time>2018-07-22T10:32:42Z</time>
      </trkpt>
      <trkpt lat="42.63876" lon="1.67253">
        <ele>2285.67</ele>
        <time>2018-07-22T10:32:56Z</time>
      </trkpt>
      <trkpt lat="42.63882" lon="1.6726">
        <ele>2285.67</ele>
        <time>2018-07-22T10:33:03Z</time>
      </trkpt>
      <trkpt lat="42.63886" lon="1.6727">
        <ele>2286.15</ele>
        <time>2018-07-22T10:33:12Z</time>
      </trkpt>
      <trkpt lat="42.6389" lon="1.67276">
        <ele>2286.15</ele>
        <time>2018-07-22T10:33:19Z</time>
      </trkpt>
      <trkpt lat="42.63895" lon="1.67283">
        <ele>2286.15</ele>
        <time>2018-07-22T10:33:27Z</time>
      </trkpt>
      <trkpt lat="42.63897" lon="1.67284">
        <ele>2286.15</ele>
        <time>2018-07-22T10:33:35Z</time>
      </trkpt>
      <trkpt lat="42.63901" lon="1.67283">
        <ele>2286.63</ele>
        <time>2018-07-22T10:33:43Z</time>
      </trkpt>
      <trkpt lat="42.63905" lon="1.67284">
        <ele>2286.63</ele>
        <time>2018-07-22T10:33:50Z</time>
      </trkpt>
      <trkpt lat="42.63908" lon="1.67288">
        <ele>2286.63</ele>
        <time>2018-07-22T10:33:58Z</time>
      </trkpt>
      <trkpt lat="42.63913" lon="1.67291">
        <ele>2287.11</ele>
        <time>2018-07-22T10:34:05Z</time>
      </trkpt>
      <trkpt lat="42.63918" lon="1.67294">
        <ele>2287.11</ele>
        <time>2018-07-22T10:34:14Z</time>
      </trkpt>
      <trkpt lat="42.6392" lon="1.67296">
        <ele>2287.11</ele>
        <time>2018-07-22T10:34:21Z</time>
      </trkpt>
      <trkpt lat="42.63944" lon="1.67305">
        <ele>2307.3</ele>
        <time>2018-07-22T10:34:32Z</time>
      </trkpt>
      <trkpt lat="42.63932" lon="1.67305">
        <ele>2309.7</ele>
        <time>2018-07-22T10:34:48Z</time>
      </trkpt>
      <trkpt lat="42.63925" lon="1.67294">
        <ele>2285.67</ele>
        <time>2018-07-22T10:34:56Z</time>
      </trkpt>
      <trkpt lat="42.63922" lon="1.67295">
        <ele>2284.23</ele>
        <time>2018-07-22T10:35:08Z</time>
      </trkpt>
      <trkpt lat="42.63923" lon="1.67293">
        <ele>2279.9</ele>
        <time>2018-07-22T10:35:18Z</time>
      </trkpt>
      <trkpt lat="42.63922" lon="1.67291">
        <ele>2275.1</ele>
        <time>2018-07-22T10:35:26Z</time>
      </trkpt>
      <trkpt lat="42.6392" lon="1.67289">
        <ele>2271.25</ele>
        <time>2018-07-22T10:35:39Z</time>
      </trkpt>
      <trkpt lat="42.63921" lon="1.67292">
        <ele>2268.37</ele>
        <time>2018-07-22T10:35:58Z</time>
      </trkpt>
      <trkpt lat="42.63921" lon="1.67291">
        <ele>2273.66</ele>
        <time>2018-07-22T10:36:14Z</time>
      </trkpt>
      <trkpt lat="42.63919" lon="1.67291">
        <ele>2272.69</ele>
        <time>2018-07-22T10:36:28Z</time>
      </trkpt>
      <trkpt lat="42.6392" lon="1.6729">
        <ele>2274.14</ele>
        <time>2018-07-22T10:36:47Z</time>
      </trkpt>
      <trkpt lat="42.6392" lon="1.67289">
        <ele>2275.1</ele>
        <time>2018-07-22T10:37:06Z</time>
      </trkpt>
      <trkpt lat="42.63921" lon="1.67289">
        <ele>2277.5</ele>
        <time>2018-07-22T10:37:28Z</time>
      </trkpt>
      <trkpt lat="42.63919" lon="1.67289">
        <ele>2277.98</ele>
        <time>2018-07-22T10:37:47Z</time>
      </trkpt>
      <trkpt lat="42.63921" lon="1.67289">
        <ele>2280.38</ele>
        <time>2018-07-22T10:37:59Z</time>
      </trkpt>
      <trkpt lat="42.63922" lon="1.67292">
        <ele>2279.42</ele>
        <time>2018-07-22T10:38:05Z</time>
      </trkpt>
      <trkpt lat="42.63925" lon="1.6729">
        <ele>2279.9</ele>
        <time>2018-07-22T10:38:20Z</time>
      </trkpt>
      <trkpt lat="42.63924" lon="1.67291">
        <ele>2280.87</ele>
        <time>2018-07-22T10:38:40Z</time>
      </trkpt>
      <trkpt lat="42.63924" lon="1.67287">
        <ele>2283.75</ele>
        <time>2018-07-22T10:38:58Z</time>
      </trkpt>
      <trkpt lat="42.63925" lon="1.67289">
        <ele>2282.79</ele>
        <time>2018-07-22T10:39:13Z</time>
      </trkpt>
      <trkpt lat="42.63926" lon="1.67292">
        <ele>2282.31</ele>
        <time>2018-07-22T10:39:30Z</time>
      </trkpt>
      <trkpt lat="42.63924" lon="1.67293">
        <ele>2281.35</ele>
        <time>2018-07-22T10:39:45Z</time>
      </trkpt>
      <trkpt lat="42.63924" lon="1.67292">
        <ele>2279.9</ele>
        <time>2018-07-22T10:40:00Z</time>
      </trkpt>
      <trkpt lat="42.63924" lon="1.67291">
        <ele>2279.9</ele>
        <time>2018-07-22T10:40:15Z</time>
      </trkpt>
      <trkpt lat="42.63924" lon="1.67294">
        <ele>2277.98</ele>
        <time>2018-07-22T10:40:30Z</time>
      </trkpt>
      <trkpt lat="42.63926" lon="1.67291">
        <ele>2277.98</ele>
        <time>2018-07-22T10:40:45Z</time>
      </trkpt>
      <trkpt lat="42.63924" lon="1.67293">
        <ele>2280.87</ele>
        <time>2018-07-22T10:41:01Z</time>
      </trkpt>
      <trkpt lat="42.6392" lon="1.67293">
        <ele>2279.9</ele>
        <time>2018-07-22T10:41:17Z</time>
      </trkpt>
      <trkpt lat="42.63923" lon="1.67293">
        <ele>2278.46</ele>
        <time>2018-07-22T10:41:31Z</time>
      </trkpt>
      <trkpt lat="42.63923" lon="1.67296">
        <ele>2277.5</ele>
        <time>2018-07-22T10:41:47Z</time>
      </trkpt>
      <trkpt lat="42.63925" lon="1.67292">
        <ele>2277.5</ele>
        <time>2018-07-22T10:42:05Z</time>
      </trkpt>
      <trkpt lat="42.63924" lon="1.67292">
        <ele>2274.14</ele>
        <time>2018-07-22T10:42:23Z</time>
      </trkpt>
      <trkpt lat="42.63929" lon="1.67294">
        <ele>2276.06</ele>
        <time>2018-07-22T10:42:40Z</time>
      </trkpt>
      <trkpt lat="42.63928" lon="1.67292">
        <ele>2275.58</ele>
        <time>2018-07-22T10:42:55Z</time>
      </trkpt>
      <trkpt lat="42.63926" lon="1.67291">
        <ele>2274.62</ele>
        <time>2018-07-22T10:43:12Z</time>
      </trkpt>
      <trkpt lat="42.63926" lon="1.6729">
        <ele>2277.5</ele>
        <time>2018-07-22T10:43:29Z</time>
      </trkpt>
      <trkpt lat="42.63926" lon="1.67289">
        <ele>2281.83</ele>
        <time>2018-07-22T10:43:54Z</time>
      </trkpt>
      <trkpt lat="42.63924" lon="1.6729">
        <ele>2282.79</ele>
        <time>2018-07-22T10:44:16Z</time>
      </trkpt>
      <trkpt lat="42.63924" lon="1.67292">
        <ele>2282.31</ele>
        <time>2018-07-22T10:44:29Z</time>
      </trkpt>
      <trkpt lat="42.63923" lon="1.67291">
        <ele>2280.87</ele>
        <time>2018-07-22T10:44:41Z</time>
      </trkpt>
      <trkpt lat="42.63924" lon="1.67287">
        <ele>2278.46</ele>
        <time>2018-07-22T10:45:02Z</time>
      </trkpt>
      <trkpt lat="42.63925" lon="1.67291">
        <ele>2278.46</ele>
        <time>2018-07-22T10:45:19Z</time>
      </trkpt>
      <trkpt lat="42.63923" lon="1.67292">
        <ele>2278.94</ele>
        <time>2018-07-22T10:45:36Z</time>
      </trkpt>
      <trkpt lat="42.63923" lon="1.67294">
        <ele>2279.9</ele>
        <time>2018-07-22T10:46:01Z</time>
      </trkpt>
      <trkpt lat="42.63924" lon="1.67292">
        <ele>2281.35</ele>
        <time>2018-07-22T10:46:26Z</time>
      </trkpt>
      <trkpt lat="42.63925" lon="1.67293">
        <ele>2281.83</ele>
        <time>2018-07-22T10:46:44Z</time>
      </trkpt>
      <trkpt lat="42.63923" lon="1.67294">
        <ele>2282.31</ele>
        <time>2018-07-22T10:47:02Z</time>
      </trkpt>
      <trkpt lat="42.63922" lon="1.67292">
        <ele>2280.87</ele>
        <time>2018-07-22T10:47:26Z</time>
      </trkpt>
      <trkpt lat="42.63922" lon="1.67291">
        <ele>2282.31</ele>
        <time>2018-07-22T10:47:48Z</time>
      </trkpt>
      <trkpt lat="42.63921" lon="1.67293">
        <ele>2283.75</ele>
        <time>2018-07-22T10:48:07Z</time>
      </trkpt>
      <trkpt lat="42.63922" lon="1.6729">
        <ele>2281.35</ele>
        <time>2018-07-22T10:48:23Z</time>
      </trkpt>
      <trkpt lat="42.63923" lon="1.67291">
        <ele>2280.87</ele>
        <time>2018-07-22T10:48:39Z</time>
      </trkpt>
      <trkpt lat="42.63923" lon="1.67288">
        <ele>2285.19</ele>
        <time>2018-07-22T10:48:56Z</time>
      </trkpt>
      <trkpt lat="42.63921" lon="1.67292">
        <ele>2285.19</ele>
        <time>2018-07-22T10:49:07Z</time>
      </trkpt>
      <trkpt lat="42.63921" lon="1.67291">
        <ele>2284.23</ele>
        <time>2018-07-22T10:49:22Z</time>
      </trkpt>
      <trkpt lat="42.63919" lon="1.67293">
        <ele>2285.19</ele>
        <time>2018-07-22T10:49:36Z</time>
      </trkpt>
      <trkpt lat="42.63922" lon="1.67292">
        <ele>2284.71</ele>
        <time>2018-07-22T10:49:54Z</time>
      </trkpt>
      <trkpt lat="42.63921" lon="1.67292">
        <ele>2284.71</ele>
        <time>2018-07-22T10:50:06Z</time>
      </trkpt>
      <trkpt lat="42.63921" lon="1.67293">
        <ele>2284.23</ele>
        <time>2018-07-22T10:50:18Z</time>
      </trkpt>
      <trkpt lat="42.63922" lon="1.67295">
        <ele>2280.38</ele>
        <time>2018-07-22T10:50:34Z</time>
      </trkpt>
      <trkpt lat="42.63922" lon="1.67295">
        <ele>2280.87</ele>
        <time>2018-07-22T10:50:52Z</time>
      </trkpt>
      <trkpt lat="42.6392" lon="1.67294">
        <ele>2281.35</ele>
        <time>2018-07-22T10:51:10Z</time>
      </trkpt>
      <trkpt lat="42.63921" lon="1.67297">
        <ele>2283.27</ele>
        <time>2018-07-22T10:51:24Z</time>
      </trkpt>
      <trkpt lat="42.63921" lon="1.67296">
        <ele>2281.35</ele>
        <time>2018-07-22T10:51:42Z</time>
      </trkpt>
      <trkpt lat="42.63924" lon="1.67291">
        <ele>2283.27</ele>
        <time>2018-07-22T10:51:58Z</time>
      </trkpt>
      <trkpt lat="42.63924" lon="1.67295">
        <ele>2280.87</ele>
        <time>2018-07-22T10:52:14Z</time>
      </trkpt>
      <trkpt lat="42.63923" lon="1.67293">
        <ele>2279.9</ele>
        <time>2018-07-22T10:52:33Z</time>
      </trkpt>
      <trkpt lat="42.63923" lon="1.67294">
        <ele>2280.87</ele>
        <time>2018-07-22T10:52:53Z</time>
      </trkpt>
      <trkpt lat="42.63921" lon="1.67295">
        <ele>2280.38</ele>
        <time>2018-07-22T10:53:06Z</time>
      </trkpt>
      <trkpt lat="42.63919" lon="1.67297">
        <ele>2280.38</ele>
        <time>2018-07-22T10:53:19Z</time>
      </trkpt>
      <trkpt lat="42.63921" lon="1.67296">
        <ele>2278.46</ele>
        <time>2018-07-22T10:53:35Z</time>
      </trkpt>
      <trkpt lat="42.63923" lon="1.67294">
        <ele>2276.54</ele>
        <time>2018-07-22T10:53:54Z</time>
      </trkpt>
      <trkpt lat="42.63923" lon="1.67293">
        <ele>2278.46</ele>
        <time>2018-07-22T10:54:09Z</time>
      </trkpt>
      <trkpt lat="42.63924" lon="1.67292">
        <ele>2278.46</ele>
        <time>2018-07-22T10:54:29Z</time>
      </trkpt>
      <trkpt lat="42.63923" lon="1.67294">
        <ele>2280.38</ele>
        <time>2018-07-22T10:54:52Z</time>
      </trkpt>
      <trkpt lat="42.63923" lon="1.67293">
        <ele>2279.9</ele>
        <time>2018-07-22T10:55:17Z</time>
      </trkpt>
      <trkpt lat="42.63923" lon="1.67292">
        <ele>2280.87</ele>
        <time>2018-07-22T10:55:37Z</time>
      </trkpt>
      <trkpt lat="42.63923" lon="1.67293">
        <ele>2279.9</ele>
        <time>2018-07-22T10:55:52Z</time>
      </trkpt>
      <trkpt lat="42.63923" lon="1.6729">
        <ele>2279.42</ele>
        <time>2018-07-22T10:56:17Z</time>
      </trkpt>
      <trkpt lat="42.63923" lon="1.67292">
        <ele>2277.5</ele>
        <time>2018-07-22T10:56:41Z</time>
      </trkpt>
      <trkpt lat="42.63922" lon="1.67293">
        <ele>2279.42</ele>
        <time>2018-07-22T10:57:05Z</time>
      </trkpt>
      <trkpt lat="42.63922" lon="1.67292">
        <ele>2281.83</ele>
        <time>2018-07-22T10:57:25Z</time>
      </trkpt>
      <trkpt lat="42.63922" lon="1.67292">
        <ele>2282.31</ele>
        <time>2018-07-22T10:57:38Z</time>
      </trkpt>
      <trkpt lat="42.63922" lon="1.6729">
        <ele>2283.27</ele>
        <time>2018-07-22T10:58:03Z</time>
      </trkpt>
      <trkpt lat="42.63921" lon="1.6729">
        <ele>2283.75</ele>
        <time>2018-07-22T10:58:22Z</time>
      </trkpt>
      <trkpt lat="42.63921" lon="1.67292">
        <ele>2281.83</ele>
        <time>2018-07-22T10:58:44Z</time>
      </trkpt>
      <trkpt lat="42.63921" lon="1.67293">
        <ele>2281.35</ele>
        <time>2018-07-22T10:59:05Z</time>
      </trkpt>
      <trkpt lat="42.63921" lon="1.67292">
        <ele>2282.79</ele>
        <time>2018-07-22T10:59:17Z</time>
      </trkpt>
      <trkpt lat="42.63921" lon="1.67294">
        <ele>2283.27</ele>
        <time>2018-07-22T10:59:40Z</time>
      </trkpt>
      <trkpt lat="42.63921" lon="1.67293">
        <ele>2283.27</ele>
        <time>2018-07-22T10:59:59Z</time>
      </trkpt>
      <trkpt lat="42.63921" lon="1.67292">
        <ele>2282.79</ele>
        <time>2018-07-22T11:00:19Z</time>
      </trkpt>
      <trkpt lat="42.63922" lon="1.6729">
        <ele>2284.71</ele>
        <time>2018-07-22T11:00:40Z</time>
      </trkpt>
      <trkpt lat="42.63922" lon="1.67292">
        <ele>2281.83</ele>
        <time>2018-07-22T11:01:01Z</time>
      </trkpt>
      <trkpt lat="42.63922" lon="1.67293">
        <ele>2280.87</ele>
        <time>2018-07-22T11:01:19Z</time>
      </trkpt>
      <trkpt lat="42.63922" lon="1.67293">
        <ele>2281.83</ele>
        <time>2018-07-22T11:01:37Z</time>
      </trkpt>
      <trkpt lat="42.63922" lon="1.67294">
        <ele>2283.27</ele>
        <time>2018-07-22T11:01:53Z</time>
      </trkpt>
      <trkpt lat="42.63923" lon="1.67292">
        <ele>2284.23</ele>
        <time>2018-07-22T11:02:04Z</time>
      </trkpt>
      <trkpt lat="42.63921" lon="1.67294">
        <ele>2283.27</ele>
        <time>2018-07-22T11:02:17Z</time>
      </trkpt>
      <trkpt lat="42.63921" lon="1.67295">
        <ele>2282.79</ele>
        <time>2018-07-22T11:02:34Z</time>
      </trkpt>
      <trkpt lat="42.63922" lon="1.67294">
        <ele>2281.83</ele>
        <time>2018-07-22T11:02:51Z</time>
      </trkpt>
      <trkpt lat="42.63923" lon="1.67294">
        <ele>2281.83</ele>
        <time>2018-07-22T11:03:10Z</time>
      </trkpt>
      <trkpt lat="42.63923" lon="1.67293">
        <ele>2280.38</ele>
        <time>2018-07-22T11:03:28Z</time>
      </trkpt>
      <trkpt lat="42.63923" lon="1.67293">
        <ele>2279.9</ele>
        <time>2018-07-22T11:03:54Z</time>
      </trkpt>
      <trkpt lat="42.63923" lon="1.67294">
        <ele>2278.94</ele>
        <time>2018-07-22T11:04:16Z</time>
      </trkpt>
      <trkpt lat="42.63924" lon="1.67293">
        <ele>2279.42</ele>
        <time>2018-07-22T11:04:29Z</time>
      </trkpt>
      <trkpt lat="42.63923" lon="1.67293">
        <ele>2282.31</ele>
        <time>2018-07-22T11:04:53Z</time>
      </trkpt>
      <trkpt lat="42.63923" lon="1.67293">
        <ele>2280.87</ele>
        <time>2018-07-22T11:05:06Z</time>
      </trkpt>
      <trkpt lat="42.63923" lon="1.67294">
        <ele>2280.38</ele>
        <time>2018-07-22T11:05:19Z</time>
      </trkpt>
      <trkpt lat="42.63923" lon="1.67294">
        <ele>2280.38</ele>
        <time>2018-07-22T11:05:36Z</time>
      </trkpt>
      <trkpt lat="42.63922" lon="1.67293">
        <ele>2282.79</ele>
        <time>2018-07-22T11:05:55Z</time>
      </trkpt>
      <trkpt lat="42.63923" lon="1.67294">
        <ele>2282.31</ele>
        <time>2018-07-22T11:06:12Z</time>
      </trkpt>
      <trkpt lat="42.63922" lon="1.67293">
        <ele>2282.31</ele>
        <time>2018-07-22T11:06:33Z</time>
      </trkpt>
      <trkpt lat="42.63922" lon="1.67293">
        <ele>2282.79</ele>
        <time>2018-07-22T11:06:46Z</time>
      </trkpt>
      <trkpt lat="42.63921" lon="1.67291">
        <ele>2282.31</ele>
        <time>2018-07-22T11:07:00Z</time>
      </trkpt>
      <trkpt lat="42.6392" lon="1.6729">
        <ele>2284.23</ele>
        <time>2018-07-22T11:07:17Z</time>
      </trkpt>
      <trkpt lat="42.63922" lon="1.67291">
        <ele>2284.23</ele>
        <time>2018-07-22T11:07:32Z</time>
      </trkpt>
      <trkpt lat="42.63921" lon="1.67294">
        <ele>2283.75</ele>
        <time>2018-07-22T11:07:52Z</time>
      </trkpt>
      <trkpt lat="42.63921" lon="1.67294">
        <ele>2283.27</ele>
        <time>2018-07-22T11:08:04Z</time>
      </trkpt>
      <trkpt lat="42.6392" lon="1.67295">
        <ele>2284.23</ele>
        <time>2018-07-22T11:08:23Z</time>
      </trkpt>
      <trkpt lat="42.63921" lon="1.67292">
        <ele>2283.27</ele>
        <time>2018-07-22T11:08:46Z</time>
      </trkpt>
      <trkpt lat="42.63922" lon="1.67291">
        <ele>2282.31</ele>
        <time>2018-07-22T11:09:04Z</time>
      </trkpt>
      <trkpt lat="42.63922" lon="1.67293">
        <ele>2282.31</ele>
        <time>2018-07-22T11:09:21Z</time>
      </trkpt>
      <trkpt lat="42.63921" lon="1.67295">
        <ele>2282.79</ele>
        <time>2018-07-22T11:09:41Z</time>
      </trkpt>
      <trkpt lat="42.63921" lon="1.67291">
        <ele>2283.75</ele>
        <time>2018-07-22T11:10:04Z</time>
      </trkpt>
      <trkpt lat="42.63922" lon="1.67292">
        <ele>2282.79</ele>
        <time>2018-07-22T11:10:20Z</time>
      </trkpt>
      <trkpt lat="42.63921" lon="1.67293">
        <ele>2282.31</ele>
        <time>2018-07-22T11:10:37Z</time>
      </trkpt>
      <trkpt lat="42.63921" lon="1.67294">
        <ele>2283.27</ele>
        <time>2018-07-22T11:11:01Z</time>
      </trkpt>
      <trkpt lat="42.63922" lon="1.67294">
        <ele>2283.75</ele>
        <time>2018-07-22T11:11:23Z</time>
      </trkpt>
      <trkpt lat="42.63924" lon="1.67291">
        <ele>2282.79</ele>
        <time>2018-07-22T11:11:39Z</time>
      </trkpt>
      <trkpt lat="42.63923" lon="1.67292">
        <ele>2281.83</ele>
        <time>2018-07-22T11:11:56Z</time>
      </trkpt>
      <trkpt lat="42.63923" lon="1.67292">
        <ele>2280.87</ele>
        <time>2018-07-22T11:12:12Z</time>
      </trkpt>
      <trkpt lat="42.63922" lon="1.67291">
        <ele>2282.31</ele>
        <time>2018-07-22T11:12:32Z</time>
      </trkpt>
      <trkpt lat="42.63921" lon="1.67291">
        <ele>2282.31</ele>
        <time>2018-07-22T11:12:52Z</time>
      </trkpt>
      <trkpt lat="42.63922" lon="1.67292">
        <ele>2281.35</ele>
        <time>2018-07-22T11:13:03Z</time>
      </trkpt>
      <trkpt lat="42.63921" lon="1.67292">
        <ele>2282.79</ele>
        <time>2018-07-22T11:13:23Z</time>
      </trkpt>
      <trkpt lat="42.63921" lon="1.67291">
        <ele>2283.27</ele>
        <time>2018-07-22T11:13:40Z</time>
      </trkpt>
      <trkpt lat="42.63922" lon="1.67291">
        <ele>2282.31</ele>
        <time>2018-07-22T11:13:53Z</time>
      </trkpt>
      <trkpt lat="42.63922" lon="1.67289">
        <ele>2282.79</ele>
        <time>2018-07-22T11:14:09Z</time>
      </trkpt>
      <trkpt lat="42.63922" lon="1.67289">
        <ele>2282.31</ele>
        <time>2018-07-22T11:14:22Z</time>
      </trkpt>
      <trkpt lat="42.63923" lon="1.6729">
        <ele>2281.83</ele>
        <time>2018-07-22T11:14:35Z</time>
      </trkpt>
      <trkpt lat="42.63922" lon="1.6729">
        <ele>2282.31</ele>
        <time>2018-07-22T11:14:46Z</time>
      </trkpt>
      <trkpt lat="42.63922" lon="1.67289">
        <ele>2282.79</ele>
        <time>2018-07-22T11:15:02Z</time>
      </trkpt>
      <trkpt lat="42.63921" lon="1.6729">
        <ele>2280.38</ele>
        <time>2018-07-22T11:15:18Z</time>
      </trkpt>
      <trkpt lat="42.63921" lon="1.6729">
        <ele>2280.38</ele>
        <time>2018-07-22T11:15:34Z</time>
      </trkpt>
      <trkpt lat="42.63923" lon="1.6729">
        <ele>2279.9</ele>
        <time>2018-07-22T11:15:49Z</time>
      </trkpt>
      <trkpt lat="42.63922" lon="1.67291">
        <ele>2280.87</ele>
        <time>2018-07-22T11:16:00Z</time>
      </trkpt>
      <trkpt lat="42.63923" lon="1.67293">
        <ele>2279.9</ele>
        <time>2018-07-22T11:16:13Z</time>
      </trkpt>
      <trkpt lat="42.63923" lon="1.67294">
        <ele>2280.38</ele>
        <time>2018-07-22T11:16:27Z</time>
      </trkpt>
      <trkpt lat="42.63923" lon="1.67293">
        <ele>2280.38</ele>
        <time>2018-07-22T11:16:40Z</time>
      </trkpt>
      <trkpt lat="42.63922" lon="1.67293">
        <ele>2280.87</ele>
        <time>2018-07-22T11:17:00Z</time>
      </trkpt>
      <trkpt lat="42.63922" lon="1.67293">
        <ele>2279.9</ele>
        <time>2018-07-22T11:17:18Z</time>
      </trkpt>
      <trkpt lat="42.63923" lon="1.67293">
        <ele>2278.94</ele>
        <time>2018-07-22T11:17:33Z</time>
      </trkpt>
      <trkpt lat="42.63923" lon="1.67292">
        <ele>2279.42</ele>
        <time>2018-07-22T11:17:48Z</time>
      </trkpt>
      <trkpt lat="42.63923" lon="1.67292">
        <ele>2279.42</ele>
        <time>2018-07-22T11:18:01Z</time>
      </trkpt>
      <trkpt lat="42.63923" lon="1.67291">
        <ele>2279.42</ele>
        <time>2018-07-22T11:18:16Z</time>
      </trkpt>
      <trkpt lat="42.63922" lon="1.67291">
        <ele>2279.9</ele>
        <time>2018-07-22T11:18:26Z</time>
      </trkpt>
      <trkpt lat="42.63923" lon="1.67294">
        <ele>2278.94</ele>
        <time>2018-07-22T11:18:42Z</time>
      </trkpt>
      <trkpt lat="42.63923" lon="1.67292">
        <ele>2279.9</ele>
        <time>2018-07-22T11:18:54Z</time>
      </trkpt>
      <trkpt lat="42.63922" lon="1.67292">
        <ele>2280.38</ele>
        <time>2018-07-22T11:19:11Z</time>
      </trkpt>
      <trkpt lat="42.63922" lon="1.67292">
        <ele>2277.98</ele>
        <time>2018-07-22T11:19:25Z</time>
      </trkpt>
      <trkpt lat="42.63922" lon="1.67291">
        <ele>2279.42</ele>
        <time>2018-07-22T11:19:44Z</time>
      </trkpt>
      <trkpt lat="42.63922" lon="1.6729">
        <ele>2282.79</ele>
        <time>2018-07-22T11:20:04Z</time>
      </trkpt>
      <trkpt lat="42.63921" lon="1.67289">
        <ele>2283.75</ele>
        <time>2018-07-22T11:20:18Z</time>
      </trkpt>
      <trkpt lat="42.6392" lon="1.6729">
        <ele>2284.71</ele>
        <time>2018-07-22T11:20:36Z</time>
      </trkpt>
      <trkpt lat="42.6392" lon="1.67289">
        <ele>2282.31</ele>
        <time>2018-07-22T11:20:59Z</time>
      </trkpt>
      <trkpt lat="42.63921" lon="1.67288">
        <ele>2285.19</ele>
        <time>2018-07-22T11:21:16Z</time>
      </trkpt>
      <trkpt lat="42.63919" lon="1.67288">
        <ele>2287.59</ele>
        <time>2018-07-22T11:21:36Z</time>
      </trkpt>
      <trkpt lat="42.63919" lon="1.67288">
        <ele>2287.11</ele>
        <time>2018-07-22T11:21:53Z</time>
      </trkpt>
      <trkpt lat="42.6392" lon="1.67287">
        <ele>2288.08</ele>
        <time>2018-07-22T11:22:06Z</time>
      </trkpt>
      <trkpt lat="42.63918" lon="1.67288">
        <ele>2289.04</ele>
        <time>2018-07-22T11:22:21Z</time>
      </trkpt>
      <trkpt lat="42.63918" lon="1.67285">
        <ele>2287.59</ele>
        <time>2018-07-22T11:22:40Z</time>
      </trkpt>
      <trkpt lat="42.63918" lon="1.67286">
        <ele>2287.59</ele>
        <time>2018-07-22T11:22:51Z</time>
      </trkpt>
      <trkpt lat="42.63918" lon="1.67285">
        <ele>2287.11</ele>
        <time>2018-07-22T11:23:07Z</time>
      </trkpt>
      <trkpt lat="42.63917" lon="1.67285">
        <ele>2289.04</ele>
        <time>2018-07-22T11:23:20Z</time>
      </trkpt>
      <trkpt lat="42.63919" lon="1.67286">
        <ele>2287.59</ele>
        <time>2018-07-22T11:23:34Z</time>
      </trkpt>
      <trkpt lat="42.63918" lon="1.67285">
        <ele>2287.11</ele>
        <time>2018-07-22T11:23:50Z</time>
      </trkpt>
      <trkpt lat="42.63918" lon="1.67286">
        <ele>2287.11</ele>
        <time>2018-07-22T11:24:02Z</time>
      </trkpt>
      <trkpt lat="42.63918" lon="1.6729">
        <ele>2287.59</ele>
        <time>2018-07-22T11:24:16Z</time>
      </trkpt>
      <trkpt lat="42.63923" lon="1.67293">
        <ele>2285.19</ele>
        <time>2018-07-22T11:24:37Z</time>
      </trkpt>
      <trkpt lat="42.63921" lon="1.67292">
        <ele>2285.19</ele>
        <time>2018-07-22T11:24:55Z</time>
      </trkpt>
      <trkpt lat="42.6392" lon="1.6729">
        <ele>2284.23</ele>
        <time>2018-07-22T11:25:08Z</time>
      </trkpt>
      <trkpt lat="42.63922" lon="1.67291">
        <ele>2284.23</ele>
        <time>2018-07-22T11:25:25Z</time>
      </trkpt>
      <trkpt lat="42.63922" lon="1.67291">
        <ele>2284.71</ele>
        <time>2018-07-22T11:25:44Z</time>
      </trkpt>
      <trkpt lat="42.63921" lon="1.67289">
        <ele>2285.67</ele>
        <time>2018-07-22T11:26:01Z</time>
      </trkpt>
      <trkpt lat="42.6392" lon="1.67288">
        <ele>2286.15</ele>
        <time>2018-07-22T11:26:17Z</time>
      </trkpt>
      <trkpt lat="42.63919" lon="1.67287">
        <ele>2288.08</ele>
        <time>2018-07-22T11:26:34Z</time>
      </trkpt>
      <trkpt lat="42.63918" lon="1.67286">
        <ele>2288.08</ele>
        <time>2018-07-22T11:26:41Z</time>
      </trkpt>
      <trkpt lat="42.63918" lon="1.67284">
        <ele>2286.15</ele>
        <time>2018-07-22T11:26:55Z</time>
      </trkpt>
      <trkpt lat="42.63919" lon="1.67285">
        <ele>2284.23</ele>
        <time>2018-07-22T11:27:03Z</time>
      </trkpt>
      <trkpt lat="42.6392" lon="1.67285">
        <ele>2284.71</ele>
        <time>2018-07-22T11:27:07Z</time>
      </trkpt>
      <trkpt lat="42.6392" lon="1.67288">
        <ele>2285.19</ele>
        <time>2018-07-22T11:27:12Z</time>
      </trkpt>
      <trkpt lat="42.63919" lon="1.6729">
        <ele>2284.23</ele>
        <time>2018-07-22T11:27:18Z</time>
      </trkpt>
      <trkpt lat="42.6392" lon="1.67293">
        <ele>2283.27</ele>
        <time>2018-07-22T11:27:24Z</time>
      </trkpt>
      <trkpt lat="42.63919" lon="1.67288">
        <ele>2283.75</ele>
        <time>2018-07-22T11:27:31Z</time>
      </trkpt>
      <trkpt lat="42.63919" lon="1.67288">
        <ele>2284.23</ele>
        <time>2018-07-22T11:27:35Z</time>
      </trkpt>
      <trkpt lat="42.63917" lon="1.67286">
        <ele>2283.27</ele>
        <time>2018-07-22T11:27:42Z</time>
      </trkpt>
      <trkpt lat="42.63918" lon="1.67289">
        <ele>2283.27</ele>
        <time>2018-07-22T11:27:53Z</time>
      </trkpt>
      <trkpt lat="42.63921" lon="1.67291">
        <ele>2280.87</ele>
        <time>2018-07-22T11:28:03Z</time>
      </trkpt>
      <trkpt lat="42.6392" lon="1.67292">
        <ele>2281.83</ele>
        <time>2018-07-22T11:28:13Z</time>
      </trkpt>
      <trkpt lat="42.63921" lon="1.67297">
        <ele>2281.83</ele>
        <time>2018-07-22T11:28:19Z</time>
      </trkpt>
      <trkpt lat="42.63924" lon="1.67303">
        <ele>2281.83</ele>
        <time>2018-07-22T11:28:24Z</time>
      </trkpt>
      <trkpt lat="42.63929" lon="1.6731">
        <ele>2281.83</ele>
        <time>2018-07-22T11:28:30Z</time>
      </trkpt>
      <trkpt lat="42.63929" lon="1.67311">
        <ele>2281.83</ele>
        <time>2018-07-22T11:28:31Z</time>
      </trkpt>
      <trkpt lat="42.63934" lon="1.67317">
        <ele>2283.27</ele>
        <time>2018-07-22T11:28:39Z</time>
      </trkpt>
      <trkpt lat="42.63937" lon="1.67321">
        <ele>2284.23</ele>
        <time>2018-07-22T11:28:45Z</time>
      </trkpt>
      <trkpt lat="42.63941" lon="1.67326">
        <ele>2285.67</ele>
        <time>2018-07-22T11:28:53Z</time>
      </trkpt>
      <trkpt lat="42.63942" lon="1.67327">
        <ele>2285.67</ele>
        <time>2018-07-22T11:28:55Z</time>
      </trkpt>
      <trkpt lat="42.63946" lon="1.67337">
        <ele>2284.71</ele>
        <time>2018-07-22T11:29:03Z</time>
      </trkpt>
      <trkpt lat="42.63946" lon="1.67338">
        <ele>2284.23</ele>
        <time>2018-07-22T11:29:04Z</time>
      </trkpt>
      <trkpt lat="42.63951" lon="1.67347">
        <ele>2277.98</ele>
        <time>2018-07-22T11:29:12Z</time>
      </trkpt>
      <trkpt lat="42.63952" lon="1.6735">
        <ele>2276.54</ele>
        <time>2018-07-22T11:29:25Z</time>
      </trkpt>
      <trkpt lat="42.63952" lon="1.67352">
        <ele>2276.54</ele>
        <time>2018-07-22T11:29:34Z</time>
      </trkpt>
      <trkpt lat="42.63956" lon="1.67358">
        <ele>2277.98</ele>
        <time>2018-07-22T11:29:40Z</time>
      </trkpt>
      <trkpt lat="42.63963" lon="1.67369">
        <ele>2276.54</ele>
        <time>2018-07-22T11:29:51Z</time>
      </trkpt>
      <trkpt lat="42.63966" lon="1.67376">
        <ele>2275.1</ele>
        <time>2018-07-22T11:29:58Z</time>
      </trkpt>
      <trkpt lat="42.6397" lon="1.67382">
        <ele>2274.62</ele>
        <time>2018-07-22T11:30:04Z</time>
      </trkpt>
      <trkpt lat="42.63971" lon="1.67388">
        <ele>2274.62</ele>
        <time>2018-07-22T11:30:09Z</time>
      </trkpt>
      <trkpt lat="42.63974" lon="1.67398">
        <ele>2273.66</ele>
        <time>2018-07-22T11:30:17Z</time>
      </trkpt>
      <trkpt lat="42.63975" lon="1.67403">
        <ele>2273.66</ele>
        <time>2018-07-22T11:30:21Z</time>
      </trkpt>
      <trkpt lat="42.63974" lon="1.67413">
        <ele>2272.21</ele>
        <time>2018-07-22T11:30:30Z</time>
      </trkpt>
      <trkpt lat="42.63972" lon="1.67412">
        <ele>2270.29</ele>
        <time>2018-07-22T11:30:39Z</time>
      </trkpt>
      <trkpt lat="42.63974" lon="1.67422">
        <ele>2273.66</ele>
        <time>2018-07-22T11:30:46Z</time>
      </trkpt>
      <trkpt lat="42.63975" lon="1.67429">
        <ele>2275.1</ele>
        <time>2018-07-22T11:30:54Z</time>
      </trkpt>
      <trkpt lat="42.63975" lon="1.67435">
        <ele>2276.06</ele>
        <time>2018-07-22T11:31:00Z</time>
      </trkpt>
      <trkpt lat="42.63972" lon="1.67439">
        <ele>2277.02</ele>
        <time>2018-07-22T11:31:07Z</time>
      </trkpt>
      <trkpt lat="42.63973" lon="1.6744">
        <ele>2277.02</ele>
        <time>2018-07-22T11:31:10Z</time>
      </trkpt>
      <trkpt lat="42.63978" lon="1.67449">
        <ele>2277.5</ele>
        <time>2018-07-22T11:31:18Z</time>
      </trkpt>
      <trkpt lat="42.63983" lon="1.67458">
        <ele>2277.5</ele>
        <time>2018-07-22T11:31:26Z</time>
      </trkpt>
      <trkpt lat="42.63987" lon="1.67464">
        <ele>2278.46</ele>
        <time>2018-07-22T11:31:33Z</time>
      </trkpt>
      <trkpt lat="42.6399" lon="1.67466">
        <ele>2279.42</ele>
        <time>2018-07-22T11:31:39Z</time>
      </trkpt>
      <trkpt lat="42.6399" lon="1.67466">
        <ele>2279.42</ele>
        <time>2018-07-22T11:31:52Z</time>
      </trkpt>
      <trkpt lat="42.63987" lon="1.67464">
        <ele>2277.98</ele>
        <time>2018-07-22T11:32:07Z</time>
      </trkpt>
      <trkpt lat="42.63985" lon="1.67462">
        <ele>2277.98</ele>
        <time>2018-07-22T11:32:16Z</time>
      </trkpt>
      <trkpt lat="42.63985" lon="1.67461">
        <ele>2278.94</ele>
        <time>2018-07-22T11:32:26Z</time>
      </trkpt>
      <trkpt lat="42.63984" lon="1.67466">
        <ele>2282.79</ele>
        <time>2018-07-22T11:32:36Z</time>
      </trkpt>
      <trkpt lat="42.63984" lon="1.67468">
        <ele>2281.83</ele>
        <time>2018-07-22T11:32:43Z</time>
      </trkpt>
      <trkpt lat="42.63986" lon="1.67475">
        <ele>2280.38</ele>
        <time>2018-07-22T11:32:50Z</time>
      </trkpt>
      <trkpt lat="42.63983" lon="1.67475">
        <ele>2282.79</ele>
        <time>2018-07-22T11:33:04Z</time>
      </trkpt>
      <trkpt lat="42.63983" lon="1.67471">
        <ele>2282.79</ele>
        <time>2018-07-22T11:33:16Z</time>
      </trkpt>
      <trkpt lat="42.63983" lon="1.67469">
        <ele>2282.79</ele>
        <time>2018-07-22T11:33:19Z</time>
      </trkpt>
      <trkpt lat="42.63978" lon="1.67458">
        <ele>2279.42</ele>
        <time>2018-07-22T11:33:28Z</time>
      </trkpt>
      <trkpt lat="42.63976" lon="1.67447">
        <ele>2277.02</ele>
        <time>2018-07-22T11:33:37Z</time>
      </trkpt>
      <trkpt lat="42.63972" lon="1.6744">
        <ele>2277.98</ele>
        <time>2018-07-22T11:33:47Z</time>
      </trkpt>
      <trkpt lat="42.63969" lon="1.67435">
        <ele>2278.94</ele>
        <time>2018-07-22T11:33:55Z</time>
      </trkpt>
      <trkpt lat="42.63966" lon="1.67427">
        <ele>2279.42</ele>
        <time>2018-07-22T11:34:04Z</time>
      </trkpt>
      <trkpt lat="42.63964" lon="1.67418">
        <ele>2279.42</ele>
        <time>2018-07-22T11:34:12Z</time>
      </trkpt>
      <trkpt lat="42.63963" lon="1.67408">
        <ele>2277.5</ele>
        <time>2018-07-22T11:34:21Z</time>
      </trkpt>
      <trkpt lat="42.63959" lon="1.674">
        <ele>2278.94</ele>
        <time>2018-07-22T11:34:31Z</time>
      </trkpt>
      <trkpt lat="42.63953" lon="1.67393">
        <ele>2279.9</ele>
        <time>2018-07-22T11:34:39Z</time>
      </trkpt>
      <trkpt lat="42.6395" lon="1.67386">
        <ele>2279.42</ele>
        <time>2018-07-22T11:34:46Z</time>
      </trkpt>
      <trkpt lat="42.63951" lon="1.67388">
        <ele>2279.9</ele>
        <time>2018-07-22T11:35:01Z</time>
      </trkpt>
      <trkpt lat="42.63947" lon="1.67385">
        <ele>2281.35</ele>
        <time>2018-07-22T11:35:13Z</time>
      </trkpt>
      <trkpt lat="42.63942" lon="1.67375">
        <ele>2281.35</ele>
        <time>2018-07-22T11:35:22Z</time>
      </trkpt>
      <trkpt lat="42.63937" lon="1.67365">
        <ele>2279.42</ele>
        <time>2018-07-22T11:35:31Z</time>
      </trkpt>
      <trkpt lat="42.63932" lon="1.67358">
        <ele>2281.35</ele>
        <time>2018-07-22T11:35:40Z</time>
      </trkpt>
      <trkpt lat="42.63928" lon="1.67352">
        <ele>2284.23</ele>
        <time>2018-07-22T11:35:48Z</time>
      </trkpt>
      <trkpt lat="42.63928" lon="1.67344">
        <ele>2284.23</ele>
        <time>2018-07-22T11:35:56Z</time>
      </trkpt>
      <trkpt lat="42.63926" lon="1.67335">
        <ele>2285.19</ele>
        <time>2018-07-22T11:36:04Z</time>
      </trkpt>
      <trkpt lat="42.63923" lon="1.67333">
        <ele>2285.67</ele>
        <time>2018-07-22T11:36:07Z</time>
      </trkpt>
      <trkpt lat="42.63916" lon="1.67328">
        <ele>2287.59</ele>
        <time>2018-07-22T11:36:15Z</time>
      </trkpt>
      <trkpt lat="42.63914" lon="1.67324">
        <ele>2288.08</ele>
        <time>2018-07-22T11:36:19Z</time>
      </trkpt>
      <trkpt lat="42.63911" lon="1.67315">
        <ele>2287.11</ele>
        <time>2018-07-22T11:36:27Z</time>
      </trkpt>
      <trkpt lat="42.6391" lon="1.6731">
        <ele>2285.19</ele>
        <time>2018-07-22T11:36:35Z</time>
      </trkpt>
      <trkpt lat="42.63908" lon="1.67308">
        <ele>2283.75</ele>
        <time>2018-07-22T11:36:43Z</time>
      </trkpt>
      <trkpt lat="42.63904" lon="1.67302">
        <ele>2283.27</ele>
        <time>2018-07-22T11:36:52Z</time>
      </trkpt>
      <trkpt lat="42.63904" lon="1.67299">
        <ele>2282.79</ele>
        <time>2018-07-22T11:36:58Z</time>
      </trkpt>
      <trkpt lat="42.63903" lon="1.67292">
        <ele>2282.79</ele>
        <time>2018-07-22T11:37:07Z</time>
      </trkpt>
      <trkpt lat="42.63901" lon="1.67289">
        <ele>2282.31</ele>
        <time>2018-07-22T11:37:09Z</time>
      </trkpt>
      <trkpt lat="42.63898" lon="1.67282">
        <ele>2282.31</ele>
        <time>2018-07-22T11:37:14Z</time>
      </trkpt>
      <trkpt lat="42.63899" lon="1.67283">
        <ele>2281.83</ele>
        <time>2018-07-22T11:37:22Z</time>
      </trkpt>
      <trkpt lat="42.63897" lon="1.67279">
        <ele>2281.83</ele>
        <time>2018-07-22T11:37:38Z</time>
      </trkpt>
      <trkpt lat="42.63891" lon="1.6727">
        <ele>2281.35</ele>
        <time>2018-07-22T11:37:45Z</time>
      </trkpt>
      <trkpt lat="42.63887" lon="1.6726">
        <ele>2279.9</ele>
        <time>2018-07-22T11:37:54Z</time>
      </trkpt>
      <trkpt lat="42.63886" lon="1.67259">
        <ele>2279.42</ele>
        <time>2018-07-22T11:37:56Z</time>
      </trkpt>
      <trkpt lat="42.6388" lon="1.67249">
        <ele>2279.9</ele>
        <time>2018-07-22T11:38:06Z</time>
      </trkpt>
      <trkpt lat="42.63875" lon="1.67243">
        <ele>2281.83</ele>
        <time>2018-07-22T11:38:15Z</time>
      </trkpt>
      <trkpt lat="42.63876" lon="1.67242">
        <ele>2281.83</ele>
        <time>2018-07-22T11:38:25Z</time>
      </trkpt>
      <trkpt lat="42.63871" lon="1.67237">
        <ele>2282.79</ele>
        <time>2018-07-22T11:38:36Z</time>
      </trkpt>
      <trkpt lat="42.63868" lon="1.67227">
        <ele>2282.79</ele>
        <time>2018-07-22T11:38:44Z</time>
      </trkpt>
      <trkpt lat="42.63866" lon="1.67227">
        <ele>2281.35</ele>
        <time>2018-07-22T11:38:53Z</time>
      </trkpt>
      <trkpt lat="42.63865" lon="1.67221">
        <ele>2280.38</ele>
        <time>2018-07-22T11:39:05Z</time>
      </trkpt>
      <trkpt lat="42.63862" lon="1.67214">
        <ele>2276.54</ele>
        <time>2018-07-22T11:39:13Z</time>
      </trkpt>
      <trkpt lat="42.63861" lon="1.67213">
        <ele>2277.5</ele>
        <time>2018-07-22T11:39:30Z</time>
      </trkpt>
      <trkpt lat="42.6386" lon="1.67212">
        <ele>2277.5</ele>
        <time>2018-07-22T11:39:32Z</time>
      </trkpt>
      <trkpt lat="42.63848" lon="1.67204">
        <ele>2276.54</ele>
        <time>2018-07-22T11:39:41Z</time>
      </trkpt>
      <trkpt lat="42.63838" lon="1.67194">
        <ele>2275.1</ele>
        <time>2018-07-22T11:39:50Z</time>
      </trkpt>
      <trkpt lat="42.63831" lon="1.67184">
        <ele>2271.25</ele>
        <time>2018-07-22T11:39:59Z</time>
      </trkpt>
      <trkpt lat="42.63824" lon="1.67169">
        <ele>2269.81</ele>
        <time>2018-07-22T11:40:08Z</time>
      </trkpt>
      <trkpt lat="42.63815" lon="1.67154">
        <ele>2268.85</ele>
        <time>2018-07-22T11:40:18Z</time>
      </trkpt>
      <trkpt lat="42.63814" lon="1.67153">
        <ele>2268.85</ele>
        <time>2018-07-22T11:40:30Z</time>
      </trkpt>
      <trkpt lat="42.63807" lon="1.67145">
        <ele>2268.37</ele>
        <time>2018-07-22T11:40:46Z</time>
      </trkpt>
      <trkpt lat="42.63811" lon="1.67145">
        <ele>2268.85</ele>
        <time>2018-07-22T11:40:58Z</time>
      </trkpt>
      <trkpt lat="42.63811" lon="1.67144">
        <ele>2269.81</ele>
        <time>2018-07-22T11:41:03Z</time>
      </trkpt>
      <trkpt lat="42.63809" lon="1.67142">
        <ele>2269.81</ele>
        <time>2018-07-22T11:41:06Z</time>
      </trkpt>
      <trkpt lat="42.638" lon="1.67128">
        <ele>2267.89</ele>
        <time>2018-07-22T11:41:14Z</time>
      </trkpt>
      <trkpt lat="42.6379" lon="1.67114">
        <ele>2264.52</ele>
        <time>2018-07-22T11:41:22Z</time>
      </trkpt>
      <trkpt lat="42.63785" lon="1.67096">
        <ele>2257.79</ele>
        <time>2018-07-22T11:41:30Z</time>
      </trkpt>
      <trkpt lat="42.63774" lon="1.67084">
        <ele>2251.06</ele>
        <time>2018-07-22T11:41:37Z</time>
      </trkpt>
      <trkpt lat="42.63771" lon="1.67077">
        <ele>2246.26</ele>
        <time>2018-07-22T11:41:45Z</time>
      </trkpt>
      <trkpt lat="42.63768" lon="1.67077">
        <ele>2244.82</ele>
        <time>2018-07-22T11:41:49Z</time>
      </trkpt>
      <trkpt lat="42.63754" lon="1.67079">
        <ele>2242.89</ele>
        <time>2018-07-22T11:41:59Z</time>
      </trkpt>
      <trkpt lat="42.63753" lon="1.67078">
        <ele>2242.41</ele>
        <time>2018-07-22T11:42:00Z</time>
      </trkpt>
      <trkpt lat="42.63749" lon="1.67068">
        <ele>2240.49</ele>
        <time>2018-07-22T11:42:10Z</time>
      </trkpt>
      <trkpt lat="42.63746" lon="1.67058">
        <ele>2239.05</ele>
        <time>2018-07-22T11:42:20Z</time>
      </trkpt>
      <trkpt lat="42.63748" lon="1.67058">
        <ele>2237.61</ele>
        <time>2018-07-22T11:42:33Z</time>
      </trkpt>
      <trkpt lat="42.6374" lon="1.67051">
        <ele>2235.68</ele>
        <time>2018-07-22T11:42:49Z</time>
      </trkpt>
      <trkpt lat="42.63736" lon="1.67052">
        <ele>2235.68</ele>
        <time>2018-07-22T11:42:55Z</time>
      </trkpt>
      <trkpt lat="42.63733" lon="1.67057">
        <ele>2234.72</ele>
        <time>2018-07-22T11:43:03Z</time>
      </trkpt>
      <trkpt lat="42.63734" lon="1.67061">
        <ele>2230.4</ele>
        <time>2018-07-22T11:43:20Z</time>
      </trkpt>
      <trkpt lat="42.63739" lon="1.67063">
        <ele>2230.88</ele>
        <time>2018-07-22T11:43:27Z</time>
      </trkpt>
      <trkpt lat="42.63738" lon="1.67062">
        <ele>2232.8</ele>
        <time>2018-07-22T11:43:36Z</time>
      </trkpt>
      <trkpt lat="42.63742" lon="1.67057">
        <ele>2231.84</ele>
        <time>2018-07-22T11:43:50Z</time>
      </trkpt>
      <trkpt lat="42.6375" lon="1.67052">
        <ele>2234.24</ele>
        <time>2018-07-22T11:43:59Z</time>
      </trkpt>
      <trkpt lat="42.63749" lon="1.67045">
        <ele>2232.32</ele>
        <time>2018-07-22T11:44:07Z</time>
      </trkpt>
      <trkpt lat="42.63749" lon="1.67044">
        <ele>2232.32</ele>
        <time>2018-07-22T11:44:08Z</time>
      </trkpt>
      <trkpt lat="42.63747" lon="1.67037">
        <ele>2231.36</ele>
        <time>2018-07-22T11:44:12Z</time>
      </trkpt>
      <trkpt lat="42.63742" lon="1.67021">
        <ele>2231.36</ele>
        <time>2018-07-22T11:44:20Z</time>
      </trkpt>
      <trkpt lat="42.63733" lon="1.67013">
        <ele>2230.4</ele>
        <time>2018-07-22T11:44:28Z</time>
      </trkpt>
      <trkpt lat="42.63731" lon="1.67014">
        <ele>2230.4</ele>
        <time>2018-07-22T11:44:30Z</time>
      </trkpt>
      <trkpt lat="42.63722" lon="1.67014">
        <ele>2228.95</ele>
        <time>2018-07-22T11:44:37Z</time>
      </trkpt>
      <trkpt lat="42.63722" lon="1.67016">
        <ele>2227.51</ele>
        <time>2018-07-22T11:44:44Z</time>
      </trkpt>
      <trkpt lat="42.63721" lon="1.6701">
        <ele>2227.03</ele>
        <time>2018-07-22T11:44:48Z</time>
      </trkpt>
      <trkpt lat="42.63716" lon="1.67006">
        <ele>2227.51</ele>
        <time>2018-07-22T11:44:55Z</time>
      </trkpt>
      <trkpt lat="42.63707" lon="1.66999">
        <ele>2225.59</ele>
        <time>2018-07-22T11:45:04Z</time>
      </trkpt>
      <trkpt lat="42.63699" lon="1.66989">
        <ele>2224.63</ele>
        <time>2018-07-22T11:45:13Z</time>
      </trkpt>
      <trkpt lat="42.63693" lon="1.66983">
        <ele>2222.71</ele>
        <time>2018-07-22T11:45:20Z</time>
      </trkpt>
      <trkpt lat="42.63688" lon="1.6698">
        <ele>2221.26</ele>
        <time>2018-07-22T11:45:28Z</time>
      </trkpt>
      <trkpt lat="42.63684" lon="1.66976">
        <ele>2219.82</ele>
        <time>2018-07-22T11:45:33Z</time>
      </trkpt>
      <trkpt lat="42.63678" lon="1.66972">
        <ele>2218.86</ele>
        <time>2018-07-22T11:45:38Z</time>
      </trkpt>
      <trkpt lat="42.63678" lon="1.66971">
        <ele>2217.9</ele>
        <time>2018-07-22T11:45:40Z</time>
      </trkpt>
      <trkpt lat="42.6367" lon="1.66969">
        <ele>2215.01</ele>
        <time>2018-07-22T11:45:48Z</time>
      </trkpt>
      <trkpt lat="42.63667" lon="1.66959">
        <ele>2212.61</ele>
        <time>2018-07-22T11:45:54Z</time>
      </trkpt>
      <trkpt lat="42.63659" lon="1.66955">
        <ele>2209.73</ele>
        <time>2018-07-22T11:46:03Z</time>
      </trkpt>
      <trkpt lat="42.63656" lon="1.66953">
        <ele>2208.29</ele>
        <time>2018-07-22T11:46:15Z</time>
      </trkpt>
      <trkpt lat="42.63647" lon="1.66941">
        <ele>2207.32</ele>
        <time>2018-07-22T11:46:25Z</time>
      </trkpt>
      <trkpt lat="42.6364" lon="1.66931">
        <ele>2205.4</ele>
        <time>2018-07-22T11:46:36Z</time>
      </trkpt>
      <trkpt lat="42.63634" lon="1.66923">
        <ele>2204.44</ele>
        <time>2018-07-22T11:46:44Z</time>
      </trkpt>
      <trkpt lat="42.6363" lon="1.66919">
        <ele>2203.96</ele>
        <time>2018-07-22T11:46:48Z</time>
      </trkpt>
      <trkpt lat="42.63628" lon="1.66913">
        <ele>2203.48</ele>
        <time>2018-07-22T11:46:56Z</time>
      </trkpt>
      <trkpt lat="42.63626" lon="1.66909">
        <ele>2203.48</ele>
        <time>2018-07-22T11:47:11Z</time>
      </trkpt>
      <trkpt lat="42.63623" lon="1.66905">
        <ele>2203.96</ele>
        <time>2018-07-22T11:47:16Z</time>
      </trkpt>
      <trkpt lat="42.6362" lon="1.66905">
        <ele>2203.96</ele>
        <time>2018-07-22T11:47:19Z</time>
      </trkpt>
      <trkpt lat="42.63616" lon="1.66904">
        <ele>2203.48</ele>
        <time>2018-07-22T11:47:22Z</time>
      </trkpt>
      <trkpt lat="42.63611" lon="1.669">
        <ele>2203</ele>
        <time>2018-07-22T11:47:26Z</time>
      </trkpt>
      <trkpt lat="42.63606" lon="1.66897">
        <ele>2199.63</ele>
        <time>2018-07-22T11:47:34Z</time>
      </trkpt>
      <trkpt lat="42.63607" lon="1.66895">
        <ele>2197.71</ele>
        <time>2018-07-22T11:47:44Z</time>
      </trkpt>
      <trkpt lat="42.63609" lon="1.66894">
        <ele>2197.23</ele>
        <time>2018-07-22T11:47:58Z</time>
      </trkpt>
      <trkpt lat="42.63609" lon="1.66895">
        <ele>2198.19</ele>
        <time>2018-07-22T11:48:12Z</time>
      </trkpt>
      <trkpt lat="42.63609" lon="1.66897">
        <ele>2196.75</ele>
        <time>2018-07-22T11:48:30Z</time>
      </trkpt>
      <trkpt lat="42.63609" lon="1.66895">
        <ele>2197.71</ele>
        <time>2018-07-22T11:48:44Z</time>
      </trkpt>
      <trkpt lat="42.63609" lon="1.66895">
        <ele>2198.19</ele>
        <time>2018-07-22T11:48:45Z</time>
      </trkpt>
      <trkpt lat="42.63602" lon="1.66883">
        <ele>2198.19</ele>
        <time>2018-07-22T11:48:54Z</time>
      </trkpt>
      <trkpt lat="42.63598" lon="1.66876">
        <ele>2195.79</ele>
        <time>2018-07-22T11:49:01Z</time>
      </trkpt>
      <trkpt lat="42.63595" lon="1.66863">
        <ele>2193.87</ele>
        <time>2018-07-22T11:49:09Z</time>
      </trkpt>
      <trkpt lat="42.6359" lon="1.66854">
        <ele>2191.94</ele>
        <time>2018-07-22T11:49:16Z</time>
      </trkpt>
      <trkpt lat="42.63584" lon="1.6684">
        <ele>2190.5</ele>
        <time>2018-07-22T11:49:24Z</time>
      </trkpt>
      <trkpt lat="42.63579" lon="1.6683">
        <ele>2188.1</ele>
        <time>2018-07-22T11:49:30Z</time>
      </trkpt>
      <trkpt lat="42.63577" lon="1.66819">
        <ele>2184.25</ele>
        <time>2018-07-22T11:49:39Z</time>
      </trkpt>
      <trkpt lat="42.63576" lon="1.66813">
        <ele>2182.81</ele>
        <time>2018-07-22T11:49:53Z</time>
      </trkpt>
      <trkpt lat="42.6357" lon="1.66811">
        <ele>2181.37</ele>
        <time>2018-07-22T11:50:09Z</time>
      </trkpt>
      <trkpt lat="42.63574" lon="1.66812">
        <ele>2182.33</ele>
        <time>2018-07-22T11:50:24Z</time>
      </trkpt>
      <trkpt lat="42.63575" lon="1.66814">
        <ele>2183.77</ele>
        <time>2018-07-22T11:50:38Z</time>
      </trkpt>
      <trkpt lat="42.63572" lon="1.6681">
        <ele>2179.45</ele>
        <time>2018-07-22T11:50:53Z</time>
      </trkpt>
      <trkpt lat="42.63574" lon="1.66809">
        <ele>2179.93</ele>
        <time>2018-07-22T11:51:09Z</time>
      </trkpt>
      <trkpt lat="42.63574" lon="1.66808">
        <ele>2180.89</ele>
        <time>2018-07-22T11:51:23Z</time>
      </trkpt>
      <trkpt lat="42.63575" lon="1.66808">
        <ele>2183.29</ele>
        <time>2018-07-22T11:51:34Z</time>
      </trkpt>
      <trkpt lat="42.63575" lon="1.66805">
        <ele>2183.77</ele>
        <time>2018-07-22T11:51:42Z</time>
      </trkpt>
      <trkpt lat="42.63572" lon="1.66803">
        <ele>2182.81</ele>
        <time>2018-07-22T11:51:45Z</time>
      </trkpt>
      <trkpt lat="42.6357" lon="1.66799">
        <ele>2181.37</ele>
        <time>2018-07-22T11:51:48Z</time>
      </trkpt>
      <trkpt lat="42.63566" lon="1.66789">
        <ele>2179.45</ele>
        <time>2018-07-22T11:51:53Z</time>
      </trkpt>
      <trkpt lat="42.63559" lon="1.66775">
        <ele>2175.6</ele>
        <time>2018-07-22T11:52:02Z</time>
      </trkpt>
      <trkpt lat="42.63555" lon="1.66774">
        <ele>2174.16</ele>
        <time>2018-07-22T11:52:09Z</time>
      </trkpt>
      <trkpt lat="42.63551" lon="1.66771">
        <ele>2173.68</ele>
        <time>2018-07-22T11:52:12Z</time>
      </trkpt>
      <trkpt lat="42.63546" lon="1.66762">
        <ele>2168.87</ele>
        <time>2018-07-22T11:52:21Z</time>
      </trkpt>
      <trkpt lat="42.63544" lon="1.66759">
        <ele>2168.39</ele>
        <time>2018-07-22T11:52:23Z</time>
      </trkpt>
      <trkpt lat="42.63537" lon="1.66755">
        <ele>2165.99</ele>
        <time>2018-07-22T11:52:28Z</time>
      </trkpt>
      <trkpt lat="42.63527" lon="1.66745">
        <ele>2161.18</ele>
        <time>2018-07-22T11:52:36Z</time>
      </trkpt>
      <trkpt lat="42.63515" lon="1.66737">
        <ele>2157.34</ele>
        <time>2018-07-22T11:52:45Z</time>
      </trkpt>
      <trkpt lat="42.63514" lon="1.66733">
        <ele>2155.89</ele>
        <time>2018-07-22T11:52:49Z</time>
      </trkpt>
      <trkpt lat="42.63508" lon="1.66724">
        <ele>2153.97</ele>
        <time>2018-07-22T11:52:56Z</time>
      </trkpt>
      <trkpt lat="42.63498" lon="1.66714">
        <ele>2151.57</ele>
        <time>2018-07-22T11:53:04Z</time>
      </trkpt>
      <trkpt lat="42.63496" lon="1.66712">
        <ele>2151.57</ele>
        <time>2018-07-22T11:53:06Z</time>
      </trkpt>
      <trkpt lat="42.63487" lon="1.66703">
        <ele>2150.13</ele>
        <time>2018-07-22T11:53:15Z</time>
      </trkpt>
      <trkpt lat="42.63488" lon="1.66702">
        <ele>2149.16</ele>
        <time>2018-07-22T11:53:23Z</time>
      </trkpt>
      <trkpt lat="42.63484" lon="1.66702">
        <ele>2147.72</ele>
        <time>2018-07-22T11:53:36Z</time>
      </trkpt>
      <trkpt lat="42.63483" lon="1.66695">
        <ele>2147.24</ele>
        <time>2018-07-22T11:53:52Z</time>
      </trkpt>
      <trkpt lat="42.6348" lon="1.66691">
        <ele>2147.24</ele>
        <time>2018-07-22T11:54:04Z</time>
      </trkpt>
      <trkpt lat="42.63476" lon="1.66684">
        <ele>2147.72</ele>
        <time>2018-07-22T11:54:12Z</time>
      </trkpt>
      <trkpt lat="42.63474" lon="1.66677">
        <ele>2146.28</ele>
        <time>2018-07-22T11:54:22Z</time>
      </trkpt>
      <trkpt lat="42.63472" lon="1.66672">
        <ele>2144.84</ele>
        <time>2018-07-22T11:54:30Z</time>
      </trkpt>
      <trkpt lat="42.63468" lon="1.66665">
        <ele>2143.4</ele>
        <time>2018-07-22T11:54:39Z</time>
      </trkpt>
      <trkpt lat="42.63467" lon="1.66663">
        <ele>2142.44</ele>
        <time>2018-07-22T11:54:51Z</time>
      </trkpt>
      <trkpt lat="42.63464" lon="1.66658">
        <ele>2143.88</ele>
        <time>2018-07-22T11:54:58Z</time>
      </trkpt>
      <trkpt lat="42.6346" lon="1.66652">
        <ele>2142.44</ele>
        <time>2018-07-22T11:55:07Z</time>
      </trkpt>
      <trkpt lat="42.6346" lon="1.66651">
        <ele>2141.47</ele>
        <time>2018-07-22T11:55:14Z</time>
      </trkpt>
      <trkpt lat="42.63459" lon="1.6665">
        <ele>2141.47</ele>
        <time>2018-07-22T11:55:15Z</time>
      </trkpt>
      <trkpt lat="42.63457" lon="1.66642">
        <ele>2140.03</ele>
        <time>2018-07-22T11:55:24Z</time>
      </trkpt>
      <trkpt lat="42.63458" lon="1.66641">
        <ele>2139.55</ele>
        <time>2018-07-22T11:55:32Z</time>
      </trkpt>
      <trkpt lat="42.63456" lon="1.66637">
        <ele>2138.11</ele>
        <time>2018-07-22T11:55:40Z</time>
      </trkpt>
      <trkpt lat="42.63457" lon="1.66633">
        <ele>2138.11</ele>
        <time>2018-07-22T11:55:49Z</time>
      </trkpt>
      <trkpt lat="42.63456" lon="1.66631">
        <ele>2138.59</ele>
        <time>2018-07-22T11:55:57Z</time>
      </trkpt>
      <trkpt lat="42.63455" lon="1.66625">
        <ele>2139.07</ele>
        <time>2018-07-22T11:56:06Z</time>
      </trkpt>
      <trkpt lat="42.63455" lon="1.66626">
        <ele>2137.15</ele>
        <time>2018-07-22T11:56:23Z</time>
      </trkpt>
      <trkpt lat="42.63453" lon="1.66622">
        <ele>2139.55</ele>
        <time>2018-07-22T11:56:38Z</time>
      </trkpt>
      <trkpt lat="42.63448" lon="1.66614">
        <ele>2139.07</ele>
        <time>2018-07-22T11:56:47Z</time>
      </trkpt>
      <trkpt lat="42.63444" lon="1.66608">
        <ele>2138.59</ele>
        <time>2018-07-22T11:56:56Z</time>
      </trkpt>
      <trkpt lat="42.63445" lon="1.66603">
        <ele>2138.59</ele>
        <time>2018-07-22T11:57:03Z</time>
      </trkpt>
      <trkpt lat="42.63444" lon="1.66601">
        <ele>2138.11</ele>
        <time>2018-07-22T11:57:11Z</time>
      </trkpt>
      <trkpt lat="42.63444" lon="1.66599">
        <ele>2138.11</ele>
        <time>2018-07-22T11:57:13Z</time>
      </trkpt>
      <trkpt lat="42.6344" lon="1.66593">
        <ele>2138.11</ele>
        <time>2018-07-22T11:57:21Z</time>
      </trkpt>
      <trkpt lat="42.63439" lon="1.66591">
        <ele>2139.55</ele>
        <time>2018-07-22T11:57:28Z</time>
      </trkpt>
      <trkpt lat="42.63438" lon="1.66592">
        <ele>2138.59</ele>
        <time>2018-07-22T11:57:36Z</time>
      </trkpt>
      <trkpt lat="42.63438" lon="1.66588">
        <ele>2138.59</ele>
        <time>2018-07-22T11:57:46Z</time>
      </trkpt>
      <trkpt lat="42.63434" lon="1.66583">
        <ele>2137.63</ele>
        <time>2018-07-22T11:57:54Z</time>
      </trkpt>
      <trkpt lat="42.63434" lon="1.66581">
        <ele>2137.63</ele>
        <time>2018-07-22T11:57:57Z</time>
      </trkpt>
      <trkpt lat="42.63429" lon="1.66574">
        <ele>2138.11</ele>
        <time>2018-07-22T11:58:06Z</time>
      </trkpt>
      <trkpt lat="42.63427" lon="1.66568">
        <ele>2138.59</ele>
        <time>2018-07-22T11:58:14Z</time>
      </trkpt>
      <trkpt lat="42.63426" lon="1.66565">
        <ele>2140.03</ele>
        <time>2018-07-22T11:58:21Z</time>
      </trkpt>
      <trkpt lat="42.63423" lon="1.6656">
        <ele>2140.03</ele>
        <time>2018-07-22T11:58:28Z</time>
      </trkpt>
      <trkpt lat="42.63416" lon="1.66553">
        <ele>2139.07</ele>
        <time>2018-07-22T11:58:35Z</time>
      </trkpt>
      <trkpt lat="42.6341" lon="1.66548">
        <ele>2136.67</ele>
        <time>2018-07-22T11:58:44Z</time>
      </trkpt>
      <trkpt lat="42.63404" lon="1.66539">
        <ele>2134.74</ele>
        <time>2018-07-22T11:58:53Z</time>
      </trkpt>
      <trkpt lat="42.634" lon="1.66533">
        <ele>2133.3</ele>
        <time>2018-07-22T11:59:02Z</time>
      </trkpt>
      <trkpt lat="42.63396" lon="1.6653">
        <ele>2131.38</ele>
        <time>2018-07-22T11:59:13Z</time>
      </trkpt>
      <trkpt lat="42.63392" lon="1.66525">
        <ele>2130.42</ele>
        <time>2018-07-22T11:59:23Z</time>
      </trkpt>
      <trkpt lat="42.63395" lon="1.6653">
        <ele>2129.94</ele>
        <time>2018-07-22T11:59:31Z</time>
      </trkpt>
      <trkpt lat="42.63396" lon="1.6653">
        <ele>2130.9</ele>
        <time>2018-07-22T11:59:43Z</time>
      </trkpt>
      <trkpt lat="42.63397" lon="1.66531">
        <ele>2134.26</ele>
        <time>2018-07-22T12:00:01Z</time>
      </trkpt>
      <trkpt lat="42.63395" lon="1.6653">
        <ele>2136.67</ele>
        <time>2018-07-22T12:00:19Z</time>
      </trkpt>
      <trkpt lat="42.63395" lon="1.66525">
        <ele>2138.11</ele>
        <time>2018-07-22T12:00:28Z</time>
      </trkpt>
      <trkpt lat="42.63391" lon="1.66522">
        <ele>2136.67</ele>
        <time>2018-07-22T12:00:34Z</time>
      </trkpt>
      <trkpt lat="42.6339" lon="1.66521">
        <ele>2136.67</ele>
        <time>2018-07-22T12:00:35Z</time>
      </trkpt>
      <trkpt lat="42.63386" lon="1.66512">
        <ele>2134.74</ele>
        <time>2018-07-22T12:00:42Z</time>
      </trkpt>
      <trkpt lat="42.63377" lon="1.66503">
        <ele>2132.34</ele>
        <time>2018-07-22T12:00:50Z</time>
      </trkpt>
      <trkpt lat="42.63371" lon="1.66503">
        <ele>2128.98</ele>
        <time>2018-07-22T12:00:57Z</time>
      </trkpt>
      <trkpt lat="42.63362" lon="1.66498">
        <ele>2126.57</ele>
        <time>2018-07-22T12:01:05Z</time>
      </trkpt>
      <trkpt lat="42.63356" lon="1.66493">
        <ele>2124.65</ele>
        <time>2018-07-22T12:01:13Z</time>
      </trkpt>
      <trkpt lat="42.63357" lon="1.66495">
        <ele>2122.25</ele>
        <time>2018-07-22T12:01:25Z</time>
      </trkpt>
      <trkpt lat="42.63356" lon="1.66495">
        <ele>2122.25</ele>
        <time>2018-07-22T12:01:41Z</time>
      </trkpt>
      <trkpt lat="42.63354" lon="1.66491">
        <ele>2126.09</ele>
        <time>2018-07-22T12:02:04Z</time>
      </trkpt>
      <trkpt lat="42.63353" lon="1.66488">
        <ele>2125.13</ele>
        <time>2018-07-22T12:02:20Z</time>
      </trkpt>
      <trkpt lat="42.63354" lon="1.66488">
        <ele>2125.13</ele>
        <time>2018-07-22T12:02:39Z</time>
      </trkpt>
      <trkpt lat="42.6335" lon="1.66482">
        <ele>2123.69</ele>
        <time>2018-07-22T12:02:48Z</time>
      </trkpt>
      <trkpt lat="42.63348" lon="1.66483">
        <ele>2122.73</ele>
        <time>2018-07-22T12:02:55Z</time>
      </trkpt>
      <trkpt lat="42.63344" lon="1.66482">
        <ele>2121.29</ele>
        <time>2018-07-22T12:03:01Z</time>
      </trkpt>
      <trkpt lat="42.63334" lon="1.6648">
        <ele>2117.92</ele>
        <time>2018-07-22T12:03:10Z</time>
      </trkpt>
      <trkpt lat="42.63326" lon="1.66477">
        <ele>2115.52</ele>
        <time>2018-07-22T12:03:17Z</time>
      </trkpt>
      <trkpt lat="42.63322" lon="1.66476">
        <ele>2115.04</ele>
        <time>2018-07-22T12:03:23Z</time>
      </trkpt>
      <trkpt lat="42.63321" lon="1.66477">
        <ele>2113.6</ele>
        <time>2018-07-22T12:03:25Z</time>
      </trkpt>
      <trkpt lat="42.63314" lon="1.66475">
        <ele>2111.67</ele>
        <time>2018-07-22T12:03:33Z</time>
      </trkpt>
      <trkpt lat="42.63311" lon="1.66476">
        <ele>2110.23</ele>
        <time>2018-07-22T12:03:39Z</time>
      </trkpt>
      <trkpt lat="42.63306" lon="1.6648">
        <ele>2109.27</ele>
        <time>2018-07-22T12:03:45Z</time>
      </trkpt>
      <trkpt lat="42.63303" lon="1.66478">
        <ele>2108.31</ele>
        <time>2018-07-22T12:03:53Z</time>
      </trkpt>
      <trkpt lat="42.63305" lon="1.6648">
        <ele>2109.27</ele>
        <time>2018-07-22T12:04:05Z</time>
      </trkpt>
      <trkpt lat="42.63302" lon="1.66482">
        <ele>2111.19</ele>
        <time>2018-07-22T12:04:16Z</time>
      </trkpt>
      <trkpt lat="42.63296" lon="1.66484">
        <ele>2106.39</ele>
        <time>2018-07-22T12:04:24Z</time>
      </trkpt>
      <trkpt lat="42.63288" lon="1.66487">
        <ele>2103.98</ele>
        <time>2018-07-22T12:04:32Z</time>
      </trkpt>
      <trkpt lat="42.63283" lon="1.66489">
        <ele>2102.06</ele>
        <time>2018-07-22T12:04:38Z</time>
      </trkpt>
      <trkpt lat="42.6328" lon="1.66491">
        <ele>2100.14</ele>
        <time>2018-07-22T12:04:41Z</time>
      </trkpt>
      <trkpt lat="42.63275" lon="1.66501">
        <ele>2097.73</ele>
        <time>2018-07-22T12:04:48Z</time>
      </trkpt>
      <trkpt lat="42.63275" lon="1.66502">
        <ele>2097.73</ele>
        <time>2018-07-22T12:04:49Z</time>
      </trkpt>
      <trkpt lat="42.63272" lon="1.66513">
        <ele>2096.77</ele>
        <time>2018-07-22T12:04:56Z</time>
      </trkpt>
      <trkpt lat="42.63268" lon="1.66521">
        <ele>2093.41</ele>
        <time>2018-07-22T12:05:04Z</time>
      </trkpt>
      <trkpt lat="42.63268" lon="1.66513">
        <ele>2088.6</ele>
        <time>2018-07-22T12:05:12Z</time>
      </trkpt>
      <trkpt lat="42.63268" lon="1.6652">
        <ele>2088.6</ele>
        <time>2018-07-22T12:05:26Z</time>
      </trkpt>
      <trkpt lat="42.63267" lon="1.66526">
        <ele>2089.08</ele>
        <time>2018-07-22T12:05:32Z</time>
      </trkpt>
      <trkpt lat="42.63269" lon="1.66529">
        <ele>2087.64</ele>
        <time>2018-07-22T12:05:40Z</time>
      </trkpt>
      <trkpt lat="42.6327" lon="1.66531">
        <ele>2088.12</ele>
        <time>2018-07-22T12:05:48Z</time>
      </trkpt>
      <trkpt lat="42.63271" lon="1.66536">
        <ele>2088.12</ele>
        <time>2018-07-22T12:05:54Z</time>
      </trkpt>
      <trkpt lat="42.63272" lon="1.66541">
        <ele>2087.64</ele>
        <time>2018-07-22T12:06:02Z</time>
      </trkpt>
      <trkpt lat="42.6327" lon="1.66541">
        <ele>2085.24</ele>
        <time>2018-07-22T12:06:16Z</time>
      </trkpt>
      <trkpt lat="42.6327" lon="1.66542">
        <ele>2084.28</ele>
        <time>2018-07-22T12:06:17Z</time>
      </trkpt>
      <trkpt lat="42.63274" lon="1.6655">
        <ele>2084.76</ele>
        <time>2018-07-22T12:06:22Z</time>
      </trkpt>
      <trkpt lat="42.63276" lon="1.66553">
        <ele>2084.28</ele>
        <time>2018-07-22T12:06:25Z</time>
      </trkpt>
      <trkpt lat="42.63278" lon="1.66559">
        <ele>2084.76</ele>
        <time>2018-07-22T12:06:29Z</time>
      </trkpt>
      <trkpt lat="42.63281" lon="1.66563">
        <ele>2084.76</ele>
        <time>2018-07-22T12:06:31Z</time>
      </trkpt>
      <trkpt lat="42.63286" lon="1.66566">
        <ele>2083.31</ele>
        <time>2018-07-22T12:06:35Z</time>
      </trkpt>
      <trkpt lat="42.63291" lon="1.66574">
        <ele>2082.83</ele>
        <time>2018-07-22T12:06:42Z</time>
      </trkpt>
      <trkpt lat="42.63292" lon="1.66582">
        <ele>2079.47</ele>
        <time>2018-07-22T12:06:49Z</time>
      </trkpt>
      <trkpt lat="42.63294" lon="1.66591">
        <ele>2077.07</ele>
        <time>2018-07-22T12:06:56Z</time>
      </trkpt>
      <trkpt lat="42.63294" lon="1.66592">
        <ele>2078.03</ele>
        <time>2018-07-22T12:06:57Z</time>
      </trkpt>
      <trkpt lat="42.63291" lon="1.66602">
        <ele>2078.03</ele>
        <time>2018-07-22T12:07:06Z</time>
      </trkpt>
      <trkpt lat="42.63293" lon="1.66608">
        <ele>2076.59</ele>
        <time>2018-07-22T12:07:14Z</time>
      </trkpt>
      <trkpt lat="42.63293" lon="1.6661">
        <ele>2076.1</ele>
        <time>2018-07-22T12:07:16Z</time>
      </trkpt>
      <trkpt lat="42.63295" lon="1.66617">
        <ele>2075.14</ele>
        <time>2018-07-22T12:07:22Z</time>
      </trkpt>
      <trkpt lat="42.63297" lon="1.66627">
        <ele>2074.66</ele>
        <time>2018-07-22T12:07:29Z</time>
      </trkpt>
      <trkpt lat="42.63297" lon="1.6663">
        <ele>2072.26</ele>
        <time>2018-07-22T12:07:38Z</time>
      </trkpt>
      <trkpt lat="42.63297" lon="1.66638">
        <ele>2074.66</ele>
        <time>2018-07-22T12:07:45Z</time>
      </trkpt>
      <trkpt lat="42.63301" lon="1.66644">
        <ele>2072.26</ele>
        <time>2018-07-22T12:07:52Z</time>
      </trkpt>
      <trkpt lat="42.63301" lon="1.6664">
        <ele>2072.26</ele>
        <time>2018-07-22T12:08:03Z</time>
      </trkpt>
      <trkpt lat="42.63304" lon="1.66641">
        <ele>2072.26</ele>
        <time>2018-07-22T12:08:16Z</time>
      </trkpt>
      <trkpt lat="42.63302" lon="1.66647">
        <ele>2071.78</ele>
        <time>2018-07-22T12:08:25Z</time>
      </trkpt>
      <trkpt lat="42.63302" lon="1.66647">
        <ele>2072.26</ele>
        <time>2018-07-22T12:08:33Z</time>
      </trkpt>
      <trkpt lat="42.63302" lon="1.66645">
        <ele>2073.22</ele>
        <time>2018-07-22T12:08:46Z</time>
      </trkpt>
      <trkpt lat="42.63301" lon="1.66649">
        <ele>2076.1</ele>
        <time>2018-07-22T12:09:00Z</time>
      </trkpt>
      <trkpt lat="42.633" lon="1.66645">
        <ele>2078.03</ele>
        <time>2018-07-22T12:09:14Z</time>
      </trkpt>
      <trkpt lat="42.63301" lon="1.66648">
        <ele>2077.07</ele>
        <time>2018-07-22T12:09:29Z</time>
      </trkpt>
      <trkpt lat="42.63303" lon="1.66645">
        <ele>2077.07</ele>
        <time>2018-07-22T12:09:40Z</time>
      </trkpt>
      <trkpt lat="42.63302" lon="1.66647">
        <ele>2075.62</ele>
        <time>2018-07-22T12:09:51Z</time>
      </trkpt>
      <trkpt lat="42.63299" lon="1.66647">
        <ele>2079.47</ele>
        <time>2018-07-22T12:10:02Z</time>
      </trkpt>
      <trkpt lat="42.63298" lon="1.66644">
        <ele>2078.51</ele>
        <time>2018-07-22T12:10:16Z</time>
      </trkpt>
      <trkpt lat="42.63299" lon="1.66648">
        <ele>2078.99</ele>
        <time>2018-07-22T12:10:39Z</time>
      </trkpt>
      <trkpt lat="42.63298" lon="1.66647">
        <ele>2079.95</ele>
        <time>2018-07-22T12:10:54Z</time>
      </trkpt>
      <trkpt lat="42.63302" lon="1.66644">
        <ele>2078.03</ele>
        <time>2018-07-22T12:11:11Z</time>
      </trkpt>
      <trkpt lat="42.63298" lon="1.66646">
        <ele>2076.59</ele>
        <time>2018-07-22T12:11:24Z</time>
      </trkpt>
      <trkpt lat="42.63299" lon="1.66646">
        <ele>2076.59</ele>
        <time>2018-07-22T12:11:36Z</time>
      </trkpt>
      <trkpt lat="42.63301" lon="1.66647">
        <ele>2078.51</ele>
        <time>2018-07-22T12:11:51Z</time>
      </trkpt>
      <trkpt lat="42.63297" lon="1.66643">
        <ele>2080.43</ele>
        <time>2018-07-22T12:12:07Z</time>
      </trkpt>
      <trkpt lat="42.63302" lon="1.66649">
        <ele>2081.87</ele>
        <time>2018-07-22T12:12:22Z</time>
      </trkpt>
      <trkpt lat="42.63301" lon="1.66649">
        <ele>2081.87</ele>
        <time>2018-07-22T12:12:35Z</time>
      </trkpt>
      <trkpt lat="42.63301" lon="1.66648">
        <ele>2080.91</ele>
        <time>2018-07-22T12:12:44Z</time>
      </trkpt>
      <trkpt lat="42.63303" lon="1.66652">
        <ele>2079.95</ele>
        <time>2018-07-22T12:12:47Z</time>
      </trkpt>
      <trkpt lat="42.63303" lon="1.66665">
        <ele>2079.95</ele>
        <time>2018-07-22T12:12:54Z</time>
      </trkpt>
      <trkpt lat="42.63303" lon="1.66672">
        <ele>2079.95</ele>
        <time>2018-07-22T12:13:01Z</time>
      </trkpt>
      <trkpt lat="42.63305" lon="1.66678">
        <ele>2079.95</ele>
        <time>2018-07-22T12:13:06Z</time>
      </trkpt>
      <trkpt lat="42.63313" lon="1.66687">
        <ele>2078.99</ele>
        <time>2018-07-22T12:13:14Z</time>
      </trkpt>
      <trkpt lat="42.63317" lon="1.66695">
        <ele>2077.07</ele>
        <time>2018-07-22T12:13:21Z</time>
      </trkpt>
      <trkpt lat="42.63317" lon="1.66693">
        <ele>2075.14</ele>
        <time>2018-07-22T12:13:26Z</time>
      </trkpt>
      <trkpt lat="42.63318" lon="1.66701">
        <ele>2075.14</ele>
        <time>2018-07-22T12:13:31Z</time>
      </trkpt>
      <trkpt lat="42.6332" lon="1.66706">
        <ele>2075.62</ele>
        <time>2018-07-22T12:13:34Z</time>
      </trkpt>
      <trkpt lat="42.63322" lon="1.66715">
        <ele>2075.14</ele>
        <time>2018-07-22T12:13:40Z</time>
      </trkpt>
      <trkpt lat="42.63324" lon="1.66721">
        <ele>2073.22</ele>
        <time>2018-07-22T12:13:45Z</time>
      </trkpt>
      <trkpt lat="42.63325" lon="1.66727">
        <ele>2074.18</ele>
        <time>2018-07-22T12:13:50Z</time>
      </trkpt>
      <trkpt lat="42.63327" lon="1.66742">
        <ele>2071.78</ele>
        <time>2018-07-22T12:13:58Z</time>
      </trkpt>
      <trkpt lat="42.63332" lon="1.66752">
        <ele>2071.3</ele>
        <time>2018-07-22T12:14:05Z</time>
      </trkpt>
      <trkpt lat="42.63336" lon="1.66758">
        <ele>2070.82</ele>
        <time>2018-07-22T12:14:09Z</time>
      </trkpt>
      <trkpt lat="42.63337" lon="1.66764">
        <ele>2071.78</ele>
        <time>2018-07-22T12:14:13Z</time>
      </trkpt>
      <trkpt lat="42.63338" lon="1.66768">
        <ele>2071.78</ele>
        <time>2018-07-22T12:14:15Z</time>
      </trkpt>
      <trkpt lat="42.63343" lon="1.6678">
        <ele>2070.82</ele>
        <time>2018-07-22T12:14:22Z</time>
      </trkpt>
      <trkpt lat="42.63345" lon="1.66789">
        <ele>2069.38</ele>
        <time>2018-07-22T12:14:29Z</time>
      </trkpt>
      <trkpt lat="42.63351" lon="1.66795">
        <ele>2068.89</ele>
        <time>2018-07-22T12:14:37Z</time>
      </trkpt>
      <trkpt lat="42.63354" lon="1.66808">
        <ele>2068.41</ele>
        <time>2018-07-22T12:14:45Z</time>
      </trkpt>
      <trkpt lat="42.63356" lon="1.66819">
        <ele>2067.45</ele>
        <time>2018-07-22T12:14:52Z</time>
      </trkpt>
      <trkpt lat="42.63357" lon="1.66826">
        <ele>2067.45</ele>
        <time>2018-07-22T12:14:57Z</time>
      </trkpt>
      <trkpt lat="42.63358" lon="1.66832">
        <ele>2068.41</ele>
        <time>2018-07-22T12:15:00Z</time>
      </trkpt>
      <trkpt lat="42.6336" lon="1.66836">
        <ele>2067.93</ele>
        <time>2018-07-22T12:15:03Z</time>
      </trkpt>
      <trkpt lat="42.63359" lon="1.66839">
        <ele>2068.41</ele>
        <time>2018-07-22T12:15:05Z</time>
      </trkpt>
      <trkpt lat="42.63362" lon="1.66843">
        <ele>2067.93</ele>
        <time>2018-07-22T12:15:09Z</time>
      </trkpt>
      <trkpt lat="42.63366" lon="1.66843">
        <ele>2067.93</ele>
        <time>2018-07-22T12:15:12Z</time>
      </trkpt>
      <trkpt lat="42.63367" lon="1.66852">
        <ele>2066.49</ele>
        <time>2018-07-22T12:15:18Z</time>
      </trkpt>
      <trkpt lat="42.63367" lon="1.66859">
        <ele>2066.01</ele>
        <time>2018-07-22T12:15:22Z</time>
      </trkpt>
      <trkpt lat="42.6337" lon="1.66866">
        <ele>2065.53</ele>
        <time>2018-07-22T12:15:26Z</time>
      </trkpt>
      <trkpt lat="42.6337" lon="1.66872">
        <ele>2064.09</ele>
        <time>2018-07-22T12:15:34Z</time>
      </trkpt>
      <trkpt lat="42.63371" lon="1.66874">
        <ele>2064.09</ele>
        <time>2018-07-22T12:15:40Z</time>
      </trkpt>
      <trkpt lat="42.63371" lon="1.66875">
        <ele>2063.13</ele>
        <time>2018-07-22T12:15:44Z</time>
      </trkpt>
      <trkpt lat="42.63372" lon="1.6689">
        <ele>2060.24</ele>
        <time>2018-07-22T12:15:51Z</time>
      </trkpt>
      <trkpt lat="42.63375" lon="1.66901">
        <ele>2056.88</ele>
        <time>2018-07-22T12:15:58Z</time>
      </trkpt>
      <trkpt lat="42.63377" lon="1.66909">
        <ele>2053.51</ele>
        <time>2018-07-22T12:16:05Z</time>
      </trkpt>
      <trkpt lat="42.63381" lon="1.66917">
        <ele>2052.55</ele>
        <time>2018-07-22T12:16:13Z</time>
      </trkpt>
      <trkpt lat="42.63387" lon="1.66927">
        <ele>2049.19</ele>
        <time>2018-07-22T12:16:22Z</time>
      </trkpt>
      <trkpt lat="42.63392" lon="1.66937">
        <ele>2050.63</ele>
        <time>2018-07-22T12:16:30Z</time>
      </trkpt>
      <trkpt lat="42.63393" lon="1.66936">
        <ele>2049.19</ele>
        <time>2018-07-22T12:16:38Z</time>
      </trkpt>
      <trkpt lat="42.63394" lon="1.66937">
        <ele>2050.15</ele>
        <time>2018-07-22T12:16:45Z</time>
      </trkpt>
      <trkpt lat="42.63394" lon="1.66937">
        <ele>2049.67</ele>
        <time>2018-07-22T12:16:46Z</time>
      </trkpt>
      <trkpt lat="42.63397" lon="1.66942">
        <ele>2049.67</ele>
        <time>2018-07-22T12:16:51Z</time>
      </trkpt>
      <trkpt lat="42.63399" lon="1.66949">
        <ele>2048.23</ele>
        <time>2018-07-22T12:16:59Z</time>
      </trkpt>
      <trkpt lat="42.63396" lon="1.66958">
        <ele>2046.78</ele>
        <time>2018-07-22T12:17:07Z</time>
      </trkpt>
      <trkpt lat="42.63397" lon="1.66959">
        <ele>2046.78</ele>
        <time>2018-07-22T12:17:08Z</time>
      </trkpt>
      <trkpt lat="42.63399" lon="1.66965">
        <ele>2047.26</ele>
        <time>2018-07-22T12:17:14Z</time>
      </trkpt>
      <trkpt lat="42.63402" lon="1.66966">
        <ele>2046.3</ele>
        <time>2018-07-22T12:17:17Z</time>
      </trkpt>
      <trkpt lat="42.63406" lon="1.66968">
        <ele>2042.46</ele>
        <time>2018-07-22T12:17:25Z</time>
      </trkpt>
      <trkpt lat="42.63406" lon="1.66968">
        <ele>2040.54</ele>
        <time>2018-07-22T12:17:39Z</time>
      </trkpt>
      <trkpt lat="42.63405" lon="1.66968">
        <ele>2040.05</ele>
        <time>2018-07-22T12:17:56Z</time>
      </trkpt>
      <trkpt lat="42.63406" lon="1.6697">
        <ele>2040.05</ele>
        <time>2018-07-22T12:18:00Z</time>
      </trkpt>
      <trkpt lat="42.63411" lon="1.66974">
        <ele>2038.61</ele>
        <time>2018-07-22T12:18:07Z</time>
      </trkpt>
      <trkpt lat="42.63414" lon="1.66977">
        <ele>2039.09</ele>
        <time>2018-07-22T12:18:10Z</time>
      </trkpt>
      <trkpt lat="42.63418" lon="1.66993">
        <ele>2040.54</ele>
        <time>2018-07-22T12:18:19Z</time>
      </trkpt>
      <trkpt lat="42.6342" lon="1.66999">
        <ele>2041.98</ele>
        <time>2018-07-22T12:18:23Z</time>
      </trkpt>
      <trkpt lat="42.63422" lon="1.67002">
        <ele>2042.46</ele>
        <time>2018-07-22T12:18:26Z</time>
      </trkpt>
      <trkpt lat="42.63427" lon="1.67013">
        <ele>2041.98</ele>
        <time>2018-07-22T12:18:33Z</time>
      </trkpt>
      <trkpt lat="42.63427" lon="1.67016">
        <ele>2041.5</ele>
        <time>2018-07-22T12:18:35Z</time>
      </trkpt>
      <trkpt lat="42.63429" lon="1.67024">
        <ele>2042.46</ele>
        <time>2018-07-22T12:18:40Z</time>
      </trkpt>
      <trkpt lat="42.63429" lon="1.67032">
        <ele>2041.98</ele>
        <time>2018-07-22T12:18:44Z</time>
      </trkpt>
      <trkpt lat="42.63429" lon="1.67044">
        <ele>2041.98</ele>
        <time>2018-07-22T12:18:52Z</time>
      </trkpt>
      <trkpt lat="42.63429" lon="1.6706">
        <ele>2041.02</ele>
        <time>2018-07-22T12:19:01Z</time>
      </trkpt>
      <trkpt lat="42.63429" lon="1.67069">
        <ele>2039.09</ele>
        <time>2018-07-22T12:19:08Z</time>
      </trkpt>
      <trkpt lat="42.63428" lon="1.67079">
        <ele>2038.61</ele>
        <time>2018-07-22T12:19:15Z</time>
      </trkpt>
      <trkpt lat="42.6343" lon="1.67083">
        <ele>2039.09</ele>
        <time>2018-07-22T12:19:18Z</time>
      </trkpt>
      <trkpt lat="42.63432" lon="1.67089">
        <ele>2040.05</ele>
        <time>2018-07-22T12:19:22Z</time>
      </trkpt>
      <trkpt lat="42.63431" lon="1.67103">
        <ele>2042.46</ele>
        <time>2018-07-22T12:19:30Z</time>
      </trkpt>
      <trkpt lat="42.63433" lon="1.67112">
        <ele>2041.02</ele>
        <time>2018-07-22T12:19:37Z</time>
      </trkpt>
      <trkpt lat="42.63434" lon="1.67114">
        <ele>2038.61</ele>
        <time>2018-07-22T12:19:44Z</time>
      </trkpt>
      <trkpt lat="42.63437" lon="1.67121">
        <ele>2036.69</ele>
        <time>2018-07-22T12:19:54Z</time>
      </trkpt>
      <trkpt lat="42.63438" lon="1.67132">
        <ele>2033.33</ele>
        <time>2018-07-22T12:20:00Z</time>
      </trkpt>
      <trkpt lat="42.63441" lon="1.67144">
        <ele>2032.84</ele>
        <time>2018-07-22T12:20:07Z</time>
      </trkpt>
      <trkpt lat="42.63443" lon="1.67153">
        <ele>2031.88</ele>
        <time>2018-07-22T12:20:13Z</time>
      </trkpt>
      <trkpt lat="42.63444" lon="1.67151">
        <ele>2032.84</ele>
        <time>2018-07-22T12:20:19Z</time>
      </trkpt>
      <trkpt lat="42.63446" lon="1.67151">
        <ele>2032.84</ele>
        <time>2018-07-22T12:20:21Z</time>
      </trkpt>
      <trkpt lat="42.63453" lon="1.67159">
        <ele>2032.84</ele>
        <time>2018-07-22T12:20:30Z</time>
      </trkpt>
      <trkpt lat="42.63459" lon="1.67163">
        <ele>2033.81</ele>
        <time>2018-07-22T12:20:36Z</time>
      </trkpt>
      <trkpt lat="42.6346" lon="1.67164">
        <ele>2034.77</ele>
        <time>2018-07-22T12:20:37Z</time>
      </trkpt>
      <trkpt lat="42.63458" lon="1.67169">
        <ele>2037.17</ele>
        <time>2018-07-22T12:20:44Z</time>
      </trkpt>
      <trkpt lat="42.63463" lon="1.67176">
        <ele>2037.65</ele>
        <time>2018-07-22T12:20:51Z</time>
      </trkpt>
      <trkpt lat="42.63466" lon="1.67182">
        <ele>2038.61</ele>
        <time>2018-07-22T12:20:57Z</time>
      </trkpt>
      <trkpt lat="42.63466" lon="1.6719">
        <ele>2040.05</ele>
        <time>2018-07-22T12:21:05Z</time>
      </trkpt>
      <trkpt lat="42.63463" lon="1.67182">
        <ele>2041.02</ele>
        <time>2018-07-22T12:21:16Z</time>
      </trkpt>
      <trkpt lat="42.63463" lon="1.67184">
        <ele>2041.5</ele>
        <time>2018-07-22T12:21:19Z</time>
      </trkpt>
      <trkpt lat="42.63466" lon="1.67193">
        <ele>2042.94</ele>
        <time>2018-07-22T12:21:26Z</time>
      </trkpt>
      <trkpt lat="42.63467" lon="1.67196">
        <ele>2042.94</ele>
        <time>2018-07-22T12:21:37Z</time>
      </trkpt>
      <trkpt lat="42.6347" lon="1.67201">
        <ele>2043.9</ele>
        <time>2018-07-22T12:21:51Z</time>
      </trkpt>
      <trkpt lat="42.63472" lon="1.67199">
        <ele>2043.9</ele>
        <time>2018-07-22T12:21:57Z</time>
      </trkpt>
      <trkpt lat="42.63474" lon="1.672">
        <ele>2044.38</ele>
        <time>2018-07-22T12:21:59Z</time>
      </trkpt>
      <trkpt lat="42.63477" lon="1.67202">
        <ele>2045.34</ele>
        <time>2018-07-22T12:22:06Z</time>
      </trkpt>
      <trkpt lat="42.63478" lon="1.67209">
        <ele>2047.75</ele>
        <time>2018-07-22T12:22:16Z</time>
      </trkpt>
      <trkpt lat="42.63479" lon="1.67219">
        <ele>2046.78</ele>
        <time>2018-07-22T12:22:23Z</time>
      </trkpt>
      <trkpt lat="42.63479" lon="1.6722">
        <ele>2046.3</ele>
        <time>2018-07-22T12:22:24Z</time>
      </trkpt>
      <trkpt lat="42.63483" lon="1.67233">
        <ele>2046.3</ele>
        <time>2018-07-22T12:22:33Z</time>
      </trkpt>
      <trkpt lat="42.63484" lon="1.67243">
        <ele>2046.78</ele>
        <time>2018-07-22T12:22:39Z</time>
      </trkpt>
      <trkpt lat="42.63487" lon="1.67252">
        <ele>2047.26</ele>
        <time>2018-07-22T12:22:47Z</time>
      </trkpt>
      <trkpt lat="42.63489" lon="1.67256">
        <ele>2046.78</ele>
        <time>2018-07-22T12:22:51Z</time>
      </trkpt>
      <trkpt lat="42.63488" lon="1.6726">
        <ele>2047.75</ele>
        <time>2018-07-22T12:22:54Z</time>
      </trkpt>
      <trkpt lat="42.6349" lon="1.67259">
        <ele>2047.75</ele>
        <time>2018-07-22T12:22:57Z</time>
      </trkpt>
      <trkpt lat="42.63495" lon="1.67264">
        <ele>2048.71</ele>
        <time>2018-07-22T12:23:03Z</time>
      </trkpt>
      <trkpt lat="42.63496" lon="1.67276">
        <ele>2048.23</ele>
        <time>2018-07-22T12:23:10Z</time>
      </trkpt>
      <trkpt lat="42.63497" lon="1.6728">
        <ele>2048.71</ele>
        <time>2018-07-22T12:23:12Z</time>
      </trkpt>
      <trkpt lat="42.635" lon="1.67288">
        <ele>2049.67</ele>
        <time>2018-07-22T12:23:19Z</time>
      </trkpt>
      <trkpt lat="42.63501" lon="1.6729">
        <ele>2049.67</ele>
        <time>2018-07-22T12:23:21Z</time>
      </trkpt>
      <trkpt lat="42.63501" lon="1.67291">
        <ele>2050.15</ele>
        <time>2018-07-22T12:23:27Z</time>
      </trkpt>
      <trkpt lat="42.63504" lon="1.673">
        <ele>2049.67</ele>
        <time>2018-07-22T12:23:35Z</time>
      </trkpt>
      <trkpt lat="42.63504" lon="1.67308">
        <ele>2048.71</ele>
        <time>2018-07-22T12:23:41Z</time>
      </trkpt>
      <trkpt lat="42.63506" lon="1.67312">
        <ele>2048.23</ele>
        <time>2018-07-22T12:23:44Z</time>
      </trkpt>
      <trkpt lat="42.63507" lon="1.67319">
        <ele>2048.71</ele>
        <time>2018-07-22T12:23:50Z</time>
      </trkpt>
      <trkpt lat="42.63508" lon="1.67326">
        <ele>2049.19</ele>
        <time>2018-07-22T12:23:54Z</time>
      </trkpt>
      <trkpt lat="42.63507" lon="1.67338">
        <ele>2048.71</ele>
        <time>2018-07-22T12:24:01Z</time>
      </trkpt>
      <trkpt lat="42.63508" lon="1.67345">
        <ele>2047.26</ele>
        <time>2018-07-22T12:24:07Z</time>
      </trkpt>
      <trkpt lat="42.63509" lon="1.67347">
        <ele>2047.26</ele>
        <time>2018-07-22T12:24:09Z</time>
      </trkpt>
      <trkpt lat="42.63515" lon="1.67358">
        <ele>2046.3</ele>
        <time>2018-07-22T12:24:17Z</time>
      </trkpt>
      <trkpt lat="42.63516" lon="1.67364">
        <ele>2045.82</ele>
        <time>2018-07-22T12:24:23Z</time>
      </trkpt>
      <trkpt lat="42.63514" lon="1.67369">
        <ele>2045.82</ele>
        <time>2018-07-22T12:24:27Z</time>
      </trkpt>
      <trkpt lat="42.63514" lon="1.67382">
        <ele>2045.34</ele>
        <time>2018-07-22T12:24:36Z</time>
      </trkpt>
      <trkpt lat="42.63512" lon="1.6739">
        <ele>2045.34</ele>
        <time>2018-07-22T12:24:43Z</time>
      </trkpt>
      <trkpt lat="42.63511" lon="1.67389">
        <ele>2044.86</ele>
        <time>2018-07-22T12:24:51Z</time>
      </trkpt>
      <trkpt lat="42.63511" lon="1.67388">
        <ele>2044.38</ele>
        <time>2018-07-22T12:24:58Z</time>
      </trkpt>
      <trkpt lat="42.63512" lon="1.6739">
        <ele>2043.42</ele>
        <time>2018-07-22T12:25:07Z</time>
      </trkpt>
      <trkpt lat="42.63512" lon="1.67394">
        <ele>2042.46</ele>
        <time>2018-07-22T12:25:21Z</time>
      </trkpt>
      <trkpt lat="42.63514" lon="1.67392">
        <ele>2043.9</ele>
        <time>2018-07-22T12:25:30Z</time>
      </trkpt>
      <trkpt lat="42.63512" lon="1.67391">
        <ele>2045.82</ele>
        <time>2018-07-22T12:25:45Z</time>
      </trkpt>
      <trkpt lat="42.6351" lon="1.67386">
        <ele>2045.82</ele>
        <time>2018-07-22T12:26:03Z</time>
      </trkpt>
      <trkpt lat="42.63508" lon="1.67389">
        <ele>2045.34</ele>
        <time>2018-07-22T12:26:17Z</time>
      </trkpt>
      <trkpt lat="42.63512" lon="1.67392">
        <ele>2042.94</ele>
        <time>2018-07-22T12:26:26Z</time>
      </trkpt>
      <trkpt lat="42.63507" lon="1.6739">
        <ele>2042.46</ele>
        <time>2018-07-22T12:26:39Z</time>
      </trkpt>
      <trkpt lat="42.63509" lon="1.67387">
        <ele>2041.02</ele>
        <time>2018-07-22T12:26:47Z</time>
      </trkpt>
      <trkpt lat="42.63513" lon="1.67391">
        <ele>2041.5</ele>
        <time>2018-07-22T12:26:57Z</time>
      </trkpt>
      <trkpt lat="42.63513" lon="1.67398">
        <ele>2040.54</ele>
        <time>2018-07-22T12:27:04Z</time>
      </trkpt>
      <trkpt lat="42.63515" lon="1.67403">
        <ele>2041.02</ele>
        <time>2018-07-22T12:27:11Z</time>
      </trkpt>
      <trkpt lat="42.63515" lon="1.67407">
        <ele>2041.5</ele>
        <time>2018-07-22T12:27:13Z</time>
      </trkpt>
      <trkpt lat="42.63516" lon="1.67411">
        <ele>2041.98</ele>
        <time>2018-07-22T12:27:16Z</time>
      </trkpt>
      <trkpt lat="42.63517" lon="1.67417">
        <ele>2041.5</ele>
        <time>2018-07-22T12:27:20Z</time>
      </trkpt>
      <trkpt lat="42.6352" lon="1.67425">
        <ele>2042.46</ele>
        <time>2018-07-22T12:27:28Z</time>
      </trkpt>
      <trkpt lat="42.63524" lon="1.67433">
        <ele>2041.98</ele>
        <time>2018-07-22T12:27:35Z</time>
      </trkpt>
      <trkpt lat="42.63527" lon="1.67443">
        <ele>2042.94</ele>
        <time>2018-07-22T12:27:43Z</time>
      </trkpt>
      <trkpt lat="42.63526" lon="1.67452">
        <ele>2041.5</ele>
        <time>2018-07-22T12:27:50Z</time>
      </trkpt>
      <trkpt lat="42.63526" lon="1.67453">
        <ele>2041.5</ele>
        <time>2018-07-22T12:27:51Z</time>
      </trkpt>
      <trkpt lat="42.63527" lon="1.67455">
        <ele>2041.5</ele>
        <time>2018-07-22T12:27:53Z</time>
      </trkpt>
      <trkpt lat="42.63532" lon="1.67464">
        <ele>2039.57</ele>
        <time>2018-07-22T12:28:00Z</time>
      </trkpt>
      <trkpt lat="42.63534" lon="1.67473">
        <ele>2039.09</ele>
        <time>2018-07-22T12:28:05Z</time>
      </trkpt>
      <trkpt lat="42.6354" lon="1.67476">
        <ele>2038.61</ele>
        <time>2018-07-22T12:28:11Z</time>
      </trkpt>
      <trkpt lat="42.63539" lon="1.67483">
        <ele>2038.13</ele>
        <time>2018-07-22T12:28:18Z</time>
      </trkpt>
      <trkpt lat="42.63541" lon="1.6749">
        <ele>2038.13</ele>
        <time>2018-07-22T12:28:25Z</time>
      </trkpt>
      <trkpt lat="42.63543" lon="1.67489">
        <ele>2037.17</ele>
        <time>2018-07-22T12:28:27Z</time>
      </trkpt>
      <trkpt lat="42.63548" lon="1.67497">
        <ele>2037.17</ele>
        <time>2018-07-22T12:28:35Z</time>
      </trkpt>
      <trkpt lat="42.63546" lon="1.675">
        <ele>2037.17</ele>
        <time>2018-07-22T12:28:40Z</time>
      </trkpt>
      <trkpt lat="42.63545" lon="1.67505">
        <ele>2037.17</ele>
        <time>2018-07-22T12:28:43Z</time>
      </trkpt>
      <trkpt lat="42.63544" lon="1.67516">
        <ele>2038.13</ele>
        <time>2018-07-22T12:28:51Z</time>
      </trkpt>
      <trkpt lat="42.63545" lon="1.67518">
        <ele>2038.13</ele>
        <time>2018-07-22T12:28:58Z</time>
      </trkpt>
      <trkpt lat="42.63548" lon="1.67529">
        <ele>2037.17</ele>
        <time>2018-07-22T12:29:06Z</time>
      </trkpt>
      <trkpt lat="42.63546" lon="1.67536">
        <ele>2037.65</ele>
        <time>2018-07-22T12:29:13Z</time>
      </trkpt>
      <trkpt lat="42.63545" lon="1.67538">
        <ele>2036.69</ele>
        <time>2018-07-22T12:29:15Z</time>
      </trkpt>
      <trkpt lat="42.63544" lon="1.6754">
        <ele>2036.21</ele>
        <time>2018-07-22T12:29:17Z</time>
      </trkpt>
      <trkpt lat="42.63541" lon="1.67544">
        <ele>2035.25</ele>
        <time>2018-07-22T12:29:24Z</time>
      </trkpt>
      <trkpt lat="42.63541" lon="1.67546">
        <ele>2035.25</ele>
        <time>2018-07-22T12:29:25Z</time>
      </trkpt>
      <trkpt lat="42.63538" lon="1.67551">
        <ele>2034.77</ele>
        <time>2018-07-22T12:29:28Z</time>
      </trkpt>
      <trkpt lat="42.63539" lon="1.67563">
        <ele>2035.73</ele>
        <time>2018-07-22T12:29:35Z</time>
      </trkpt>
      <trkpt lat="42.63539" lon="1.67564">
        <ele>2035.25</ele>
        <time>2018-07-22T12:29:36Z</time>
      </trkpt>
      <trkpt lat="42.63539" lon="1.67573">
        <ele>2034.29</ele>
        <time>2018-07-22T12:29:44Z</time>
      </trkpt>
      <trkpt lat="42.6354" lon="1.67575">
        <ele>2032.36</ele>
        <time>2018-07-22T12:29:52Z</time>
      </trkpt>
      <trkpt lat="42.63543" lon="1.67576">
        <ele>2031.88</ele>
        <time>2018-07-22T12:29:55Z</time>
      </trkpt>
      <trkpt lat="42.63545" lon="1.6758">
        <ele>2031.88</ele>
        <time>2018-07-22T12:29:57Z</time>
      </trkpt>
      <trkpt lat="42.63544" lon="1.67593">
        <ele>2030.44</ele>
        <time>2018-07-22T12:30:06Z</time>
      </trkpt>
      <trkpt lat="42.63544" lon="1.676">
        <ele>2029.96</ele>
        <time>2018-07-22T12:30:13Z</time>
      </trkpt>
      <trkpt lat="42.63544" lon="1.67603">
        <ele>2029.48</ele>
        <time>2018-07-22T12:30:15Z</time>
      </trkpt>
      <trkpt lat="42.63547" lon="1.67616">
        <ele>2029</ele>
        <time>2018-07-22T12:30:23Z</time>
      </trkpt>
      <trkpt lat="42.6355" lon="1.67626">
        <ele>2028.04</ele>
        <time>2018-07-22T12:30:31Z</time>
      </trkpt>
      <trkpt lat="42.63553" lon="1.67634">
        <ele>2027.08</ele>
        <time>2018-07-22T12:30:38Z</time>
      </trkpt>
      <trkpt lat="42.63555" lon="1.67638">
        <ele>2027.08</ele>
        <time>2018-07-22T12:30:41Z</time>
      </trkpt>
      <trkpt lat="42.63558" lon="1.67648">
        <ele>2025.15</ele>
        <time>2018-07-22T12:30:50Z</time>
      </trkpt>
      <trkpt lat="42.63558" lon="1.6765">
        <ele>2025.15</ele>
        <time>2018-07-22T12:30:52Z</time>
      </trkpt>
      <trkpt lat="42.63561" lon="1.67657">
        <ele>2024.19</ele>
        <time>2018-07-22T12:31:00Z</time>
      </trkpt>
      <trkpt lat="42.63562" lon="1.67657">
        <ele>2023.23</ele>
        <time>2018-07-22T12:31:07Z</time>
      </trkpt>
      <trkpt lat="42.63565" lon="1.67661">
        <ele>2021.79</ele>
        <time>2018-07-22T12:31:13Z</time>
      </trkpt>
      <trkpt lat="42.63568" lon="1.67667">
        <ele>2021.79</ele>
        <time>2018-07-22T12:31:18Z</time>
      </trkpt>
      <trkpt lat="42.63577" lon="1.67674">
        <ele>2019.87</ele>
        <time>2018-07-22T12:31:26Z</time>
      </trkpt>
      <trkpt lat="42.63582" lon="1.67679">
        <ele>2016.5</ele>
        <time>2018-07-22T12:31:34Z</time>
      </trkpt>
      <trkpt lat="42.63584" lon="1.67677">
        <ele>2016.02</ele>
        <time>2018-07-22T12:31:45Z</time>
      </trkpt>
      <trkpt lat="42.63582" lon="1.67681">
        <ele>2017.46</ele>
        <time>2018-07-22T12:31:58Z</time>
      </trkpt>
      <trkpt lat="42.63582" lon="1.67683">
        <ele>2016.02</ele>
        <time>2018-07-22T12:32:05Z</time>
      </trkpt>
      <trkpt lat="42.63584" lon="1.67689">
        <ele>2015.06</ele>
        <time>2018-07-22T12:32:13Z</time>
      </trkpt>
      <trkpt lat="42.63584" lon="1.67691">
        <ele>2014.58</ele>
        <time>2018-07-22T12:32:14Z</time>
      </trkpt>
      <trkpt lat="42.63583" lon="1.677">
        <ele>2013.62</ele>
        <time>2018-07-22T12:32:19Z</time>
      </trkpt>
      <trkpt lat="42.63583" lon="1.67706">
        <ele>2014.1</ele>
        <time>2018-07-22T12:32:22Z</time>
      </trkpt>
      <trkpt lat="42.63585" lon="1.67716">
        <ele>2011.22</ele>
        <time>2018-07-22T12:32:31Z</time>
      </trkpt>
      <trkpt lat="42.63587" lon="1.67726">
        <ele>2009.29</ele>
        <time>2018-07-22T12:32:39Z</time>
      </trkpt>
      <trkpt lat="42.63591" lon="1.6773">
        <ele>2009.29</ele>
        <time>2018-07-22T12:32:43Z</time>
      </trkpt>
      <trkpt lat="42.63595" lon="1.67743">
        <ele>2009.77</ele>
        <time>2018-07-22T12:32:52Z</time>
      </trkpt>
      <trkpt lat="42.63596" lon="1.67754">
        <ele>2008.33</ele>
        <time>2018-07-22T12:33:00Z</time>
      </trkpt>
      <trkpt lat="42.63599" lon="1.67764">
        <ele>2007.85</ele>
        <time>2018-07-22T12:33:08Z</time>
      </trkpt>
      <trkpt lat="42.636" lon="1.67775">
        <ele>2004.97</ele>
        <time>2018-07-22T12:33:16Z</time>
      </trkpt>
      <trkpt lat="42.636" lon="1.67793">
        <ele>2001.12</ele>
        <time>2018-07-22T12:33:26Z</time>
      </trkpt>
      <trkpt lat="42.63601" lon="1.67803">
        <ele>1997.76</ele>
        <time>2018-07-22T12:33:34Z</time>
      </trkpt>
      <trkpt lat="42.63605" lon="1.67809">
        <ele>1995.83</ele>
        <time>2018-07-22T12:33:41Z</time>
      </trkpt>
      <trkpt lat="42.63607" lon="1.67811">
        <ele>1995.83</ele>
        <time>2018-07-22T12:33:43Z</time>
      </trkpt>
      <trkpt lat="42.6361" lon="1.67818">
        <ele>1995.83</ele>
        <time>2018-07-22T12:33:51Z</time>
      </trkpt>
      <trkpt lat="42.63608" lon="1.67823">
        <ele>1996.32</ele>
        <time>2018-07-22T12:33:57Z</time>
      </trkpt>
      <trkpt lat="42.63608" lon="1.67823">
        <ele>1997.28</ele>
        <time>2018-07-22T12:34:02Z</time>
      </trkpt>
      <trkpt lat="42.63608" lon="1.67826">
        <ele>1996.8</ele>
        <time>2018-07-22T12:34:09Z</time>
      </trkpt>
      <trkpt lat="42.6361" lon="1.67825">
        <ele>1996.8</ele>
        <time>2018-07-22T12:34:17Z</time>
      </trkpt>
      <trkpt lat="42.63611" lon="1.6783">
        <ele>1996.32</ele>
        <time>2018-07-22T12:34:32Z</time>
      </trkpt>
      <trkpt lat="42.6361" lon="1.6783">
        <ele>1996.32</ele>
        <time>2018-07-22T12:34:52Z</time>
      </trkpt>
      <trkpt lat="42.63612" lon="1.67829">
        <ele>1996.8</ele>
        <time>2018-07-22T12:35:09Z</time>
      </trkpt>
      <trkpt lat="42.63614" lon="1.67824">
        <ele>1996.8</ele>
        <time>2018-07-22T12:35:27Z</time>
      </trkpt>
      <trkpt lat="42.63611" lon="1.6782">
        <ele>1995.83</ele>
        <time>2018-07-22T12:35:42Z</time>
      </trkpt>
      <trkpt lat="42.63609" lon="1.6782">
        <ele>1995.35</ele>
        <time>2018-07-22T12:35:46Z</time>
      </trkpt>
      <trkpt lat="42.63609" lon="1.67818">
        <ele>1994.87</ele>
        <time>2018-07-22T12:35:51Z</time>
      </trkpt>
      <trkpt lat="42.63609" lon="1.67817">
        <ele>1993.43</ele>
        <time>2018-07-22T12:36:00Z</time>
      </trkpt>
      <trkpt lat="42.63611" lon="1.6782">
        <ele>1994.87</ele>
        <time>2018-07-22T12:36:11Z</time>
      </trkpt>
      <trkpt lat="42.63613" lon="1.67823">
        <ele>1996.8</ele>
        <time>2018-07-22T12:36:17Z</time>
      </trkpt>
      <trkpt lat="42.63613" lon="1.67829">
        <ele>1996.32</ele>
        <time>2018-07-22T12:36:24Z</time>
      </trkpt>
      <trkpt lat="42.63615" lon="1.67833">
        <ele>1995.35</ele>
        <time>2018-07-22T12:36:28Z</time>
      </trkpt>
      <trkpt lat="42.63614" lon="1.67838">
        <ele>1993.91</ele>
        <time>2018-07-22T12:36:31Z</time>
      </trkpt>
      <trkpt lat="42.63616" lon="1.67844">
        <ele>1994.39</ele>
        <time>2018-07-22T12:36:35Z</time>
      </trkpt>
      <trkpt lat="42.63619" lon="1.67851">
        <ele>1991.03</ele>
        <time>2018-07-22T12:36:41Z</time>
      </trkpt>
      <trkpt lat="42.63618" lon="1.67858">
        <ele>1991.51</ele>
        <time>2018-07-22T12:36:49Z</time>
      </trkpt>
      <trkpt lat="42.63621" lon="1.67854">
        <ele>1989.1</ele>
        <time>2018-07-22T12:37:05Z</time>
      </trkpt>
      <trkpt lat="42.63624" lon="1.67862">
        <ele>1987.18</ele>
        <time>2018-07-22T12:37:12Z</time>
      </trkpt>
      <trkpt lat="42.63621" lon="1.67874">
        <ele>1986.7</ele>
        <time>2018-07-22T12:37:19Z</time>
      </trkpt>
      <trkpt lat="42.6362" lon="1.67884">
        <ele>1986.7</ele>
        <time>2018-07-22T12:37:27Z</time>
      </trkpt>
      <trkpt lat="42.63624" lon="1.67893">
        <ele>1984.78</ele>
        <time>2018-07-22T12:37:33Z</time>
      </trkpt>
      <trkpt lat="42.63624" lon="1.67894">
        <ele>1985.26</ele>
        <time>2018-07-22T12:37:34Z</time>
      </trkpt>
      <trkpt lat="42.6363" lon="1.67899">
        <ele>1981.9</ele>
        <time>2018-07-22T12:37:40Z</time>
      </trkpt>
      <trkpt lat="42.63632" lon="1.67912">
        <ele>1979.49</ele>
        <time>2018-07-22T12:37:49Z</time>
      </trkpt>
      <trkpt lat="42.63633" lon="1.67913">
        <ele>1979.97</ele>
        <time>2018-07-22T12:37:50Z</time>
      </trkpt>
      <trkpt lat="42.63639" lon="1.67928">
        <ele>1979.01</ele>
        <time>2018-07-22T12:38:00Z</time>
      </trkpt>
      <trkpt lat="42.63639" lon="1.6793">
        <ele>1979.01</ele>
        <time>2018-07-22T12:38:01Z</time>
      </trkpt>
      <trkpt lat="42.63642" lon="1.67937">
        <ele>1978.05</ele>
        <time>2018-07-22T12:38:06Z</time>
      </trkpt>
      <trkpt lat="42.63643" lon="1.67946">
        <ele>1977.57</ele>
        <time>2018-07-22T12:38:14Z</time>
      </trkpt>
      <trkpt lat="42.63643" lon="1.67951">
        <ele>1977.57</ele>
        <time>2018-07-22T12:38:18Z</time>
      </trkpt>
      <trkpt lat="42.63643" lon="1.67962">
        <ele>1976.61</ele>
        <time>2018-07-22T12:38:26Z</time>
      </trkpt>
      <trkpt lat="42.63643" lon="1.67964">
        <ele>1976.61</ele>
        <time>2018-07-22T12:38:27Z</time>
      </trkpt>
      <trkpt lat="42.63643" lon="1.67966">
        <ele>1976.61</ele>
        <time>2018-07-22T12:38:29Z</time>
      </trkpt>
      <trkpt lat="42.63644" lon="1.67968">
        <ele>1976.13</ele>
        <time>2018-07-22T12:38:31Z</time>
      </trkpt>
      <trkpt lat="42.63646" lon="1.67971">
        <ele>1975.17</ele>
        <time>2018-07-22T12:38:33Z</time>
      </trkpt>
      <trkpt lat="42.63649" lon="1.67982">
        <ele>1974.69</ele>
        <time>2018-07-22T12:38:40Z</time>
      </trkpt>
      <trkpt lat="42.63649" lon="1.67986">
        <ele>1973.72</ele>
        <time>2018-07-22T12:38:43Z</time>
      </trkpt>
      <trkpt lat="42.63651" lon="1.67998">
        <ele>1971.8</ele>
        <time>2018-07-22T12:38:52Z</time>
      </trkpt>
      <trkpt lat="42.63652" lon="1.68001">
        <ele>1970.84</ele>
        <time>2018-07-22T12:38:55Z</time>
      </trkpt>
      <trkpt lat="42.63652" lon="1.68013">
        <ele>1969.4</ele>
        <time>2018-07-22T12:39:03Z</time>
      </trkpt>
      <trkpt lat="42.63652" lon="1.68018">
        <ele>1968.92</ele>
        <time>2018-07-22T12:39:06Z</time>
      </trkpt>
      <trkpt lat="42.63652" lon="1.68021">
        <ele>1969.4</ele>
        <time>2018-07-22T12:39:08Z</time>
      </trkpt>
      <trkpt lat="42.63654" lon="1.68033">
        <ele>1969.88</ele>
        <time>2018-07-22T12:39:17Z</time>
      </trkpt>
      <trkpt lat="42.63655" lon="1.68048">
        <ele>1968.44</ele>
        <time>2018-07-22T12:39:25Z</time>
      </trkpt>
      <trkpt lat="42.63658" lon="1.68056">
        <ele>1966.99</ele>
        <time>2018-07-22T12:39:30Z</time>
      </trkpt>
      <trkpt lat="42.63661" lon="1.68069">
        <ele>1967.96</ele>
        <time>2018-07-22T12:39:39Z</time>
      </trkpt>
      <trkpt lat="42.63661" lon="1.68082">
        <ele>1966.03</ele>
        <time>2018-07-22T12:39:47Z</time>
      </trkpt>
      <trkpt lat="42.63663" lon="1.68092">
        <ele>1965.07</ele>
        <time>2018-07-22T12:39:55Z</time>
      </trkpt>
      <trkpt lat="42.63666" lon="1.681">
        <ele>1963.15</ele>
        <time>2018-07-22T12:40:03Z</time>
      </trkpt>
      <trkpt lat="42.63668" lon="1.6811">
        <ele>1961.23</ele>
        <time>2018-07-22T12:40:11Z</time>
      </trkpt>
      <trkpt lat="42.63669" lon="1.68119">
        <ele>1960.27</ele>
        <time>2018-07-22T12:40:17Z</time>
      </trkpt>
      <trkpt lat="42.63673" lon="1.68129">
        <ele>1959.3</ele>
        <time>2018-07-22T12:40:25Z</time>
      </trkpt>
      <trkpt lat="42.63677" lon="1.68137">
        <ele>1957.38</ele>
        <time>2018-07-22T12:40:32Z</time>
      </trkpt>
      <trkpt lat="42.63676" lon="1.68144">
        <ele>1956.9</ele>
        <time>2018-07-22T12:40:37Z</time>
      </trkpt>
      <trkpt lat="42.63678" lon="1.68148">
        <ele>1955.94</ele>
        <time>2018-07-22T12:40:40Z</time>
      </trkpt>
      <trkpt lat="42.63679" lon="1.68157">
        <ele>1952.09</ele>
        <time>2018-07-22T12:40:47Z</time>
      </trkpt>
      <trkpt lat="42.63681" lon="1.6816">
        <ele>1952.57</ele>
        <time>2018-07-22T12:40:50Z</time>
      </trkpt>
      <trkpt lat="42.63682" lon="1.68167">
        <ele>1949.69</ele>
        <time>2018-07-22T12:40:58Z</time>
      </trkpt>
      <trkpt lat="42.63679" lon="1.68173">
        <ele>1945.36</ele>
        <time>2018-07-22T12:41:05Z</time>
      </trkpt>
      <trkpt lat="42.63676" lon="1.68179">
        <ele>1944.4</ele>
        <time>2018-07-22T12:41:14Z</time>
      </trkpt>
      <trkpt lat="42.63675" lon="1.68183">
        <ele>1945.85</ele>
        <time>2018-07-22T12:41:30Z</time>
      </trkpt>
      <trkpt lat="42.63682" lon="1.68173">
        <ele>1947.77</ele>
        <time>2018-07-22T12:41:46Z</time>
      </trkpt>
      <trkpt lat="42.63679" lon="1.68167">
        <ele>1941.04</ele>
        <time>2018-07-22T12:42:06Z</time>
      </trkpt>
      <trkpt lat="42.63676" lon="1.68167">
        <ele>1940.56</ele>
        <time>2018-07-22T12:42:25Z</time>
      </trkpt>
      <trkpt lat="42.6368" lon="1.68167">
        <ele>1941.52</ele>
        <time>2018-07-22T12:42:40Z</time>
      </trkpt>
      <trkpt lat="42.6368" lon="1.68169">
        <ele>1942</ele>
        <time>2018-07-22T12:42:55Z</time>
      </trkpt>
      <trkpt lat="42.63679" lon="1.68177">
        <ele>1940.08</ele>
        <time>2018-07-22T12:43:03Z</time>
      </trkpt>
      <trkpt lat="42.63679" lon="1.6818">
        <ele>1939.12</ele>
        <time>2018-07-22T12:43:05Z</time>
      </trkpt>
      <trkpt lat="42.63682" lon="1.68193">
        <ele>1936.71</ele>
        <time>2018-07-22T12:43:13Z</time>
      </trkpt>
      <trkpt lat="42.63684" lon="1.68208">
        <ele>1935.27</ele>
        <time>2018-07-22T12:43:22Z</time>
      </trkpt>
      <trkpt lat="42.63688" lon="1.68215">
        <ele>1933.83</ele>
        <time>2018-07-22T12:43:27Z</time>
      </trkpt>
      <trkpt lat="42.63691" lon="1.68228">
        <ele>1931.91</ele>
        <time>2018-07-22T12:43:36Z</time>
      </trkpt>
      <trkpt lat="42.63693" lon="1.68232">
        <ele>1931.91</ele>
        <time>2018-07-22T12:43:40Z</time>
      </trkpt>
      <trkpt lat="42.63695" lon="1.68234">
        <ele>1930.95</ele>
        <time>2018-07-22T12:43:43Z</time>
      </trkpt>
      <trkpt lat="42.63697" lon="1.68241">
        <ele>1930.46</ele>
        <time>2018-07-22T12:43:47Z</time>
      </trkpt>
      <trkpt lat="42.63697" lon="1.68257">
        <ele>1930.46</ele>
        <time>2018-07-22T12:43:56Z</time>
      </trkpt>
      <trkpt lat="42.63694" lon="1.68267">
        <ele>1930.95</ele>
        <time>2018-07-22T12:44:03Z</time>
      </trkpt>
      <trkpt lat="42.63694" lon="1.68267">
        <ele>1930.95</ele>
        <time>2018-07-22T12:44:04Z</time>
      </trkpt>
      <trkpt lat="42.63696" lon="1.68273">
        <ele>1929.5</ele>
        <time>2018-07-22T12:44:08Z</time>
      </trkpt>
      <trkpt lat="42.63697" lon="1.68282">
        <ele>1928.54</ele>
        <time>2018-07-22T12:44:14Z</time>
      </trkpt>
      <trkpt lat="42.63701" lon="1.68292">
        <ele>1925.18</ele>
        <time>2018-07-22T12:44:22Z</time>
      </trkpt>
      <trkpt lat="42.63703" lon="1.683">
        <ele>1925.18</ele>
        <time>2018-07-22T12:44:28Z</time>
      </trkpt>
      <trkpt lat="42.63704" lon="1.68307">
        <ele>1924.22</ele>
        <time>2018-07-22T12:44:36Z</time>
      </trkpt>
      <trkpt lat="42.63705" lon="1.68315">
        <ele>1925.66</ele>
        <time>2018-07-22T12:44:44Z</time>
      </trkpt>
      <trkpt lat="42.63706" lon="1.68319">
        <ele>1925.18</ele>
        <time>2018-07-22T12:44:48Z</time>
      </trkpt>
      <trkpt lat="42.63706" lon="1.68327">
        <ele>1922.77</ele>
        <time>2018-07-22T12:44:54Z</time>
      </trkpt>
      <trkpt lat="42.63706" lon="1.68334">
        <ele>1922.29</ele>
        <time>2018-07-22T12:45:00Z</time>
      </trkpt>
      <trkpt lat="42.63706" lon="1.68339">
        <ele>1921.33</ele>
        <time>2018-07-22T12:45:08Z</time>
      </trkpt>
      <trkpt lat="42.63706" lon="1.68333">
        <ele>1921.33</ele>
        <time>2018-07-22T12:45:21Z</time>
      </trkpt>
      <trkpt lat="42.63709" lon="1.68334">
        <ele>1922.29</ele>
        <time>2018-07-22T12:45:35Z</time>
      </trkpt>
      <trkpt lat="42.63708" lon="1.68332">
        <ele>1926.62</ele>
        <time>2018-07-22T12:45:54Z</time>
      </trkpt>
      <trkpt lat="42.63707" lon="1.68336">
        <ele>1926.62</ele>
        <time>2018-07-22T12:46:07Z</time>
      </trkpt>
      <trkpt lat="42.63706" lon="1.68344">
        <ele>1925.66</ele>
        <time>2018-07-22T12:46:13Z</time>
      </trkpt>
      <trkpt lat="42.6371" lon="1.68352">
        <ele>1926.14</ele>
        <time>2018-07-22T12:46:20Z</time>
      </trkpt>
      <trkpt lat="42.63714" lon="1.6836">
        <ele>1924.22</ele>
        <time>2018-07-22T12:46:28Z</time>
      </trkpt>
      <trkpt lat="42.63716" lon="1.68369">
        <ele>1922.29</ele>
        <time>2018-07-22T12:46:38Z</time>
      </trkpt>
      <trkpt lat="42.63715" lon="1.68377">
        <ele>1919.89</ele>
        <time>2018-07-22T12:46:46Z</time>
      </trkpt>
      <trkpt lat="42.63717" lon="1.68386">
        <ele>1918.93</ele>
        <time>2018-07-22T12:46:53Z</time>
      </trkpt>
      <trkpt lat="42.6372" lon="1.68396">
        <ele>1916.53</ele>
        <time>2018-07-22T12:47:02Z</time>
      </trkpt>
      <trkpt lat="42.63722" lon="1.68406">
        <ele>1914.12</ele>
        <time>2018-07-22T12:47:09Z</time>
      </trkpt>
      <trkpt lat="42.63722" lon="1.68413">
        <ele>1914.12</ele>
        <time>2018-07-22T12:47:16Z</time>
      </trkpt>
      <trkpt lat="42.63722" lon="1.68425">
        <ele>1912.2</ele>
        <time>2018-07-22T12:47:25Z</time>
      </trkpt>
      <trkpt lat="42.63722" lon="1.68434">
        <ele>1909.8</ele>
        <time>2018-07-22T12:47:32Z</time>
      </trkpt>
      <trkpt lat="42.63723" lon="1.68442">
        <ele>1907.39</ele>
        <time>2018-07-22T12:47:40Z</time>
      </trkpt>
      <trkpt lat="42.63723" lon="1.68447">
        <ele>1905.95</ele>
        <time>2018-07-22T12:47:47Z</time>
      </trkpt>
      <trkpt lat="42.63724" lon="1.68454">
        <ele>1907.39</ele>
        <time>2018-07-22T12:47:54Z</time>
      </trkpt>
      <trkpt lat="42.63725" lon="1.68463">
        <ele>1909.32</ele>
        <time>2018-07-22T12:48:02Z</time>
      </trkpt>
      <trkpt lat="42.63725" lon="1.6847">
        <ele>1909.32</ele>
        <time>2018-07-22T12:48:07Z</time>
      </trkpt>
      <trkpt lat="42.63727" lon="1.68473">
        <ele>1909.32</ele>
        <time>2018-07-22T12:48:10Z</time>
      </trkpt>
      <trkpt lat="42.63729" lon="1.68481">
        <ele>1909.8</ele>
        <time>2018-07-22T12:48:14Z</time>
      </trkpt>
      <trkpt lat="42.63731" lon="1.68493">
        <ele>1908.35</ele>
        <time>2018-07-22T12:48:23Z</time>
      </trkpt>
      <trkpt lat="42.63732" lon="1.68505">
        <ele>1906.91</ele>
        <time>2018-07-22T12:48:32Z</time>
      </trkpt>
      <trkpt lat="42.63732" lon="1.68513">
        <ele>1907.87</ele>
        <time>2018-07-22T12:48:39Z</time>
      </trkpt>
      <trkpt lat="42.63734" lon="1.68525">
        <ele>1908.83</ele>
        <time>2018-07-22T12:48:47Z</time>
      </trkpt>
      <trkpt lat="42.63735" lon="1.6854">
        <ele>1907.87</ele>
        <time>2018-07-22T12:48:57Z</time>
      </trkpt>
      <trkpt lat="42.63736" lon="1.68553">
        <ele>1906.91</ele>
        <time>2018-07-22T12:49:06Z</time>
      </trkpt>
      <trkpt lat="42.63734" lon="1.68562">
        <ele>1904.51</ele>
        <time>2018-07-22T12:49:13Z</time>
      </trkpt>
      <trkpt lat="42.63734" lon="1.68572">
        <ele>1901.14</ele>
        <time>2018-07-22T12:49:22Z</time>
      </trkpt>
      <trkpt lat="42.63735" lon="1.6858">
        <ele>1896.82</ele>
        <time>2018-07-22T12:49:29Z</time>
      </trkpt>
      <trkpt lat="42.63737" lon="1.68594">
        <ele>1893.45</ele>
        <time>2018-07-22T12:49:38Z</time>
      </trkpt>
      <trkpt lat="42.63739" lon="1.68599">
        <ele>1893.45</ele>
        <time>2018-07-22T12:49:43Z</time>
      </trkpt>
      <trkpt lat="42.63741" lon="1.68613">
        <ele>1892.01</ele>
        <time>2018-07-22T12:49:53Z</time>
      </trkpt>
      <trkpt lat="42.63742" lon="1.68622">
        <ele>1891.05</ele>
        <time>2018-07-22T12:50:01Z</time>
      </trkpt>
      <trkpt lat="42.63743" lon="1.68631">
        <ele>1889.61</ele>
        <time>2018-07-22T12:50:08Z</time>
      </trkpt>
      <trkpt lat="42.63742" lon="1.6863">
        <ele>1886.72</ele>
        <time>2018-07-22T12:50:21Z</time>
      </trkpt>
      <trkpt lat="42.63744" lon="1.6863">
        <ele>1888.65</ele>
        <time>2018-07-22T12:50:38Z</time>
      </trkpt>
      <trkpt lat="42.63742" lon="1.68627">
        <ele>1891.53</ele>
        <time>2018-07-22T12:50:54Z</time>
      </trkpt>
      <trkpt lat="42.63741" lon="1.68631">
        <ele>1892.49</ele>
        <time>2018-07-22T12:51:06Z</time>
      </trkpt>
      <trkpt lat="42.63741" lon="1.68636">
        <ele>1892.49</ele>
        <time>2018-07-22T12:51:18Z</time>
      </trkpt>
      <trkpt lat="42.63742" lon="1.68638">
        <ele>1892.97</ele>
        <time>2018-07-22T12:51:26Z</time>
      </trkpt>
      <trkpt lat="42.63742" lon="1.68648">
        <ele>1892.01</ele>
        <time>2018-07-22T12:51:32Z</time>
      </trkpt>
      <trkpt lat="42.63746" lon="1.68663">
        <ele>1890.09</ele>
        <time>2018-07-22T12:51:41Z</time>
      </trkpt>
      <trkpt lat="42.63745" lon="1.68674">
        <ele>1890.09</ele>
        <time>2018-07-22T12:51:49Z</time>
      </trkpt>
      <trkpt lat="42.63744" lon="1.68681">
        <ele>1890.09</ele>
        <time>2018-07-22T12:51:56Z</time>
      </trkpt>
      <trkpt lat="42.63746" lon="1.68694">
        <ele>1890.09</ele>
        <time>2018-07-22T12:52:04Z</time>
      </trkpt>
      <trkpt lat="42.63747" lon="1.68702">
        <ele>1890.57</ele>
        <time>2018-07-22T12:52:09Z</time>
      </trkpt>
      <trkpt lat="42.63748" lon="1.68705">
        <ele>1890.57</ele>
        <time>2018-07-22T12:52:11Z</time>
      </trkpt>
      <trkpt lat="42.6375" lon="1.68709">
        <ele>1888.65</ele>
        <time>2018-07-22T12:52:17Z</time>
      </trkpt>
      <trkpt lat="42.63755" lon="1.68717">
        <ele>1887.21</ele>
        <time>2018-07-22T12:52:24Z</time>
      </trkpt>
      <trkpt lat="42.63759" lon="1.68725">
        <ele>1886.24</ele>
        <time>2018-07-22T12:52:31Z</time>
      </trkpt>
      <trkpt lat="42.6376" lon="1.6873">
        <ele>1887.69</ele>
        <time>2018-07-22T12:52:34Z</time>
      </trkpt>
      <trkpt lat="42.63762" lon="1.68745">
        <ele>1887.69</ele>
        <time>2018-07-22T12:52:43Z</time>
      </trkpt>
      <trkpt lat="42.63762" lon="1.68759">
        <ele>1888.65</ele>
        <time>2018-07-22T12:52:51Z</time>
      </trkpt>
      <trkpt lat="42.63763" lon="1.68763">
        <ele>1888.65</ele>
        <time>2018-07-22T12:52:53Z</time>
      </trkpt>
      <trkpt lat="42.63763" lon="1.68767">
        <ele>1889.61</ele>
        <time>2018-07-22T12:52:56Z</time>
      </trkpt>
      <trkpt lat="42.63763" lon="1.68776">
        <ele>1890.57</ele>
        <time>2018-07-22T12:53:02Z</time>
      </trkpt>
      <trkpt lat="42.63767" lon="1.68784">
        <ele>1891.05</ele>
        <time>2018-07-22T12:53:09Z</time>
      </trkpt>
      <trkpt lat="42.6377" lon="1.68797">
        <ele>1890.09</ele>
        <time>2018-07-22T12:53:17Z</time>
      </trkpt>
      <trkpt lat="42.6377" lon="1.68798">
        <ele>1890.09</ele>
        <time>2018-07-22T12:53:18Z</time>
      </trkpt>
      <trkpt lat="42.63772" lon="1.68802">
        <ele>1888.17</ele>
        <time>2018-07-22T12:53:24Z</time>
      </trkpt>
      <trkpt lat="42.63773" lon="1.68802">
        <ele>1886.72</ele>
        <time>2018-07-22T12:53:36Z</time>
      </trkpt>
      <trkpt lat="42.63772" lon="1.68803">
        <ele>1884.8</ele>
        <time>2018-07-22T12:53:46Z</time>
      </trkpt>
      <trkpt lat="42.63772" lon="1.68804">
        <ele>1887.21</ele>
        <time>2018-07-22T12:54:04Z</time>
      </trkpt>
      <trkpt lat="42.63772" lon="1.68804">
        <ele>1884.32</ele>
        <time>2018-07-22T12:54:20Z</time>
      </trkpt>
      <trkpt lat="42.63771" lon="1.68805">
        <ele>1890.09</ele>
        <time>2018-07-22T12:54:38Z</time>
      </trkpt>
      <trkpt lat="42.63772" lon="1.68803">
        <ele>1892.49</ele>
        <time>2018-07-22T12:54:52Z</time>
      </trkpt>
      <trkpt lat="42.6377" lon="1.68804">
        <ele>1896.82</ele>
        <time>2018-07-22T12:55:13Z</time>
      </trkpt>
      <trkpt lat="42.63768" lon="1.68804">
        <ele>1896.34</ele>
        <time>2018-07-22T12:55:29Z</time>
      </trkpt>
      <trkpt lat="42.6377" lon="1.68802">
        <ele>1892.01</ele>
        <time>2018-07-22T12:55:45Z</time>
      </trkpt>
      <trkpt lat="42.63772" lon="1.68801">
        <ele>1890.09</ele>
        <time>2018-07-22T12:55:59Z</time>
      </trkpt>
      <trkpt lat="42.63774" lon="1.68803">
        <ele>1888.65</ele>
        <time>2018-07-22T12:56:05Z</time>
      </trkpt>
      <trkpt lat="42.6378" lon="1.68811">
        <ele>1888.17</ele>
        <time>2018-07-22T12:56:14Z</time>
      </trkpt>
      <trkpt lat="42.63783" lon="1.68815">
        <ele>1887.69</ele>
        <time>2018-07-22T12:56:20Z</time>
      </trkpt>
      <trkpt lat="42.63781" lon="1.68813">
        <ele>1889.61</ele>
        <time>2018-07-22T12:56:31Z</time>
      </trkpt>
      <trkpt lat="42.63778" lon="1.68813">
        <ele>1892.49</ele>
        <time>2018-07-22T12:56:45Z</time>
      </trkpt>
      <trkpt lat="42.63778" lon="1.68813">
        <ele>1892.49</ele>
        <time>2018-07-22T12:56:57Z</time>
      </trkpt>
      <trkpt lat="42.63779" lon="1.68814">
        <ele>1892.97</ele>
        <time>2018-07-22T12:57:13Z</time>
      </trkpt>
      <trkpt lat="42.63779" lon="1.68813">
        <ele>1892.01</ele>
        <time>2018-07-22T12:57:26Z</time>
      </trkpt>
      <trkpt lat="42.6378" lon="1.68814">
        <ele>1892.01</ele>
        <time>2018-07-22T12:57:28Z</time>
      </trkpt>
      <trkpt lat="42.6378" lon="1.68813">
        <ele>1891.05</ele>
        <time>2018-07-22T12:57:33Z</time>
      </trkpt>
      <trkpt lat="42.63782" lon="1.68813">
        <ele>1891.53</ele>
        <time>2018-07-22T12:57:42Z</time>
      </trkpt>
      <trkpt lat="42.63778" lon="1.68816">
        <ele>1890.57</ele>
        <time>2018-07-22T12:57:47Z</time>
      </trkpt>
      <trkpt lat="42.63778" lon="1.68818">
        <ele>1890.09</ele>
        <time>2018-07-22T12:57:49Z</time>
      </trkpt>
      <trkpt lat="42.63778" lon="1.68822">
        <ele>1889.13</ele>
        <time>2018-07-22T12:57:56Z</time>
      </trkpt>
      <trkpt lat="42.63777" lon="1.68825">
        <ele>1889.13</ele>
        <time>2018-07-22T12:58:10Z</time>
      </trkpt>
      <trkpt lat="42.63777" lon="1.68826">
        <ele>1889.61</ele>
        <time>2018-07-22T12:58:11Z</time>
      </trkpt>
      <trkpt lat="42.63779" lon="1.68836">
        <ele>1886.24</ele>
        <time>2018-07-22T12:58:18Z</time>
      </trkpt>
      <trkpt lat="42.63783" lon="1.68848">
        <ele>1883.84</ele>
        <time>2018-07-22T12:58:26Z</time>
      </trkpt>
      <trkpt lat="42.63784" lon="1.68849">
        <ele>1883.84</ele>
        <time>2018-07-22T12:58:27Z</time>
      </trkpt>
      <trkpt lat="42.63791" lon="1.68865">
        <ele>1882.88</ele>
        <time>2018-07-22T12:58:37Z</time>
      </trkpt>
      <trkpt lat="42.63797" lon="1.68871">
        <ele>1882.88</ele>
        <time>2018-07-22T12:58:43Z</time>
      </trkpt>
      <trkpt lat="42.63804" lon="1.68882">
        <ele>1883.84</ele>
        <time>2018-07-22T12:58:52Z</time>
      </trkpt>
      <trkpt lat="42.63803" lon="1.6889">
        <ele>1884.8</ele>
        <time>2018-07-22T12:58:56Z</time>
      </trkpt>
      <trkpt lat="42.63805" lon="1.68896">
        <ele>1883.84</ele>
        <time>2018-07-22T12:59:00Z</time>
      </trkpt>
      <trkpt lat="42.63807" lon="1.68909">
        <ele>1883.36</ele>
        <time>2018-07-22T12:59:08Z</time>
      </trkpt>
      <trkpt lat="42.63807" lon="1.68917">
        <ele>1881.92</ele>
        <time>2018-07-22T12:59:15Z</time>
      </trkpt>
      <trkpt lat="42.63809" lon="1.68927">
        <ele>1880.48</ele>
        <time>2018-07-22T12:59:22Z</time>
      </trkpt>
      <trkpt lat="42.63813" lon="1.68934">
        <ele>1880.48</ele>
        <time>2018-07-22T12:59:28Z</time>
      </trkpt>
      <trkpt lat="42.63815" lon="1.68941">
        <ele>1881.44</ele>
        <time>2018-07-22T12:59:33Z</time>
      </trkpt>
      <trkpt lat="42.63817" lon="1.68949">
        <ele>1881.44</ele>
        <time>2018-07-22T12:59:40Z</time>
      </trkpt>
      <trkpt lat="42.63819" lon="1.68956">
        <ele>1881.92</ele>
        <time>2018-07-22T12:59:45Z</time>
      </trkpt>
      <trkpt lat="42.6382" lon="1.68961">
        <ele>1881.92</ele>
        <time>2018-07-22T12:59:49Z</time>
      </trkpt>
      <trkpt lat="42.63819" lon="1.68966">
        <ele>1882.4</ele>
        <time>2018-07-22T12:59:52Z</time>
      </trkpt>
      <trkpt lat="42.63823" lon="1.68974">
        <ele>1881.92</ele>
        <time>2018-07-22T12:59:59Z</time>
      </trkpt>
      <trkpt lat="42.63823" lon="1.68977">
        <ele>1881.92</ele>
        <time>2018-07-22T13:00:03Z</time>
      </trkpt>
      <trkpt lat="42.63822" lon="1.6898">
        <ele>1881.92</ele>
        <time>2018-07-22T13:00:05Z</time>
      </trkpt>
      <trkpt lat="42.63821" lon="1.68982">
        <ele>1882.4</ele>
        <time>2018-07-22T13:00:14Z</time>
      </trkpt>
      <trkpt lat="42.63822" lon="1.68981">
        <ele>1882.88</ele>
        <time>2018-07-22T13:00:28Z</time>
      </trkpt>
      <trkpt lat="42.63821" lon="1.68984">
        <ele>1881.44</ele>
        <time>2018-07-22T13:00:37Z</time>
      </trkpt>
      <trkpt lat="42.63825" lon="1.68992">
        <ele>1879.51</ele>
        <time>2018-07-22T13:00:43Z</time>
      </trkpt>
      <trkpt lat="42.63827" lon="1.69006">
        <ele>1876.63</ele>
        <time>2018-07-22T13:00:52Z</time>
      </trkpt>
      <trkpt lat="42.6383" lon="1.69014">
        <ele>1876.63</ele>
        <time>2018-07-22T13:00:58Z</time>
      </trkpt>
      <trkpt lat="42.63832" lon="1.69017">
        <ele>1876.63</ele>
        <time>2018-07-22T13:01:01Z</time>
      </trkpt>
      <trkpt lat="42.63836" lon="1.69028">
        <ele>1877.59</ele>
        <time>2018-07-22T13:01:10Z</time>
      </trkpt>
      <trkpt lat="42.63837" lon="1.6903">
        <ele>1877.11</ele>
        <time>2018-07-22T13:01:12Z</time>
      </trkpt>
      <trkpt lat="42.63839" lon="1.69033">
        <ele>1877.59</ele>
        <time>2018-07-22T13:01:16Z</time>
      </trkpt>
      <trkpt lat="42.63841" lon="1.69038">
        <ele>1876.15</ele>
        <time>2018-07-22T13:01:24Z</time>
      </trkpt>
      <trkpt lat="42.63841" lon="1.6904">
        <ele>1876.63</ele>
        <time>2018-07-22T13:01:39Z</time>
      </trkpt>
      <trkpt lat="42.63845" lon="1.69041">
        <ele>1876.63</ele>
        <time>2018-07-22T13:01:48Z</time>
      </trkpt>
      <trkpt lat="42.63845" lon="1.69041">
        <ele>1877.59</ele>
        <time>2018-07-22T13:01:56Z</time>
      </trkpt>
      <trkpt lat="42.63847" lon="1.69043">
        <ele>1878.07</ele>
        <time>2018-07-22T13:02:04Z</time>
      </trkpt>
      <trkpt lat="42.63848" lon="1.69043">
        <ele>1876.15</ele>
        <time>2018-07-22T13:02:11Z</time>
      </trkpt>
      <trkpt lat="42.63849" lon="1.69042">
        <ele>1876.15</ele>
        <time>2018-07-22T13:02:22Z</time>
      </trkpt>
      <trkpt lat="42.63849" lon="1.69043">
        <ele>1876.63</ele>
        <time>2018-07-22T13:02:35Z</time>
      </trkpt>
      <trkpt lat="42.63852" lon="1.69048">
        <ele>1874.71</ele>
        <time>2018-07-22T13:02:41Z</time>
      </trkpt>
      <trkpt lat="42.63852" lon="1.69048">
        <ele>1871.82</ele>
        <time>2018-07-22T13:02:52Z</time>
      </trkpt>
      <trkpt lat="42.63849" lon="1.69048">
        <ele>1870.38</ele>
        <time>2018-07-22T13:03:09Z</time>
      </trkpt>
      <trkpt lat="42.6385" lon="1.69049">
        <ele>1870.86</ele>
        <time>2018-07-22T13:03:19Z</time>
      </trkpt>
      <trkpt lat="42.63851" lon="1.6905">
        <ele>1870.86</ele>
        <time>2018-07-22T13:03:20Z</time>
      </trkpt>
      <trkpt lat="42.63854" lon="1.69056">
        <ele>1872.79</ele>
        <time>2018-07-22T13:03:28Z</time>
      </trkpt>
      <trkpt lat="42.63859" lon="1.6906">
        <ele>1874.71</ele>
        <time>2018-07-22T13:03:36Z</time>
      </trkpt>
      <trkpt lat="42.63862" lon="1.69065">
        <ele>1874.23</ele>
        <time>2018-07-22T13:03:43Z</time>
      </trkpt>
      <trkpt lat="42.63863" lon="1.6907">
        <ele>1874.23</ele>
        <time>2018-07-22T13:03:51Z</time>
      </trkpt>
      <trkpt lat="42.63865" lon="1.69077">
        <ele>1871.82</ele>
        <time>2018-07-22T13:03:59Z</time>
      </trkpt>
      <trkpt lat="42.63866" lon="1.69084">
        <ele>1870.38</ele>
        <time>2018-07-22T13:04:06Z</time>
      </trkpt>
      <trkpt lat="42.63865" lon="1.69094">
        <ele>1869.42</ele>
        <time>2018-07-22T13:04:15Z</time>
      </trkpt>
      <trkpt lat="42.63865" lon="1.69105">
        <ele>1867.98</ele>
        <time>2018-07-22T13:04:24Z</time>
      </trkpt>
      <trkpt lat="42.63868" lon="1.69112">
        <ele>1865.58</ele>
        <time>2018-07-22T13:04:32Z</time>
      </trkpt>
      <trkpt lat="42.63869" lon="1.69118">
        <ele>1862.69</ele>
        <time>2018-07-22T13:04:38Z</time>
      </trkpt>
      <trkpt lat="42.63872" lon="1.69127">
        <ele>1862.21</ele>
        <time>2018-07-22T13:04:45Z</time>
      </trkpt>
      <trkpt lat="42.63871" lon="1.69131">
        <ele>1862.21</ele>
        <time>2018-07-22T13:04:49Z</time>
      </trkpt>
      <trkpt lat="42.63871" lon="1.69133">
        <ele>1861.73</ele>
        <time>2018-07-22T13:04:51Z</time>
      </trkpt>
      <trkpt lat="42.63872" lon="1.69136">
        <ele>1861.73</ele>
        <time>2018-07-22T13:04:53Z</time>
      </trkpt>
      <trkpt lat="42.63875" lon="1.69141">
        <ele>1860.77</ele>
        <time>2018-07-22T13:05:00Z</time>
      </trkpt>
      <trkpt lat="42.63879" lon="1.69152">
        <ele>1860.29</ele>
        <time>2018-07-22T13:05:08Z</time>
      </trkpt>
      <trkpt lat="42.63881" lon="1.69157">
        <ele>1860.29</ele>
        <time>2018-07-22T13:05:16Z</time>
      </trkpt>
      <trkpt lat="42.63881" lon="1.69157">
        <ele>1862.21</ele>
        <time>2018-07-22T13:05:24Z</time>
      </trkpt>
      <trkpt lat="42.63881" lon="1.69165">
        <ele>1862.69</ele>
        <time>2018-07-22T13:05:31Z</time>
      </trkpt>
      <trkpt lat="42.63875" lon="1.69172">
        <ele>1861.73</ele>
        <time>2018-07-22T13:05:39Z</time>
      </trkpt>
      <trkpt lat="42.63874" lon="1.69175">
        <ele>1860.77</ele>
        <time>2018-07-22T13:05:47Z</time>
      </trkpt>
      <trkpt lat="42.63872" lon="1.69178">
        <ele>1860.77</ele>
        <time>2018-07-22T13:06:00Z</time>
      </trkpt>
      <trkpt lat="42.63871" lon="1.69179">
        <ele>1861.73</ele>
        <time>2018-07-22T13:06:13Z</time>
      </trkpt>
      <trkpt lat="42.63872" lon="1.6918">
        <ele>1861.73</ele>
        <time>2018-07-22T13:06:26Z</time>
      </trkpt>
      <trkpt lat="42.63872" lon="1.69179">
        <ele>1860.77</ele>
        <time>2018-07-22T13:06:45Z</time>
      </trkpt>
      <trkpt lat="42.63874" lon="1.69171">
        <ele>1861.73</ele>
        <time>2018-07-22T13:06:52Z</time>
      </trkpt>
      <trkpt lat="42.63872" lon="1.6918">
        <ele>1860.77</ele>
        <time>2018-07-22T13:06:56Z</time>
      </trkpt>
      <trkpt lat="42.63872" lon="1.692">
        <ele>1858.85</ele>
        <time>2018-07-22T13:07:07Z</time>
      </trkpt>
      <trkpt lat="42.63876" lon="1.69214">
        <ele>1855</ele>
        <time>2018-07-22T13:07:16Z</time>
      </trkpt>
      <trkpt lat="42.63877" lon="1.69222">
        <ele>1853.08</ele>
        <time>2018-07-22T13:07:21Z</time>
      </trkpt>
      <trkpt lat="42.63878" lon="1.69227">
        <ele>1852.12</ele>
        <time>2018-07-22T13:07:24Z</time>
      </trkpt>
      <trkpt lat="42.63883" lon="1.6924">
        <ele>1849.71</ele>
        <time>2018-07-22T13:07:35Z</time>
      </trkpt>
      <trkpt lat="42.63885" lon="1.69246">
        <ele>1849.23</ele>
        <time>2018-07-22T13:07:41Z</time>
      </trkpt>
      <trkpt lat="42.63887" lon="1.69255">
        <ele>1848.27</ele>
        <time>2018-07-22T13:07:49Z</time>
      </trkpt>
      <trkpt lat="42.6389" lon="1.69268">
        <ele>1845.87</ele>
        <time>2018-07-22T13:07:58Z</time>
      </trkpt>
      <trkpt lat="42.6389" lon="1.69272">
        <ele>1845.39</ele>
        <time>2018-07-22T13:08:01Z</time>
      </trkpt>
      <trkpt lat="42.63894" lon="1.69288">
        <ele>1844.43</ele>
        <time>2018-07-22T13:08:11Z</time>
      </trkpt>
      <trkpt lat="42.63895" lon="1.6929">
        <ele>1843.95</ele>
        <time>2018-07-22T13:08:18Z</time>
      </trkpt>
      <trkpt lat="42.63896" lon="1.69297">
        <ele>1842.5</ele>
        <time>2018-07-22T13:08:22Z</time>
      </trkpt>
      <trkpt lat="42.63909" lon="1.69325">
        <ele>1851.9</ele>
      </trkpt>
      <trkpt lat="42.6392" lon="1.69364">
        <ele>1850.1</ele>
      </trkpt>
      <trkpt lat="42.63937" lon="1.69405">
        <ele>1844.9</ele>
      </trkpt>
      <trkpt lat="42.63944" lon="1.69434">
        <ele>1835.6</ele>
      </trkpt>
      <trkpt lat="42.6396" lon="1.69468">
        <ele>1834.5</ele>
      </trkpt>
      <trkpt lat="42.63981" lon="1.69491">
        <ele>1834.3</ele>
      </trkpt>
      <trkpt lat="42.63997" lon="1.69514">
        <ele>1826.1</ele>
      </trkpt>
      <trkpt lat="42.64009" lon="1.69553">
        <ele>1826.6</ele>
      </trkpt>
      <trkpt lat="42.64021" lon="1.69583">
        <ele>1821.3</ele>
      </trkpt>
      <trkpt lat="42.64038" lon="1.69618">
        <ele>1809.2</ele>
      </trkpt>
      <trkpt lat="42.64049" lon="1.69652">
        <ele>1806.3</ele>
      </trkpt>
      <trkpt lat="42.64064" lon="1.6969">
        <ele>1792.6</ele>
      </trkpt>
      <trkpt lat="42.64081" lon="1.69725">
        <ele>1786.3</ele>
      </trkpt>
      <trkpt lat="42.64091" lon="1.69746">
        <ele>1786.8</ele>
      </trkpt>
      <trkpt lat="42.64102" lon="1.6977">
        <ele>1778.9</ele>
      </trkpt>
      <trkpt lat="42.6412" lon="1.69791">
        <ele>1777.9</ele>
      </trkpt>
      <trkpt lat="42.64139" lon="1.69809">
        <ele>1776.2</ele>
      </trkpt>
      <trkpt lat="42.64166" lon="1.69837">
        <ele>1766.4</ele>
      </trkpt>
      <trkpt lat="42.64191" lon="1.69862">
        <ele>1760</ele>
      </trkpt>
      <trkpt lat="42.64212" lon="1.69893">
        <ele>1754.7</ele>
      </trkpt>
      <trkpt lat="42.64247" lon="1.69914">
        <ele>1742.7</ele>
      </trkpt>
      <trkpt lat="42.64275" lon="1.69931">
        <ele>1736.9</ele>
      </trkpt>
      <trkpt lat="42.64298" lon="1.69947">
        <ele>1735.8</ele>
      </trkpt>
      <trkpt lat="42.64324" lon="1.69961">
        <ele>1734</ele>
      </trkpt>
      <trkpt lat="42.64351" lon="1.69975">
        <ele>1734.2</ele>
      </trkpt>
      <trkpt lat="42.64375" lon="1.69979">
        <ele>1735.4</ele>
      </trkpt>
      <trkpt lat="42.6441" lon="1.70004">
        <ele>1726.7</ele>
      </trkpt>
      <trkpt lat="42.64452" lon="1.70031">
        <ele>1725.4</ele>
      </trkpt>
      <trkpt lat="42.64485" lon="1.70038">
        <ele>1725.8</ele>
      </trkpt>
      <trkpt lat="42.64529" lon="1.70053">
        <ele>1724.5</ele>
      </trkpt>
      <trkpt lat="42.6457" lon="1.70053">
        <ele>1723.3</ele>
      </trkpt>
      <trkpt lat="42.64601" lon="1.70053">
        <ele>1718.4</ele>
      </trkpt>
      <trkpt lat="42.64633" lon="1.70046">
        <ele>1717.3</ele>
      </trkpt>
      <trkpt lat="42.64651" lon="1.70029">
        <ele>1718.2</ele>
      </trkpt>
      <trkpt lat="42.64696" lon="1.70045">
        <ele>1710.5</ele>
      </trkpt>
      <trkpt lat="42.64727" lon="1.70053">
        <ele>1708.3</ele>
      </trkpt>
      <trkpt lat="42.64757" lon="1.70059">
        <ele>1708</ele>
      </trkpt>
      <trkpt lat="42.64789" lon="1.70058">
        <ele>1711.5</ele>
      </trkpt>
      <trkpt lat="42.64805" lon="1.70065">
        <ele>1711.6</ele>
      </trkpt>
      <trkpt lat="42.64833" lon="1.70078">
        <ele>1708.5</ele>
      </trkpt>
      <trkpt lat="42.64847" lon="1.70092">
        <ele>1707.5</ele>
      </trkpt>
      <trkpt lat="42.64855" lon="1.70113">
        <ele>1707.2</ele>
      </trkpt>
      <trkpt lat="42.64862" lon="1.70142">
        <ele>1705.8</ele>
      </trkpt>
      <trkpt lat="42.6487" lon="1.70173">
        <ele>1700.9</ele>
      </trkpt>
      <trkpt lat="42.64883" lon="1.7019">
        <ele>1700.9</ele>
      </trkpt>
      <trkpt lat="42.64896" lon="1.70215">
        <ele>1700.1</ele>
      </trkpt>
      <trkpt lat="42.6491" lon="1.70244">
        <ele>1698</ele>
      </trkpt>
      <trkpt lat="42.64927" lon="1.70262">
        <ele>1697.6</ele>
      </trkpt>
      <trkpt lat="42.64951" lon="1.70287">
        <ele>1698.2</ele>
      </trkpt>
      <trkpt lat="42.64955" lon="1.70309">
        <ele>1698.1</ele>
      </trkpt>
      <trkpt lat="42.6494" lon="1.70344">
        <ele>1705.3</ele>
      </trkpt>
      <trkpt lat="42.6495" lon="1.70355">
        <ele>1707.6</ele>
      </trkpt>
      <trkpt lat="42.64971" lon="1.70356">
        <ele>1707.9</ele>
      </trkpt>
    </trkseg>
  </trk>
</gpx>